GFSSGP_prec_cthk_036.txt.gz
RH
55 52 52 49 48 40 35 28 26 26 23 21 21 22 24 29 40 53 50 48 41 34 28 29 36 36 39 38 37 35 37 40 38 35 30 27 25 21 18 19 34 36 38 32 25 20 13 12 12
62 60 58 57 55 50 38 33 30 26 25 22 18 17 21 40 37 44 48 47 43 35 31 34 42 42 40 39 38 39 36 37 34 30 27 22 20 17 17 26 31 33 34 28 25 18 11 11 11
70 67 66 61 56 51 45 39 35 30 25 23 21 16 21 40 43 44 46 43 44 36 34 37 42 43 44 41 41 38 37 36 32 29 24 19 16 15 15 23 26 28 31 31 25 17 16 15 16
80 72 65 67 56 45 48 44 40 32 27 24 26 23 29 40 37 36 39 45 43 38 38 39 39 39 44 41 41 40 40 35 33 29 23 19 17 17 17 17 24 25 24 21 18 19 20 22 22
87 79 70 63 57 50 48 49 41 37 33 28 27 35 37 34 34 35 37 42 43 39 44 41 37 41 37 40 39 42 41 39 35 30 25 20 20 20 20 22 23 25 23 22 22 24 24 23 22
95 84 79 66 55 52 49 51 42 39 35 32 31 40 45 40 39 40 43 44 48 47 47 42 37 38 38 36 41 41 41 42 38 31 26 24 22 23 24 26 27 26 25 26 28 28 27 27 27
90 92 79 73 58 54 47 53 43 36 36 31 35 37 49 44 42 44 46 48 49 49 46 40 37 37 37 38 40 42 41 41 40 34 27 25 25 24 25 27 28 29 30 32 30 30 28 28 28
82 88 88 77 71 60 50 53 45 37 33 37 33 42 60 44 40 47 48 46 47 47 45 44 39 37 35 33 35 40 42 42 41 37 32 26 27 28 30 29 29 31 34 36 35 34 33 32 30
85 91 92 81 72 64 56 54 46 39 34 34 33 40 54 48 38 42 44 43 46 46 47 44 42 35 34 33 34 35 41 43 42 40 38 31 29 30 34 35 35 33 35 36 36 35 35 35 35
86 87 79 78 74 70 63 60 49 39 32 29 31 36 40 39 34 37 37 39 39 40 40 44 42 40 39 38 34 36 39 43 44 44 40 35 33 34 34 37 39 39 39 37 36 35 35 36 37
75 70 73 79 81 72 67 63 52 42 36 29 28 33 37 36 33 32 31 31 32 34 35 37 40 38 38 39 41 36 41 43 43 42 39 38 39 44 42 40 42 42 41 38 38 37 35 36 36
67 60 68 73 78 77 66 63 47 41 38 33 29 32 31 33 32 30 31 33 31 33 34 36 35 37 38 38 37 38 39 42 43 47 47 45 43 45 46 46 46 43 43 41 39 40 40 39 38
64 70 63 62 68 64 62 54 46 41 40 39 36 29 28 31 35 33 32 34 35 33 33 33 33 33 34 35 36 40 42 42 44 45 46 47 48 48 48 50 53 51 50 52 51 46 44 41 40
58 70 71 66 58 58 54 50 46 41 42 38 35 32 29 27 28 34 35 35 36 37 34 31 30 30 32 36 38 39 43 41 42 45 45 46 46 47 49 50 53 56 56 57 56 56 52 49 44
65 69 71 69 60 61 60 54 42 40 42 38 35 32 30 27 25 26 28 34 41 40 38 32 30 27 29 31 35 38 39 40 38 38 38 40 43 45 45 47 49 53 56 61 62 58 57 57 52
68 66 72 70 66 64 62 54 44 40 41 39 36 32 31 29 26 23 22 25 29 37 41 40 32 29 30 28 31 35 36 38 39 41 41 38 39 42 44 45 47 52 57 62 65 61 60 58 57
72 64 61 62 63 64 65 55 49 43 42 39 37 34 32 30 28 26 23 21 24 24 25 30 33 33 28 31 35 33 36 38 40 41 40 40 38 38 41 45 47 47 52 55 61 61 64 64 64
61 58 55 50 58 62 65 58 51 44 41 36 33 33 32 30 29 28 27 24 21 21 20 22 25 27 30 36 36 34 33 37 37 38 39 40 37 36 39 44 48 49 50 52 55 57 59 60 60
51 54 54 39 47 55 56 62 55 44 40 38 35 33 29 27 27 26 26 26 24 20 19 17 18 21 23 25 31 34 31 30 34 36 37 43 48 42 37 42 45 50 49 50 53 56 59 61 63
58 56 50 47 46 50 49 50 54 45 37 34 32 29 26 25 24 25 24 23 23 21 19 17 16 17 19 21 22 25 26 26 24 24 28 35 39 45 50 45 43 47 50 49 55 54 58 61 64
57 56 49 52 51 49 48 44 46 47 38 30 27 25 24 23 23 22 22 22 21 19 18 17 17 17 17 17 17 18 20 23 26 24 21 21 27 40 44 48 55 52 54 55 52 58 62 66 71
60 57 51 52 52 52 45 36 35 40 39 32 26 24 21 20 20 20 22 22 22 20 18 17 16 16 17 18 19 20 21 21 24 27 26 26 27 27 29 38 46 55 57 58 56 56 61 68 68
65 60 56 53 52 54 52 50 31 38 40 36 28 25 24 23 23 24 24 23 25 22 19 18 17 17 18 17 17 18 19 21 22 26 31 32 31 29 29 32 34 45 54 59 63 63 58 62 67
78 74 62 55 54 66 45 50 38 33 29 37 35 31 29 28 29 29 28 26 25 22 20 19 18 18 18 18 19 18 18 18 17 20 24 30 33 34 35 39 39 42 48 53 56 60 66 65 64
81 80 85 78 72 67 41 48 39 31 28 27 29 34 33 33 34 31 28 27 25 23 22 21 20 20 20 20 19 19 20 20 19 19 24 33 41 45 47 47 44 46 51 56 58 63 69 70 68
80 72 77 67 71 58 45 49 41 34 27 26 28 29 30 31 31 30 28 27 26 26 25 25 25 25 26 26 26 25 23 24 25 27 28 28 35 40 42 46 41 38 41 46 53 57 61 74 72
86 83 65 68 50 64 50 35 33 33 33 33 29 29 31 30 31 31 31 30 30 29 28 29 29 30 29 28 29 30 31 31 29 27 29 32 34 34 35 36 38 39 41 46 49 53 60 63 67
82 75 80 77 70 57 45 38 35 32 31 30 30 28 32 33 35 35 34 34 34 34 33 32 31 30 29 29 28 28 27 27 28 29 29 30 36 38 38 35 35 39 45 50 57 64 71 78 79
82 83 76 72 66 72 53 40 31 30 30 30 30 32 34 36 39 39 39 39 39 39 37 36 34 34 33 31 31 30 30 31 33 33 36 38 39 40 39 38 37 38 40 47 59 68 70 78 88
91 87 83 87 76 62 62 54 38 36 35 37 36 37 39 40 44 44 43 43 42 41 39 39 38 37 37 36 35 35 35 37 38 42 42 42 41 40 38 37 38 39 45 55 69 77 77 81 80

GFSSGP_prec_cthk_039.txt.gz
RH
47 44 42 40 41 39 33 30 27 24 23 20 23 27 36 40 45 47 45 45 42 38 33 27 29 33 35 35 34 33 32 33 31 29 26 23 21 19 19 28 34 37 31 26 19 12 11 12 12
55 51 50 49 50 47 36 31 27 26 24 20 20 26 32 42 38 41 41 44 42 37 32 28 32 38 40 36 35 37 34 30 28 25 23 19 17 15 28 31 31 31 30 22 19 12 11 11 11
64 59 57 57 55 51 40 32 30 27 24 22 21 22 32 37 39 42 39 42 44 36 32 30 37 40 40 38 38 38 37 32 28 25 20 16 14 14 24 24 26 28 28 25 19 17 16 16 16
70 69 62 63 57 46 45 41 35 31 26 23 22 24 32 35 36 40 38 40 41 38 33 34 42 42 40 42 41 40 37 35 31 25 20 16 16 15 19 24 24 24 24 20 17 18 19 19 20
82 80 76 65 56 49 54 47 41 35 31 27 27 31 33 35 31 34 40 40 38 38 34 33 39 40 39 42 42 40 39 36 31 28 21 20 19 18 18 20 24 23 22 21 23 24 23 22 22
88 92 86 71 58 56 61 51 49 41 37 31 35 40 42 38 33 37 40 39 38 37 37 39 39 38 40 41 42 41 40 39 34 29 23 22 21 22 21 23 24 24 24 25 26 26 25 26 26
86 94 92 78 67 64 62 55 49 43 39 33 38 47 48 48 43 45 44 41 41 42 43 43 38 35 35 38 42 43 41 40 37 32 26 24 24 25 27 26 25 25 28 30 30 30 28 27 26
84 88 93 84 75 68 66 62 51 46 40 36 41 51 55 49 48 50 49 45 45 47 45 40 35 34 34 35 38 42 42 41 40 37 33 28 26 25 28 30 30 29 30 31 31 32 32 32 31
89 89 93 87 80 64 73 71 54 48 40 37 45 45 48 52 53 49 50 48 44 43 43 41 37 34 34 33 32 32 38 40 39 36 34 32 30 27 27 29 33 35 35 35 33 32 33 34 33
94 90 80 75 73 77 74 72 61 48 43 40 41 45 53 54 53 50 45 44 43 41 41 42 41 37 34 32 31 31 32 35 36 35 36 34 32 30 31 32 33 36 38 41 39 35 35 36 34
89 75 75 78 81 89 85 76 69 54 47 40 37 37 42 47 49 49 45 43 43 41 38 35 35 35 32 34 35 31 30 31 34 35 36 37 34 34 33 34 36 39 41 42 43 41 39 39 38
78 76 76 78 89 89 86 77 70 56 48 39 36 32 37 42 42 42 42 36 37 36 36 34 32 30 30 32 33 33 31 32 35 36 39 40 37 38 40 39 38 39 42 42 44 45 45 44 42
69 71 75 80 82 82 86 80 70 63 51 41 40 36 33 39 40 38 35 34 32 32 35 35 33 32 30 29 30 30 31 34 37 39 41 44 44 40 42 42 43 42 45 47 48 47 48 47 49
60 70 75 74 73 74 82 79 74 62 51 43 43 38 33 32 33 37 37 33 31 32 32 35 34 34 32 29 29 30 31 33 35 37 38 39 41 41 40 42 44 47 48 50 51 54 56 55 51
62 67 73 76 67 68 71 73 71 63 51 44 40 38 33 33 31 30 32 36 36 35 35 35 35 33 31 29 31 31 33 33 34 36 36 33 34 37 38 39 39 39 42 46 48 54 56 58 57
66 66 76 67 70 67 65 60 56 54 49 42 38 35 34 32 30 29 28 29 33 36 36 37 36 35 30 30 31 32 34 36 38 34 34 34 35 34 36 37 36 39 41 44 48 51 52 54 57
80 70 68 63 62 66 66 58 54 47 43 39 38 36 34 32 31 30 28 27 27 29 30 31 31 29 30 33 34 33 36 38 38 36 36 36 37 37 39 39 36 37 40 43 48 52 51 51 52
57 55 58 57 59 65 66 60 59 53 47 41 38 36 34 32 30 30 29 28 26 25 26 29 29 28 28 27 27 32 34 34 35 38 40 44 43 44 44 43 46 46 45 46 50 52 55 55 54
54 59 58 55 54 62 59 63 61 58 51 44 39 36 34 33 32 30 29 28 27 26 26 25 23 25 25 26 26 25 26 31 40 42 38 42 44 46 44 50 53 55 55 50 50 54 61 59 62
61 62 58 56 53 57 55 56 61 59 52 45 40 37 35 33 31 29 27 26 26 27 26 26 25 22 21 22 22 23 24 25 25 25 29 32 35 37 42 46 50 50 56 58 59 63 68 70 69
57 54 56 54 57 58 49 48 49 52 52 47 44 35 33 31 29 27 25 24 24 24 24 23 22 21 20 19 19 20 21 20 20 21 21 22 24 28 33 37 46 48 55 54 59 67 64 67 68
56 51 57 55 56 63 51 48 37 41 43 47 44 37 31 29 27 26 25 23 22 22 20 19 19 18 18 18 19 19 20 21 22 22 22 22 24 27 30 32 36 41 48 47 49 52 59 69 68
60 59 63 63 61 58 56 54 39 38 40 40 41 36 31 26 26 25 24 23 22 21 20 18 18 18 18 17 17 17 17 18 18 20 21 23 24 27 30 31 30 34 37 40 44 50 55 58 72
62 64 67 69 71 74 55 55 43 41 34 35 40 38 37 27 26 25 24 24 22 22 21 22 22 21 20 18 17 17 16 17 17 17 18 19 20 22 27 31 38 39 45 49 51 57 58 61 74
71 71 88 87 83 70 46 52 42 35 37 34 36 37 38 33 31 29 28 28 27 27 26 25 24 23 21 20 19 19 19 19 20 20 19 18 22 30 35 36 44 44 50 48 45 46 48 54 59
79 76 81 84 81 66 48 52 40 30 35 35 30 32 36 41 38 36 34 32 31 30 29 27 26 24 23 22 22 23 25 25 26 25 25 27 26 27 33 35 37 39 38 38 39 47 46 47 50
83 82 73 78 68 76 53 41 37 34 34 39 32 30 32 36 37 35 33 31 31 30 29 27 26 25 24 24 25 27 28 30 30 29 29 28 30 31 31 30 32 37 38 35 37 38 44 47 49
84 82 91 91 88 73 61 47 39 35 33 36 39 34 32 33 33 33 33 33 32 32 31 31 29 28 27 28 28 28 27 26 26 25 25 27 29 34 38 39 38 36 33 33 36 37 39 44 50
94 91 85 82 85 83 60 49 37 35 33 33 34 37 36 39 37 38 39 37 35 35 35 34 33 33 33 33 32 31 31 30 29 29 30 32 35 37 38 38 36 33 34 34 34 37 39 43 47
90 89 82 88 83 74 73 56 39 35 34 33 32 33 36 38 40 42 41 40 39 39 38 38 38 37 36 34 34 34 34 34 35 37 37 40 42 41 40 39 37 37 34 33 37 41 46 49 55

GFSSGP_prec_cthk_042.txt.gz
RH
43 39 38 35 37 38 34 27 23 22 27 30 36 39 47 47 50 48 48 42 40 37 31 29 29 31 36 34 34 31 26 25 25 22 22 20 19 19 24 31 34 29 24 18 12 10 11 14 18
48 44 42 41 45 43 34 29 27 22 21 24 31 36 40 48 48 47 45 40 38 37 31 28 29 33 35 36 37 36 32 26 24 22 19 17 16 25 27 29 31 28 22 16 11 10 10 10 12
59 51 48 50 50 43 35 33 28 26 24 20 24 31 36 41 41 42 42 40 39 36 31 29 31 39 37 38 39 36 35 31 26 22 17 15 15 23 25 27 27 26 24 19 16 16 16 16 16
63 61 56 57 52 41 40 37 31 29 26 24 23 29 33 36 38 39 39 41 38 36 32 30 35 42 39 40 40 38 36 34 31 24 18 16 15 23 22 23 24 24 24 18 18 19 19 19 20
69 68 72 62 51 48 47 40 35 32 30 27 25 31 34 36 35 35 35 39 39 37 35 36 37 39 41 43 42 40 38 36 32 27 21 19 19 18 21 22 23 22 21 21 23 23 23 24 25
80 77 80 73 56 55 54 48 39 33 31 33 32 30 36 35 31 31 35 42 42 39 36 33 36 38 42 43 42 41 41 38 32 28 23 22 20 21 24 23 23 23 23 24 24 23 23 23 24
79 83 84 77 68 64 63 53 44 40 36 34 38 40 39 36 33 32 33 41 44 41 37 35 34 37 42 41 40 42 42 39 34 31 27 24 24 23 24 27 29 27 26 27 26 26 27 27 27
82 82 83 82 78 74 69 59 50 46 42 41 41 47 46 43 40 39 43 42 42 42 40 40 40 37 38 39 38 40 40 40 35 32 30 28 26 26 25 26 28 31 34 34 32 30 29 29 28
88 91 86 86 83 75 73 69 57 50 47 44 44 44 47 48 49 49 50 50 48 45 44 41 38 36 34 35 35 38 38 37 36 34 32 29 29 29 29 30 30 30 34 37 38 37 36 34 33
92 80 74 70 76 82 81 76 67 60 53 51 47 48 51 52 51 50 53 52 48 47 47 44 38 35 35 35 35 33 33 35 35 33 33 32 32 32 31 30 32 34 34 37 37 38 39 38 38
83 70 72 77 83 86 88 82 73 63 52 52 48 52 56 56 58 57 54 54 50 47 44 43 42 40 36 34 33 30 30 31 32 32 32 33 32 34 35 35 34 35 36 38 40 40 40 41 42
87 84 81 83 87 86 89 89 77 67 54 52 46 42 48 56 57 56 57 55 51 45 42 40 38 36 34 31 30 29 28 30 33 33 33 34 33 35 38 37 37 37 37 38 39 42 43 43 43
80 81 88 90 91 90 88 88 87 70 58 54 48 43 41 45 50 52 54 55 52 45 38 35 35 32 31 29 28 27 27 27 29 34 37 39 40 39 42 43 44 43 41 42 40 38 42 45 46
71 82 86 89 90 91 93 83 88 69 61 58 50 47 41 41 44 45 42 43 43 44 39 35 33 31 29 28 28 27 26 27 31 33 36 37 38 39 40 41 42 44 45 45 46 44 44 45 46
59 80 84 78 80 82 87 91 89 73 64 62 56 46 41 39 40 40 42 42 40 37 37 37 36 34 31 31 30 27 27 30 31 33 34 34 34 33 32 33 34 36 38 40 40 43 45 48 50
61 66 78 68 73 78 79 77 82 71 67 62 57 49 42 38 36 34 33 33 35 38 40 42 39 38 37 34 32 30 29 29 30 30 32 34 34 33 32 33 33 34 37 38 38 38 40 43 46
64 64 61 66 68 72 70 70 78 74 72 62 59 51 44 40 37 34 31 30 29 29 31 35 38 39 40 39 37 35 34 32 32 35 34 33 33 35 40 40 39 41 43 42 44 45 46 46 47
53 56 50 57 66 67 68 70 71 64 57 53 55 50 40 39 37 35 32 30 29 28 28 28 29 29 31 34 33 32 32 34 35 34 35 38 45 47 50 51 52 51 50 50 55 55 56 57 57
55 58 61 59 64 66 64 67 69 64 56 48 44 42 38 36 35 33 31 30 30 29 27 30 30 29 29 30 32 30 28 28 31 35 39 44 47 48 50 51 45 43 46 47 51 64 61 67 70
59 61 63 61 61 64 65 62 65 64 58 52 47 42 40 37 35 33 32 31 30 30 29 28 28 29 28 27 26 25 25 24 25 25 29 31 32 33 33 38 42 43 45 50 51 58 57 64 71
57 58 61 59 59 61 58 57 58 54 54 54 50 46 40 36 34 33 33 32 31 30 29 28 27 26 25 26 26 25 24 23 23 23 23 24 24 26 31 33 31 33 36 36 40 49 59 59 64
60 57 56 60 62 65 54 61 45 47 47 51 53 48 44 38 34 32 31 30 29 28 26 24 24 23 23 22 24 23 22 21 21 21 21 21 22 23 24 27 30 31 33 35 37 40 48 50 52
59 55 55 57 61 61 58 59 46 41 42 40 44 46 43 42 36 32 30 29 28 26 24 22 21 19 20 20 20 19 18 19 20 19 19 19 19 20 22 25 27 32 36 34 37 39 40 46 55
67 63 63 66 67 70 56 58 48 43 34 35 37 39 43 43 40 37 30 28 26 25 23 21 20 20 19 18 18 18 18 17 17 16 16 16 16 16 18 19 21 26 37 42 49 52 52 47 50
66 67 80 81 81 64 57 65 41 38 35 33 37 37 39 41 41 37 33 29 26 24 23 22 21 21 21 22 21 21 20 19 18 16 16 17 17 17 19 22 27 35 37 46 47 41 44 40 42
67 61 68 72 77 65 57 59 41 33 31 33 37 38 38 39 42 39 36 30 28 26 25 25 26 26 26 25 25 24 23 22 22 22 22 23 25 26 26 27 31 36 34 34 34 37 39 36 41
76 73 63 68 67 72 58 45 36 34 30 32 36 39 34 35 39 41 41 35 31 31 30 30 31 30 29 27 26 25 24 24 24 26 27 28 28 29 30 29 29 32 37 40 39 35 34 36 37
75 69 78 83 83 74 61 57 45 37 34 33 35 36 38 36 35 38 39 40 40 37 36 34 33 32 30 28 26 26 26 26 26 27 27 26 26 26 29 32 35 38 36 34 32 32 31 31 32
80 83 79 81 82 83 72 56 44 42 36 34 35 37 47 40 35 34 36 38 38 37 36 35 33 32 31 31 30 31 31 31 31 31 30 30 30 31 33 36 39 38 36 35 34 33 32 34 35
81 82 80 91 91 86 80 62 48 44 41 39 37 38 46 45 42 40 40 40 39 39 38 38 36 35 35 34 34 34 33 34 34 35 36 36 36 37 39 41 40 38 36 36 36 35 37 38 40

GFSSGP_prec_cthk_045.txt.gz
RH
48 41 37 37 38 39 34 28 25 32 41 40 43 43 43 50 52 50 48 39 38 32 30 34 29 31 33 35 33 30 26 24 23 19 18 17 18 23 28 31 27 20 15 11 10 12 14 18 19
54 46 41 41 45 46 35 25 24 25 33 43 43 46 47 51 53 54 48 43 40 31 29 34 30 31 32 34 36 34 31 25 20 18 17 16 19 22 27 30 27 22 17 12 11 11 11 13 15
62 51 45 48 50 45 34 28 28 24 26 32 38 44 47 46 48 51 48 42 38 32 27 32 29 34 33 35 35 35 34 30 23 19 16 16 23 24 24 25 23 22 18 15 15 15 15 16 18
70 61 51 55 51 41 38 34 32 28 26 26 32 43 45 44 45 49 47 42 38 34 28 29 29 33 34 36 38 37 34 33 30 23 17 18 26 26 23 23 24 23 21 19 20 20 20 20 20
73 69 63 58 50 44 45 41 35 32 31 28 28 36 41 40 43 45 45 41 38 33 29 30 32 35 36 39 41 38 35 31 31 27 22 19 23 23 24 22 22 22 20 21 21 21 22 22 23
82 75 74 66 53 49 52 46 39 34 31 34 31 32 37 37 36 40 42 43 40 32 30 32 37 35 37 41 42 41 40 35 30 26 24 23 21 21 25 27 26 23 22 23 23 24 24 25 25
84 80 79 69 59 57 55 50 46 38 33 34 34 36 35 34 34 38 42 44 42 36 33 33 34 36 40 45 44 43 42 39 34 30 26 24 24 24 24 24 26 27 29 30 29 28 26 26 26
89 87 84 78 66 66 60 55 53 45 36 40 39 41 36 32 36 39 42 44 43 40 37 34 32 35 42 45 44 44 44 41 36 33 29 25 26 25 26 26 26 27 30 31 32 33 34 33 33
87 91 82 76 69 67 68 64 59 49 43 45 43 41 38 35 37 39 38 38 41 44 42 40 38 35 41 43 41 42 42 41 38 34 30 26 28 28 29 29 28 28 30 31 32 33 35 36 37
93 94 74 67 68 70 72 72 68 58 48 47 49 44 46 42 43 42 41 42 43 43 43 42 42 39 39 40 38 37 39 38 35 34 30 28 29 30 31 32 33 33 34 36 36 37 38 38 38
95 89 78 77 76 76 75 79 75 65 53 52 59 48 49 49 48 50 51 52 48 49 49 45 43 42 40 38 38 36 36 35 34 32 31 31 29 30 31 33 35 34 33 34 36 36 36 40 43
84 85 84 85 77 77 79 84 81 71 60 54 55 67 53 51 52 50 53 54 51 49 48 48 45 41 37 36 35 34 32 31 31 31 32 32 32 33 33 34 35 36 36 35 35 36 37 37 38
80 79 87 85 82 86 85 87 89 74 65 57 53 62 57 55 58 58 58 56 55 51 49 47 44 41 39 35 34 31 30 29 28 29 30 33 35 37 36 38 40 41 42 42 43 42 40 39 39
79 83 89 89 86 90 89 89 92 75 70 64 58 58 56 51 55 58 59 57 55 53 51 46 43 40 37 34 32 31 29 28 27 29 33 33 36 37 38 38 38 39 40 41 41 41 42 41 43
71 87 93 92 88 92 93 95 93 79 75 71 67 66 55 51 50 52 52 55 54 51 50 44 41 37 35 35 34 33 32 29 28 32 35 34 34 33 33 33 33 33 35 36 36 38 39 40 42
67 80 94 89 89 91 91 83 89 86 79 76 70 71 65 56 47 45 46 47 46 45 45 42 38 36 35 36 37 36 34 30 29 30 33 34 35 36 35 32 31 33 38 39 38 41 43 44 47
70 69 75 81 79 80 81 77 77 84 81 74 71 63 61 57 46 40 39 40 40 40 42 43 41 39 38 38 38 37 35 32 31 32 32 34 35 35 35 34 36 43 49 48 49 50 51 49 53
56 58 59 63 71 79 80 73 74 81 79 73 69 65 59 56 52 46 41 37 36 32 32 34 39 41 40 39 38 37 36 32 32 31 32 33 34 35 41 52 56 54 54 51 45 43 46 50 55
51 53 58 57 64 72 78 75 74 80 82 72 68 65 61 57 51 46 42 39 36 33 32 33 32 32 34 33 33 34 32 32 32 31 32 34 42 46 49 51 46 42 40 43 47 46 50 56 63
52 54 55 56 55 69 76 76 72 75 72 72 61 55 56 56 50 43 40 39 37 34 32 31 31 31 32 33 33 33 31 30 28 26 26 27 29 31 35 38 48 45 42 40 38 37 38 43 51
56 54 55 56 57 68 70 72 68 62 65 68 59 54 52 50 46 40 38 37 37 35 33 31 31 30 30 29 29 28 28 28 28 26 24 25 27 28 30 29 29 29 31 31 32 36 39 41 42
62 57 58 60 66 71 66 75 57 55 58 58 57 52 48 46 43 40 38 36 36 35 34 32 31 28 27 26 25 25 25 25 25 26 25 24 23 23 25 25 26 27 28 30 32 34 34 37 40
58 55 58 61 63 62 59 66 50 47 48 48 46 47 50 48 45 42 41 37 36 34 32 31 30 28 26 24 22 21 21 22 21 21 21 20 21 21 22 22 23 23 26 28 30 34 36 40 45
60 61 63 65 64 72 58 59 46 42 40 39 37 39 47 48 46 45 43 39 35 32 31 30 28 26 24 22 20 20 20 19 19 18 18 19 18 18 18 17 18 18 22 27 35 40 45 48 53
62 65 79 80 77 69 54 57 32 34 36 37 37 34 37 40 42 44 45 44 39 35 30 28 27 25 22 21 20 20 20 20 20 21 20 20 19 18 18 18 19 23 29 34 41 39 46 45 38
72 69 74 75 79 68 56 52 34 30 33 34 35 32 33 37 39 42 45 43 39 37 32 27 26 24 23 23 22 21 21 22 23 24 24 24 24 24 24 26 27 29 33 41 39 38 37 38 40
75 74 67 69 66 67 54 40 29 28 33 34 33 33 34 37 40 41 43 44 42 38 35 29 28 27 26 26 26 26 27 26 25 25 25 26 25 26 27 30 33 31 30 31 35 40 42 38 34
71 67 74 76 73 70 53 50 38 33 33 36 37 33 35 38 43 41 41 42 44 40 38 34 31 32 32 31 30 30 29 29 28 27 27 27 27 28 28 28 31 30 32 35 35 34 33 33 33
78 82 77 74 71 69 66 50 41 39 39 39 38 36 35 37 41 41 41 41 40 43 43 42 39 38 37 36 35 34 33 32 30 30 30 30 31 32 33 33 33 35 36 37 36 35 34 34 34
84 82 79 80 75 73 71 57 45 47 44 43 43 42 41 42 41 44 41 40 39 41 44 44 45 43 41 40 39 37 34 32 33 33 32 35 37 37 37 37 38 38 39 39 36 35 36 36 34

GFSSGP_prec_cthk_048.txt.gz
RH
58 46 40 38 36 37 35 31 37 46 48 45 49 46 45 47 49 48 49 41 39 35 32 29 28 26 28 29 28 25 23 22 20 18 16 17 21 25 28 23 18 14 10 10 12 14 17 17 19
63 52 46 42 44 43 34 27 31 39 47 51 49 49 49 53 50 53 49 44 40 35 30 28 26 30 31 33 32 30 29 25 20 18 16 16 20 24 26 23 20 17 13 13 13 14 16 18 19
67 61 51 48 49 44 32 28 29 33 39 50 49 50 50 53 57 55 49 45 44 36 33 30 28 29 32 34 34 33 33 29 24 18 17 21 22 24 25 25 22 21 16 16 16 15 16 17 19
71 66 59 56 50 40 35 34 30 29 30 41 40 48 49 51 53 57 50 46 45 36 34 35 30 31 31 35 34 35 33 32 30 24 19 26 27 26 26 23 23 21 18 19 19 19 20 20 21
77 68 70 61 51 42 39 38 36 32 28 30 41 45 46 49 49 55 50 49 45 37 33 34 33 32 32 36 38 37 35 31 30 27 24 28 29 30 27 25 23 21 20 21 21 21 21 22 22
83 72 75 69 52 44 44 42 41 36 29 30 38 43 45 48 48 51 50 48 43 37 33 34 32 33 33 38 41 39 37 34 30 27 25 29 33 26 25 26 26 25 25 25 24 23 23 23 24
80 76 74 72 59 48 47 46 45 42 35 33 41 42 42 45 47 50 50 47 43 38 33 32 37 36 35 39 43 41 41 39 34 30 26 25 25 26 28 26 24 25 28 28 28 29 30 29 29
91 81 81 75 68 53 52 53 51 45 39 39 43 42 38 39 43 45 46 47 45 39 35 33 36 37 37 41 44 45 44 41 36 33 30 27 26 26 26 27 26 26 28 29 30 31 32 33 33
98 90 83 74 70 59 57 58 56 48 43 43 49 44 37 35 35 40 42 45 47 42 38 36 35 36 38 41 46 45 44 41 40 34 30 30 29 28 29 28 28 28 29 29 30 30 31 33 34
96 95 80 70 70 68 64 65 64 55 49 49 48 49 52 42 37 37 39 40 44 45 43 41 40 37 38 43 45 42 42 41 40 36 32 28 28 29 29 30 31 32 34 33 31 31 31 31 33
97 81 83 79 75 76 71 72 71 65 56 50 47 44 56 56 47 43 41 41 42 42 42 44 43 42 40 44 44 41 38 39 38 35 32 29 27 28 29 29 30 31 31 32 32 32 33 33 32
86 92 88 86 83 78 75 75 75 72 62 56 48 47 53 58 52 49 48 48 45 45 44 42 41 42 43 44 44 41 40 37 34 33 33 31 30 29 28 29 30 32 33 35 36 36 37 37 37
81 83 83 90 88 85 83 81 81 76 67 60 52 52 57 60 60 57 55 56 52 49 48 48 47 44 42 40 38 37 35 34 31 30 29 29 30 33 34 33 36 39 40 40 40 41 41 41 40
72 82 84 89 90 89 86 80 83 77 72 64 57 57 59 63 66 66 57 55 53 52 51 49 49 47 45 42 38 36 33 31 29 26 27 30 33 36 37 37 38 38 37 37 36 36 36 37 38
73 86 89 89 90 91 89 84 80 77 78 71 63 61 61 63 64 68 67 59 56 54 52 51 50 49 47 44 40 37 35 33 31 29 29 32 35 35 34 34 33 34 34 34 36 40 42 42 45
77 85 97 83 91 93 88 80 78 79 84 76 70 66 63 64 61 63 68 63 61 59 56 54 53 51 48 44 43 40 38 37 35 32 29 30 32 34 34 34 34 35 35 37 44 49 50 50 49
73 81 84 95 88 89 86 84 80 81 88 81 78 71 67 64 61 60 59 58 55 55 55 54 53 49 47 45 45 42 41 40 38 36 32 32 34 34 34 34 34 37 42 51 55 54 53 48 45
66 64 65 73 81 80 82 78 76 80 86 84 81 74 68 62 58 56 50 47 46 46 48 48 47 44 43 43 45 47 49 40 38 35 33 34 34 34 35 35 38 48 55 54 49 48 45 44 44
51 56 62 64 72 81 83 82 79 81 85 90 81 73 66 62 59 57 54 50 43 42 40 38 37 37 37 37 36 35 34 35 35 35 34 33 32 32 34 36 38 41 43 43 44 42 43 41 41
55 55 59 58 61 72 78 81 81 77 72 84 80 72 67 63 59 57 54 53 50 43 39 37 37 37 38 39 39 38 37 36 35 34 33 32 29 29 29 31 34 33 36 39 40 36 35 34 34
57 58 59 59 60 65 69 79 76 72 70 73 79 72 67 64 59 58 54 53 50 45 42 38 36 35 36 36 36 34 33 33 33 35 35 34 32 31 31 31 30 30 31 31 31 33 34 34 34
59 58 55 58 61 71 63 75 64 62 63 71 66 74 65 62 57 55 52 48 45 42 40 40 38 37 35 33 32 30 28 27 26 26 27 28 29 28 27 26 25 26 27 27 29 31 31 33 34
61 59 57 64 69 66 64 72 52 51 56 52 60 61 60 59 58 56 55 51 45 42 40 38 37 36 35 33 30 27 25 24 22 21 22 23 23 23 23 22 22 22 22 22 24 29 30 32 36
60 61 68 69 71 77 67 67 48 47 43 46 50 57 56 57 54 53 50 48 47 44 39 35 34 33 32 30 29 27 25 22 20 20 20 19 19 19 18 19 19 19 19 19 21 27 29 35 46
58 61 76 77 78 74 60 59 40 36 36 40 42 45 50 42 47 51 51 49 47 46 44 41 38 35 31 29 28 26 24 23 22 22 21 20 19 20 20 21 21 20 20 21 25 29 37 48 49
63 56 65 68 75 67 55 52 37 31 33 35 36 39 42 45 38 44 49 50 49 48 46 44 40 37 33 29 28 27 26 24 23 23 23 22 22 24 25 25 26 27 29 30 34 40 51 49 41
65 68 56 61 61 63 51 39 29 27 27 30 33 34 37 40 40 41 44 46 47 49 46 44 42 39 37 32 31 29 27 26 25 25 26 28 27 27 27 27 27 30 31 32 34 35 36 38 41
63 59 68 68 68 67 50 45 38 30 29 29 33 35 35 36 41 41 45 46 46 46 46 44 43 41 39 36 33 32 31 30 30 29 29 29 30 30 30 29 29 32 33 32 32 33 35 35 36
76 80 77 74 71 68 58 44 34 36 35 33 32 34 36 38 40 44 43 44 44 42 41 42 45 44 43 41 37 35 36 36 34 32 32 33 34 33 33 33 34 36 36 37 37 38 38 38 38
79 77 72 76 73 73 69 52 37 37 43 42 38 36 37 39 42 43 43 44 45 42 42 42 45 47 46 43 41 39 39 40 39 37 36 35 33 34 34 38 40 39 41 41 42 42 39 38 38

GFSSGP_prec_cthk_051.txt.gz
RH
55 55 48 39 33 36 37 38 43 51 52 51 50 49 51 52 49 46 50 43 41 37 33 30 26 26 27 26 26 24 23 20 18 16 17 21 24 26 20 18 15 12 10 11 13 15 16 18 19
61 58 54 47 40 35 34 36 41 46 54 53 49 53 51 52 53 52 49 45 43 39 34 29 26 27 30 30 29 27 25 19 17 16 17 21 23 25 23 21 17 13 12 12 14 16 18 19 19
67 62 59 53 48 36 29 32 38 43 48 56 50 55 55 55 54 50 48 47 45 41 37 34 29 30 30 32 31 31 30 24 19 17 20 21 24 25 25 21 19 16 16 16 16 17 18 19 20
70 68 64 59 52 40 33 31 33 39 43 51 52 56 59 57 57 53 49 46 46 42 42 34 33 32 33 34 34 33 31 29 25 21 25 26 26 27 28 21 19 17 18 18 18 18 19 19 20
74 72 68 64 54 44 39 35 32 33 38 49 48 55 60 59 59 59 52 48 47 43 45 38 34 32 33 35 36 35 32 30 28 25 31 31 30 31 25 24 23 21 21 21 21 21 21 22 22
79 77 71 64 57 48 43 40 35 34 32 40 49 50 55 56 55 56 54 51 45 45 46 39 36 32 35 35 39 39 35 32 29 26 29 34 34 28 24 24 24 25 26 26 26 26 26 26 26
75 82 72 62 60 55 46 42 41 38 34 36 47 49 49 52 53 52 52 52 48 44 44 40 39 34 35 38 41 41 39 36 32 29 27 27 26 26 28 26 23 23 26 27 28 28 29 29 30
83 81 83 71 64 62 54 47 44 42 39 41 45 48 50 55 54 54 54 53 47 43 41 41 38 36 36 40 42 44 44 41 37 32 29 27 27 26 26 27 27 27 28 28 28 28 30 31 32
93 91 86 75 70 67 61 53 47 48 48 51 49 48 49 51 54 56 55 54 50 44 40 39 39 38 38 41 43 46 46 44 40 36 31 29 28 27 27 27 27 28 29 30 30 29 29 30 30
88 90 83 75 76 74 70 60 56 53 50 52 49 43 47 52 53 52 52 54 52 46 43 42 41 40 40 42 44 47 44 42 41 38 33 29 28 26 27 28 28 28 30 31 31 30 30 30 31
96 89 84 80 78 80 74 66 64 58 53 55 52 45 49 51 48 53 48 47 52 49 45 43 41 41 41 41 43 45 42 41 40 38 36 31 27 26 26 27 28 29 29 30 31 32 34 34 34
91 82 86 91 84 82 77 69 68 64 56 54 53 48 48 53 50 50 53 48 45 47 48 46 46 44 42 43 46 47 44 41 40 39 36 33 31 29 27 27 28 29 30 33 35 36 35 35 35
73 83 90 94 90 85 81 76 70 66 58 55 54 50 50 52 55 56 59 55 50 47 44 43 40 43 43 43 47 48 46 42 39 36 34 32 30 29 30 30 31 33 35 38 39 38 36 36 38
64 74 82 88 90 91 85 81 75 67 65 57 57 56 55 55 59 58 61 61 60 57 49 46 46 46 44 45 47 44 41 39 37 32 29 30 30 32 35 36 35 35 36 35 35 34 34 38 41
64 75 80 85 86 89 93 84 70 73 69 63 59 58 59 57 60 60 64 66 68 67 57 52 52 52 50 49 46 44 43 40 36 34 31 31 32 33 35 34 34 35 34 35 34 34 37 43 46
62 72 85 92 89 92 92 79 75 76 74 68 66 60 59 59 59 65 70 69 69 70 59 56 53 53 53 52 50 48 45 42 40 38 36 34 32 32 34 34 35 37 37 35 35 39 47 50 47
69 71 79 96 89 91 82 79 79 77 78 71 71 67 63 59 60 62 66 71 72 76 66 55 54 55 55 55 53 50 46 43 44 42 40 38 35 33 33 33 35 37 38 38 40 47 50 48 46
66 67 72 88 90 86 83 78 81 76 76 75 73 70 69 64 63 61 63 66 70 70 69 63 56 58 57 56 53 50 47 48 47 44 42 39 36 35 34 34 35 37 38 40 44 44 45 45 43
63 64 69 76 82 91 85 82 79 75 72 75 75 70 68 68 66 63 60 59 61 62 60 58 56 54 54 51 47 44 41 41 39 38 37 36 36 36 34 33 32 35 36 36 36 37 38 37 40
59 64 65 65 72 79 86 84 74 72 70 73 73 76 70 68 66 63 61 59 56 53 51 50 50 48 45 42 39 38 37 37 37 37 37 36 35 33 32 30 29 29 32 32 33 35 34 32 31
58 55 59 58 64 74 79 80 69 66 71 70 69 74 72 69 67 64 63 60 57 55 54 50 44 42 40 40 39 39 39 39 38 36 35 35 35 35 35 36 36 37 36 33 35 33 33 32 32
62 52 51 54 64 67 62 66 57 60 64 63 62 71 74 72 69 66 63 62 61 59 58 55 51 47 44 40 39 38 37 34 32 29 28 28 28 27 28 28 28 28 27 26 26 27 28 30 31
60 55 54 55 60 61 60 66 51 50 54 54 62 69 76 75 71 69 66 63 60 58 55 51 50 48 46 45 41 38 35 32 30 28 26 24 23 23 24 24 23 23 22 20 21 22 23 25 31
58 54 59 62 62 73 63 67 48 47 43 48 57 57 66 74 75 69 66 61 59 57 53 49 47 45 43 41 40 38 36 34 32 27 24 22 21 21 20 20 19 19 18 19 20 21 21 26 32
64 63 77 78 76 72 60 65 45 44 42 41 44 52 59 61 63 68 65 61 59 57 56 53 50 47 44 39 36 34 31 30 28 26 24 23 22 21 22 21 21 20 21 22 22 23 27 30 36
68 60 64 72 72 64 58 60 44 38 38 40 44 46 46 52 58 53 57 58 57 53 51 49 48 46 45 41 38 35 32 29 28 27 26 25 23 22 22 23 24 25 27 29 31 31 35 35 40
69 65 54 59 60 59 51 46 36 33 32 34 36 39 38 38 41 52 50 46 51 55 55 52 48 46 44 42 39 37 36 32 29 28 27 25 24 25 26 27 27 27 30 32 32 31 33 35 38
67 61 63 61 61 56 45 42 34 33 33 32 32 33 34 35 35 37 46 53 48 48 50 48 47 46 45 43 42 41 39 37 33 31 29 28 28 29 30 31 30 32 33 33 33 33 35 35 37
69 72 69 64 58 55 50 38 37 36 35 36 34 31 31 35 35 35 40 48 51 51 46 46 44 44 45 44 44 43 42 40 39 35 34 34 35 34 34 34 35 37 35 36 38 38 38 38 39
71 65 64 70 66 64 62 52 38 38 36 34 37 37 34 33 34 39 43 46 52 48 45 46 45 44 45 45 44 43 42 42 42 41 40 39 39 38 38 38 38 36 38 41 42 43 43 42 39

GFSSGP_prec_cthk_054.txt.gz
RH
50 54 54 40 36 35 39 39 43 54 48 53 51 55 58 58 50 50 50 42 43 41 37 32 31 31 32 28 24 24 24 20 18 18 20 22 22 19 17 14 12 11 12 14 15 16 17 18 17
51 56 59 50 38 35 34 37 38 52 51 53 54 54 56 58 56 53 51 46 45 43 39 35 31 30 31 30 27 24 21 18 17 18 21 22 24 22 20 16 13 12 13 14 16 16 17 18 18
57 59 61 60 43 36 30 35 40 42 58 55 55 57 58 60 59 58 54 49 51 47 45 39 32 31 33 32 30 28 25 19 18 19 21 23 25 24 21 18 16 16 16 16 17 18 19 20 20
63 64 61 61 50 38 34 33 38 41 43 59 56 60 59 59 59 60 54 53 53 50 48 44 32 32 32 34 32 32 28 25 22 23 23 26 26 25 21 19 17 18 17 17 17 18 19 19 20
67 67 63 58 54 46 37 33 34 40 43 46 61 60 62 62 60 59 57 56 54 51 51 45 38 33 33 35 35 33 31 28 26 31 29 28 30 30 25 23 21 21 21 21 21 21 21 22 23
74 68 62 57 52 56 44 38 33 34 41 53 56 62 63 66 66 64 61 57 55 54 52 50 44 35 34 35 38 36 34 30 27 34 36 35 33 29 25 24 24 25 26 26 26 26 26 27 28
76 70 63 59 62 58 56 44 39 31 34 51 55 64 67 67 68 69 65 60 55 55 54 52 43 38 35 36 39 40 37 34 31 31 31 34 30 29 30 27 24 24 24 25 26 28 29 30 30
74 72 76 69 65 62 59 54 45 37 34 42 58 62 64 68 69 68 65 64 55 55 57 54 46 42 39 37 41 41 42 39 36 33 33 31 30 28 29 28 27 27 28 27 26 26 28 29 30
81 77 75 78 68 66 64 60 53 46 41 40 44 51 53 62 66 64 64 64 60 55 56 53 49 44 43 42 42 44 46 44 39 36 33 32 32 29 28 28 27 27 28 29 29 29 28 27 28
83 81 69 80 78 71 71 65 59 52 45 45 41 41 51 57 64 65 63 60 62 58 55 53 48 45 45 42 41 44 46 46 44 39 35 33 31 29 28 27 27 27 28 29 29 29 29 30 29
75 76 80 70 77 79 74 72 63 58 54 50 46 42 46 54 60 63 65 65 64 59 55 53 49 46 48 43 42 43 44 47 46 44 40 34 30 28 27 26 26 27 28 29 30 31 32 32 31
73 79 80 78 81 86 78 74 71 65 62 55 53 48 47 51 53 57 62 65 65 64 58 54 49 47 45 50 44 44 45 47 48 44 42 38 34 30 28 26 26 27 28 30 30 33 33 32 32
74 81 86 82 83 86 84 79 75 69 66 60 56 54 51 50 51 50 56 59 62 60 58 57 53 51 47 44 44 44 46 48 49 45 42 38 35 31 30 27 26 28 31 33 37 37 37 35 32
80 88 89 84 91 88 86 86 81 69 70 67 61 55 54 53 53 53 50 51 54 62 58 51 49 52 49 44 45 47 48 52 51 44 40 36 33 32 33 34 33 33 34 35 35 35 34 32 33
68 74 81 85 83 82 91 86 75 75 72 70 64 61 55 55 55 56 55 53 58 64 61 55 46 41 39 38 41 48 50 50 45 42 37 33 34 34 34 34 35 34 33 33 33 33 32 33 39
67 69 78 80 86 85 92 70 68 79 73 72 66 64 62 57 55 54 56 55 59 63 67 68 60 51 49 52 51 48 49 47 46 45 41 38 38 37 35 34 35 35 34 34 33 34 34 38 43
65 71 74 87 84 86 85 80 79 79 75 70 70 66 64 64 59 54 55 58 59 63 68 70 70 60 55 55 55 53 52 52 49 46 44 43 42 40 37 35 35 36 35 34 35 37 40 45 46
52 59 68 75 77 85 87 84 75 76 76 71 70 67 66 64 65 57 55 60 63 65 70 72 72 68 61 56 57 56 55 55 52 48 48 49 46 44 41 37 36 38 37 37 38 40 41 42 44
54 54 63 66 72 87 87 85 75 73 74 71 71 67 66 65 66 62 57 60 65 68 71 70 72 72 67 62 61 59 57 56 54 52 48 45 43 40 37 35 35 35 33 34 37 38 37 37 37
56 54 55 62 73 92 90 83 74 67 68 70 69 70 67 67 69 66 63 61 64 68 68 65 65 67 66 64 59 56 52 49 47 44 41 40 39 39 38 36 35 35 35 35 37 38 38 36 36
58 54 54 54 61 81 76 70 65 64 64 61 62 64 72 67 69 68 68 64 63 62 62 64 62 61 62 61 57 54 51 46 43 42 41 39 37 36 35 34 33 35 37 37 38 39 39 37 35
55 52 52 51 47 51 57 47 49 56 57 52 56 60 64 72 72 69 67 66 65 63 60 60 60 60 57 55 53 50 47 44 42 40 37 35 33 30 29 27 29 30 29 29 28 27 27 28 28
60 48 48 47 49 54 51 54 38 45 45 49 52 58 58 69 74 71 70 69 67 65 62 62 60 58 55 54 55 51 45 41 38 35 33 32 30 28 25 26 26 23 23 23 22 21 20 20 23
63 55 54 53 56 58 50 51 38 41 41 41 45 55 55 67 73 76 74 69 67 66 68 64 63 62 60 59 55 52 49 46 45 39 34 32 29 27 27 27 22 22 21 20 20 19 20 21 23
68 60 70 68 69 56 49 50 38 41 42 40 46 45 51 60 73 75 73 71 68 66 64 63 62 59 55 51 49 47 45 43 40 38 36 34 31 30 27 25 24 23 22 21 21 23 24 24 28
69 59 56 58 58 50 50 53 40 38 41 41 43 47 45 50 58 66 77 79 73 68 65 64 61 58 55 53 51 49 46 42 39 36 34 31 28 27 26 26 25 24 23 24 27 29 29 29 35
78 69 54 54 53 50 42 40 34 36 36 36 38 42 41 44 49 56 62 68 71 75 69 65 61 60 58 57 54 50 46 43 40 38 36 34 30 29 28 27 25 25 26 29 33 33 33 35 38
74 67 61 59 61 47 40 36 30 31 34 33 34 35 37 38 38 38 46 55 58 56 61 63 61 59 56 53 49 46 43 42 41 40 39 38 35 31 30 28 28 30 32 33 34 35 35 34 35
71 68 61 57 53 49 38 30 28 32 34 36 35 35 36 38 40 40 39 40 48 57 57 53 56 57 56 51 48 46 45 44 43 42 42 41 40 37 33 33 35 36 36 37 38 37 35 35 37
69 63 58 59 64 56 51 37 34 35 39 39 37 36 37 36 33 35 39 39 42 45 53 61 59 54 51 49 47 46 46 44 42 41 41 42 42 42 41 40 39 38 39 39 38 36 39 40 40

GFSSGP_prec_cthk_060.txt.gz
RH
60 55 57 55 54 56 46 51 55 62 58 59 62 60 67 67 63 63 54 51 44 35 30 27 27 28 28 27 25 22 20 18 19 26 18 16 14 11 10 10 13 17 23 21 16 15 13 13 14
61 64 59 63 57 51 44 44 56 58 58 55 59 65 68 70 64 61 59 53 46 35 33 29 28 28 25 22 20 20 17 17 19 26 21 19 17 14 12 12 13 15 15 15 15 15 15 16 17
65 68 62 63 63 49 42 37 54 53 52 59 61 70 72 77 70 65 61 55 51 42 38 35 31 28 25 23 20 17 16 17 20 25 24 22 20 17 16 15 15 16 16 17 17 17 17 17 18
69 70 70 63 52 49 39 37 49 52 50 58 62 68 77 81 78 68 63 60 54 49 45 42 36 31 29 27 24 20 17 18 20 23 26 23 20 18 17 17 16 16 16 16 17 17 18 19 20
76 69 69 63 51 46 44 51 56 49 48 58 65 70 77 80 78 74 67 63 58 52 50 48 43 35 30 29 27 24 23 23 23 25 28 26 24 22 20 20 19 19 19 20 20 21 22 23 24
77 72 63 55 49 45 54 54 52 48 47 55 57 75 83 79 80 79 72 69 63 56 53 49 48 45 34 30 27 27 25 27 29 31 34 31 26 23 22 23 23 23 23 23 23 24 25 25 26
71 71 64 49 50 54 68 57 50 49 45 54 62 62 84 79 79 78 78 75 67 64 55 50 52 48 43 36 31 29 27 31 32 35 37 35 28 27 26 25 24 24 23 23 23 23 24 24 25
75 75 69 59 57 60 67 60 56 45 47 46 60 67 74 78 79 80 79 79 74 67 59 54 52 50 47 41 37 30 28 30 37 39 38 33 30 30 29 27 27 27 27 27 27 27 27 26 26
81 87 70 61 61 68 65 64 57 57 52 46 53 58 78 76 81 82 84 80 78 71 64 63 57 54 51 46 41 36 32 29 33 37 36 34 32 30 32 30 28 28 28 28 28 28 27 27 27
82 88 62 60 65 73 63 65 57 59 57 46 49 55 66 76 74 82 83 82 80 75 71 68 64 58 56 50 44 40 36 33 32 33 36 36 41 36 32 31 29 28 27 28 28 28 28 27 27
86 85 76 68 78 64 66 67 57 62 67 57 43 51 61 71 80 78 85 83 81 76 72 72 68 63 57 55 50 43 39 38 39 39 36 42 42 37 34 31 29 27 25 26 27 27 27 27 30
89 69 85 84 79 69 64 64 68 71 68 60 47 43 54 66 78 89 83 83 88 83 75 74 73 65 62 58 57 50 41 42 41 42 42 43 41 37 35 35 30 26 25 25 29 28 33 35 34
90 78 88 82 81 77 72 65 64 69 63 60 58 46 48 60 70 79 80 80 84 82 75 73 70 64 60 57 57 53 45 44 43 43 41 44 45 43 37 35 32 29 29 29 31 33 35 35 35
85 83 79 87 84 93 86 82 65 66 66 65 63 57 46 53 59 70 79 78 77 78 81 74 68 64 60 58 60 58 49 50 46 43 41 43 48 47 40 37 32 30 30 31 33 33 35 34 33
87 85 89 81 89 81 87 80 60 64 72 68 66 63 56 50 55 59 62 71 77 76 75 73 74 71 66 60 60 58 55 51 50 46 43 44 49 47 42 41 39 37 35 34 34 33 32 32 32
87 88 97 91 77 80 68 66 62 64 62 68 67 66 62 58 51 52 55 57 65 69 71 72 71 69 70 66 63 62 57 53 51 47 44 48 46 44 46 45 43 44 43 39 37 36 35 35 36
84 86 95 93 76 88 74 67 61 59 61 65 69 70 66 63 59 51 51 58 57 60 65 66 63 62 58 56 56 58 57 53 48 46 49 48 47 48 49 48 49 49 49 47 43 42 41 44 47
86 82 87 92 76 75 70 67 66 59 56 61 68 71 71 66 63 61 56 55 58 57 58 59 54 53 53 51 51 56 54 49 47 51 48 49 52 53 54 53 53 51 49 44 45 46 48 45 43
63 73 79 79 85 79 69 71 70 64 62 58 64 64 67 68 67 66 63 61 58 61 59 59 55 55 56 56 57 62 62 63 62 52 52 54 56 58 58 56 54 50 47 46 47 49 51 46 49
69 72 74 76 84 78 75 73 69 62 59 60 59 62 63 66 70 68 64 64 64 63 64 63 58 56 57 59 61 64 66 67 70 71 63 59 61 62 57 54 51 48 48 46 45 45 44 44 42
74 66 80 78 80 79 80 77 69 67 62 62 63 62 60 63 69 68 64 63 65 66 69 72 68 63 62 61 62 64 64 71 73 75 72 68 61 59 55 53 50 47 46 44 41 39 37 37 39
68 59 68 69 73 80 69 68 67 62 59 65 68 64 65 62 66 68 62 63 64 65 65 72 74 76 70 68 64 65 68 73 71 69 70 66 64 60 56 52 49 43 39 35 32 30 29 30 29
72 70 83 75 63 66 70 59 48 54 58 56 64 63 63 63 64 67 65 62 65 62 65 65 71 76 75 75 69 66 67 68 66 67 67 65 64 58 51 49 47 42 37 35 33 31 31 29 27
65 66 68 61 55 65 53 54 46 51 48 49 54 61 61 58 61 65 65 65 64 65 66 66 64 67 70 68 67 66 65 66 66 66 66 60 55 52 50 49 49 45 40 38 37 34 33 33 32
63 64 82 77 71 67 44 52 45 44 43 39 34 41 48 54 57 58 62 65 67 69 69 69 69 67 66 66 65 69 73 69 69 67 62 57 53 52 52 53 48 44 40 38 36 33 30 29 29
66 60 72 64 67 58 52 52 42 41 39 34 34 34 36 38 46 52 55 55 58 64 69 73 72 71 70 73 72 74 71 69 67 65 64 61 59 56 52 48 45 42 40 38 36 32 29 31 34
77 78 65 71 59 69 58 44 40 37 32 31 30 29 31 36 39 37 48 53 55 61 66 69 72 74 73 70 69 69 69 70 72 70 68 63 59 55 51 48 47 45 43 41 38 37 34 35 35
75 68 79 77 76 59 60 50 44 38 33 33 33 33 34 33 36 37 41 46 51 61 68 70 71 74 76 76 72 70 70 69 67 67 67 63 59 55 53 50 46 45 44 43 42 42 41 41 38
80 81 74 69 70 82 66 54 40 38 33 33 33 35 37 37 36 36 39 40 43 54 63 71 72 71 67 72 81 82 78 74 73 72 67 65 62 56 49 44 43 43 45 46 47 47 47 47 45
81 79 75 86 78 66 68 59 45 39 33 33 35 37 38 36 38 38 36 37 40 44 46 47 52 58 60 65 71 76 73 74 79 80 74 62 56 52 47 45 44 45 44 46 48 49 51 51 50

GFSSGP_prec_cthk_063.txt.gz
RH
66 63 57 62 60 60 61 51 59 72 69 62 60 66 76 69 67 61 55 48 45 37 32 30 28 29 29 27 24 21 18 21 28 17 12 11 10 10 13 21 26 27 21 14 12 12 14 15 16
64 66 61 66 68 61 53 51 57 64 69 62 62 69 76 81 69 64 57 53 41 34 31 29 29 28 24 22 20 18 17 20 18 16 15 13 12 11 13 13 12 12 13 14 14 15 17 17 17
66 74 68 68 66 59 48 50 56 61 65 67 64 74 86 80 76 67 57 55 41 37 35 32 30 26 23 20 18 16 17 21 20 20 18 16 14 14 14 15 15 15 16 16 16 17 17 17 18
73 76 73 65 56 47 40 49 52 60 64 64 66 77 88 84 80 69 61 56 45 43 41 38 32 29 25 21 17 16 17 19 21 22 19 17 16 16 16 15 16 16 16 16 17 18 19 21 21
79 77 80 65 49 49 45 55 56 55 57 60 65 80 85 92 83 77 65 59 49 48 48 46 40 33 29 25 21 19 19 19 22 23 21 20 19 19 18 18 18 18 19 20 21 22 23 24 24
80 78 75 64 45 50 58 59 55 54 55 56 61 71 83 88 88 80 75 65 57 53 52 50 46 40 33 28 24 23 24 25 27 29 27 25 22 21 21 21 21 21 21 21 22 24 24 24 24
83 83 69 53 48 52 67 55 54 55 57 59 60 72 78 80 88 84 77 71 65 60 55 51 50 46 43 32 27 24 26 28 31 34 32 27 26 25 25 24 24 24 24 24 25 25 25 25 25
79 84 72 61 57 62 56 56 58 58 64 62 60 67 73 75 89 89 86 80 74 69 61 53 53 50 46 42 34 26 27 30 33 36 32 29 29 28 28 28 27 26 26 26 27 27 26 26 26
88 92 81 68 64 67 57 58 59 63 59 57 63 62 66 72 79 92 85 84 82 75 67 58 55 52 49 46 43 33 27 31 35 37 36 32 31 31 31 29 29 28 27 27 27 27 27 27 25
94 92 73 70 71 60 58 56 57 61 60 60 61 68 70 73 71 78 88 80 87 78 75 64 63 58 53 47 43 41 32 28 30 33 33 34 35 33 32 32 29 28 27 26 27 26 26 25 25
80 93 74 76 76 63 62 66 66 60 57 54 55 57 65 67 67 68 82 91 86 85 80 74 71 65 60 52 46 43 40 32 30 28 30 36 37 37 34 33 30 27 25 24 24 25 26 25 27
88 84 80 84 83 70 68 68 68 63 54 52 54 53 52 60 63 71 69 81 94 87 89 80 75 71 68 60 51 47 46 41 36 35 33 35 36 38 37 34 32 28 26 25 25 24 26 31 32
92 93 88 82 86 72 68 68 73 68 60 55 54 55 56 54 62 68 74 73 81 87 88 78 75 77 74 70 61 56 53 50 44 41 40 38 38 36 38 38 34 30 27 25 26 28 29 30 31
90 88 95 86 87 87 72 68 67 68 66 62 55 53 62 59 61 65 77 76 81 91 88 83 79 82 84 75 64 60 55 54 51 48 42 40 38 37 40 41 36 33 30 28 29 31 32 32 31
90 93 94 97 96 90 81 71 66 65 65 62 58 57 59 63 61 62 69 78 82 82 86 81 80 80 77 71 65 62 57 58 58 54 48 41 39 38 42 40 40 40 36 36 36 36 35 34 33
96 97 97 93 91 91 83 74 69 63 57 57 57 60 59 58 60 60 59 67 80 83 79 84 84 80 78 73 71 67 65 60 56 57 52 44 40 40 41 43 45 46 44 43 44 43 40 39 39
94 97 96 89 93 96 82 78 79 70 68 65 59 64 65 64 60 59 60 62 61 64 73 78 77 77 78 75 73 70 68 64 58 60 54 48 45 39 43 46 49 52 51 50 47 43 43 45 46
81 83 84 89 92 92 90 79 75 71 63 58 55 57 60 64 64 61 63 62 57 67 62 64 66 69 71 66 62 58 58 57 60 61 55 54 47 44 45 49 53 56 57 56 52 50 49 48 46
76 79 75 81 85 96 89 85 72 64 59 50 48 50 56 60 67 64 63 63 64 62 64 70 63 59 59 57 51 48 47 50 53 59 60 61 61 53 52 53 57 61 57 56 54 50 50 48 46
74 77 76 75 83 92 87 81 69 64 57 53 53 50 51 57 64 65 64 64 62 62 64 67 65 66 67 60 57 55 55 54 58 63 69 72 74 72 67 62 60 57 55 53 51 50 49 47 45
82 70 64 73 81 88 83 81 70 59 59 61 56 52 49 52 60 61 65 64 64 62 64 66 68 69 68 65 61 60 61 63 67 65 68 69 74 73 72 69 64 62 59 55 53 51 46 43 40
73 71 74 82 94 94 81 85 68 60 60 59 57 53 50 50 52 56 57 60 62 62 63 66 69 70 72 69 71 66 64 64 66 67 70 78 74 69 70 68 67 65 58 52 48 45 42 37 36
75 63 66 85 82 79 76 78 66 62 62 58 54 55 56 56 56 54 55 56 59 64 63 63 68 75 77 82 82 83 80 81 78 76 72 70 73 68 65 64 59 55 52 50 46 47 44 40 38
71 76 88 84 84 82 76 70 57 60 56 50 50 54 54 59 62 60 55 55 59 61 63 63 65 72 72 75 77 81 80 79 81 75 74 70 70 68 62 59 58 55 53 51 48 46 43 41 38
76 75 98 97 90 78 60 61 51 44 46 46 46 45 52 56 59 59 57 59 59 61 64 65 65 66 71 75 77 76 77 75 74 73 72 74 70 64 63 64 60 56 54 53 49 46 42 40 38
72 71 77 83 82 69 56 57 47 40 39 40 36 34 35 36 44 52 55 58 61 65 67 66 69 69 69 70 73 71 71 74 75 73 75 74 77 74 67 66 64 61 56 51 47 44 43 41 40
69 73 62 65 59 68 57 47 42 38 37 35 34 31 32 32 35 39 45 48 54 60 62 63 62 65 69 72 73 71 69 71 77 76 76 72 73 70 69 68 67 61 56 52 49 48 46 44 45
68 68 73 79 69 62 63 50 47 42 41 32 31 31 30 30 31 31 34 39 45 50 56 57 62 66 66 70 75 76 75 73 72 73 71 71 70 69 68 70 66 61 56 53 49 45 44 43 45
77 74 71 72 79 84 65 56 46 48 40 36 33 33 34 34 34 33 32 33 36 42 47 53 62 68 70 74 76 78 76 74 73 72 74 73 76 76 74 70 64 62 56 49 46 45 45 45 47
79 75 73 82 75 75 71 62 52 47 37 36 36 37 38 39 38 37 37 36 36 36 41 43 46 62 70 71 72 73 69 67 68 73 76 75 74 72 71 73 73 60 54 50 49 48 47 49 50

GFSSGP_prec_cthk_066.txt.gz
RH
68 72 65 67 66 76 63 59 60 69 71 66 63 67 76 72 62 64 56 48 46 37 35 33 33 34 34 30 24 20 28 33 19 11 9 10 21 31 39 42 36 27 16 11 11 13 15 18 20
73 74 72 72 69 72 58 55 61 69 74 69 68 70 74 84 73 67 61 54 47 36 35 33 33 32 30 27 21 19 31 25 15 12 10 9 11 16 22 23 19 14 13 14 15 16 16 18 19
78 79 76 77 70 59 51 51 59 64 74 75 69 81 79 81 74 67 63 57 47 37 33 32 33 29 26 22 18 18 23 17 15 13 12 12 12 13 13 13 14 15 16 16 16 17 17 18 20
86 89 79 79 63 47 44 47 59 72 78 78 74 77 79 89 74 69 67 55 44 38 36 35 32 28 23 19 17 19 21 20 19 15 15 14 15 16 16 16 16 16 16 16 18 19 21 22 23
85 90 88 77 58 46 50 54 64 68 71 79 74 79 91 87 78 72 68 53 45 42 41 39 35 29 24 19 18 19 21 21 20 17 16 16 16 16 17 17 18 18 19 20 21 22 23 23 23
91 92 91 72 51 46 54 56 57 59 66 72 71 77 84 92 86 76 73 56 51 47 50 49 42 33 27 23 21 21 22 24 24 20 19 18 19 19 19 19 19 19 19 20 21 21 22 22 23
94 90 85 60 54 54 59 51 63 58 68 71 71 70 81 98 90 83 76 67 56 54 55 57 48 42 35 28 24 26 27 29 31 28 26 24 23 23 23 23 22 22 23 24 24 24 24 24 24
94 88 86 67 61 58 53 52 59 67 67 69 73 75 77 79 85 88 81 79 66 60 60 56 52 48 44 38 29 27 29 32 35 33 28 28 28 27 27 26 26 25 25 25 25 26 26 26 25
95 90 87 69 65 59 54 58 57 59 67 65 65 70 67 73 84 87 92 86 77 70 64 57 56 53 49 45 40 33 30 31 34 34 31 30 30 31 30 30 29 27 25 25 25 25 25 24 23
97 86 89 66 59 58 55 60 60 61 73 71 67 68 72 77 81 83 87 93 84 75 69 64 59 57 54 51 46 41 38 32 34 33 32 32 33 33 33 33 31 29 27 25 24 24 24 24 24
96 80 86 78 71 64 63 61 63 66 66 68 69 60 63 64 65 67 70 90 92 89 75 71 65 62 59 54 49 45 41 41 38 33 31 31 34 35 34 34 32 30 27 26 25 24 24 25 27
95 80 91 80 75 70 67 68 67 65 60 60 66 65 59 65 61 56 60 78 94 97 91 76 69 68 68 62 55 50 47 42 39 34 31 30 31 34 34 35 34 31 28 25 25 25 25 28 30
84 78 84 87 82 77 73 69 67 66 63 59 55 59 63 66 62 56 56 66 75 89 95 91 79 72 72 68 65 61 54 51 48 46 41 35 34 34 34 35 38 34 31 28 27 27 28 29 29
93 81 79 94 90 85 78 69 68 70 68 62 53 52 60 66 70 67 60 61 69 76 85 95 84 82 76 75 71 68 62 57 54 54 51 47 40 37 35 35 41 37 34 33 33 33 33 32 32
97 94 89 88 92 87 81 75 71 71 67 63 58 56 57 59 72 72 66 65 68 80 80 90 91 93 85 85 79 75 67 62 59 56 54 52 47 41 37 36 40 41 41 39 38 39 41 39 37
97 94 96 93 96 94 90 82 72 67 69 67 62 57 55 57 63 71 72 68 72 76 81 84 81 89 88 84 82 78 73 63 62 60 58 53 50 45 41 39 40 46 48 48 47 46 44 41 41
96 96 93 94 90 97 87 86 76 68 67 66 63 58 58 61 60 63 68 70 72 76 75 72 77 84 83 82 80 76 76 72 69 68 64 57 53 50 44 42 44 48 50 53 51 52 49 48 48
80 98 96 95 96 92 95 94 84 77 68 63 59 58 55 54 57 59 63 66 70 75 74 74 82 89 87 84 85 84 79 75 70 66 60 61 57 56 51 44 46 49 52 55 57 55 54 52 51
74 91 94 95 94 94 95 94 89 80 68 61 54 50 50 49 53 60 61 62 67 71 77 77 80 82 81 77 75 73 66 63 58 56 53 54 56 62 57 53 52 52 54 57 57 58 55 53 52
81 80 88 92 90 92 93 89 80 73 67 62 58 54 50 51 50 52 59 65 65 65 71 75 81 83 78 73 69 61 59 56 57 54 55 54 60 63 66 71 71 74 67 57 59 60 59 57 56
83 77 76 76 78 88 94 94 81 71 70 63 57 51 47 44 44 47 52 60 67 66 64 66 71 74 73 75 79 77 71 67 62 61 60 62 66 66 71 74 76 74 72 70 63 61 58 56 53
84 77 78 73 78 86 85 84 75 69 65 59 55 52 51 49 46 45 46 52 62 65 65 67 68 70 72 76 82 83 82 81 78 73 74 70 71 72 73 72 74 72 70 70 65 63 57 53 47
78 80 82 83 89 90 89 87 66 62 60 54 52 51 52 51 48 47 47 49 56 63 68 67 74 77 78 79 78 80 83 87 88 87 81 86 85 86 87 86 78 73 68 61 56 54 53 51 48
80 82 86 91 96 97 85 82 60 62 58 54 52 52 51 51 49 50 50 48 50 56 63 63 68 76 75 78 78 81 87 86 85 85 87 87 85 85 85 82 77 65 61 58 57 57 55 51 48
77 79 95 93 97 87 79 77 62 57 58 54 51 51 51 51 50 50 51 56 57 57 63 66 69 73 75 75 77 81 86 85 87 84 90 81 79 84 78 74 68 65 63 67 67 65 60 53 49
78 77 92 90 86 78 74 69 56 50 51 50 47 45 44 46 49 50 52 55 60 63 65 66 68 68 70 71 75 78 83 87 83 83 83 84 81 77 74 72 74 75 74 72 66 64 59 53 49
77 79 74 81 73 73 69 59 50 46 43 44 44 41 38 37 38 40 41 49 57 59 63 64 65 65 65 64 64 67 75 83 81 79 78 79 78 76 74 75 73 72 70 69 68 66 61 55 53
71 68 76 77 74 67 64 52 52 44 43 41 38 37 34 33 32 32 34 35 42 51 56 61 61 64 64 63 63 65 68 72 75 75 74 77 80 82 78 76 74 74 74 74 70 64 60 55 54
70 66 66 66 70 70 60 51 42 45 46 42 37 36 36 34 34 33 33 33 35 35 40 44 48 54 58 64 67 65 69 73 79 83 81 78 71 70 71 74 75 73 73 73 70 67 62 57 54
73 68 67 74 71 73 66 55 49 52 49 46 44 43 41 39 38 35 35 35 35 35 35 34 37 42 48 58 65 69 71 73 78 76 74 71 72 72 75 73 73 69 67 65 64 67 61 57 59

GFSSGP_prec_cthk_069.txt.gz
RH
64 74 76 76 81 80 76 64 63 72 76 72 68 71 71 70 61 57 58 45 41 39 38 37 38 41 41 32 22 23 37 29 12 11 22 35 43 47 45 45 42 30 13 11 13 15 17 18 18
69 81 79 82 84 80 65 58 61 72 78 76 72 76 74 78 67 65 58 50 43 40 39 37 38 40 36 29 21 27 31 17 11 9 17 28 36 40 37 27 19 11 12 14 15 16 16 17 19
73 84 84 88 88 67 55 56 53 59 70 78 76 78 78 80 72 64 62 58 46 42 40 39 38 36 30 24 24 29 23 14 12 10 10 16 22 23 21 16 14 14 16 16 16 17 19 19 20
82 78 88 93 87 56 44 51 54 67 77 81 79 78 87 86 74 67 65 62 50 44 40 39 40 34 27 21 22 25 18 15 13 12 12 12 13 14 15 16 16 16 17 18 19 19 21 21 22
79 84 94 95 77 53 48 51 57 60 67 78 81 81 88 89 82 77 68 63 51 46 45 39 38 33 26 20 20 25 19 17 15 14 14 15 15 16 16 17 18 19 20 20 20 20 20 20 20
88 92 95 96 71 52 50 53 53 58 64 76 85 83 83 89 84 82 73 63 54 48 46 42 39 33 26 21 22 24 22 19 16 15 16 16 17 18 19 19 20 20 20 21 20 21 21 22 22
84 94 90 73 76 63 56 54 55 57 62 69 76 80 82 85 95 83 77 65 56 51 49 45 42 36 28 25 24 26 27 23 21 19 19 19 20 20 21 21 22 23 24 24 24 23 23 23 22
67 88 91 79 82 61 52 53 57 56 63 59 70 80 78 82 94 93 84 68 63 60 55 52 50 42 36 30 29 30 32 33 31 27 25 25 26 25 25 24 24 24 25 25 25 24 24 23 22
64 86 89 83 81 62 54 60 61 66 65 64 61 72 74 81 85 97 91 82 70 67 64 59 55 50 44 38 34 33 34 37 37 34 30 29 29 30 29 29 28 27 26 25 25 25 24 23 23
71 80 67 84 74 71 62 59 61 68 76 69 66 73 80 74 80 91 93 91 84 73 68 64 57 55 50 46 41 40 36 37 37 34 34 33 33 32 32 32 31 29 27 26 25 25 25 24 24
61 74 67 87 82 79 66 67 62 70 77 69 68 77 77 73 76 74 94 98 91 87 79 72 64 59 56 52 47 46 43 41 39 36 33 32 34 34 35 34 33 32 30 27 26 26 26 26 27
75 75 64 80 87 81 72 68 68 67 62 70 73 84 68 74 71 65 75 83 80 91 93 84 76 67 63 58 53 47 48 46 47 44 39 32 34 34 34 35 35 35 31 29 27 27 27 28 31
80 75 73 82 89 87 75 74 64 65 64 68 79 86 74 75 70 73 78 76 79 70 94 95 88 78 71 66 61 57 53 48 48 48 43 39 37 36 34 33 35 39 35 33 31 30 32 33 33
66 86 76 94 86 90 76 77 69 70 68 68 78 79 78 80 79 74 75 78 76 67 78 86 91 91 83 72 69 67 64 59 53 51 50 47 45 43 40 35 34 38 39 37 36 36 37 38 37
65 86 82 96 93 93 82 79 75 69 70 71 70 70 68 70 76 72 72 75 72 76 78 75 80 97 90 81 77 72 71 68 64 58 56 56 54 48 45 41 37 38 40 41 42 42 43 42 42
77 91 98 97 91 96 91 85 77 72 72 69 71 66 66 66 70 71 76 76 78 81 85 83 81 76 85 90 86 88 83 76 69 67 63 60 57 53 47 46 39 40 41 46 47 48 48 48 47
85 96 94 94 93 93 91 89 81 74 72 69 70 68 66 68 74 70 72 69 79 77 88 93 83 75 80 85 88 85 89 86 78 69 67 65 62 60 51 48 46 43 43 47 50 53 52 50 50
87 96 96 92 94 94 96 89 83 77 72 69 68 71 69 65 68 68 70 70 79 77 75 80 85 77 82 83 87 89 86 87 80 76 77 78 71 66 59 54 54 50 47 49 50 53 56 57 56
87 92 97 95 95 94 95 96 84 80 72 70 67 67 69 67 66 59 60 67 74 79 81 85 87 86 87 88 90 91 88 85 80 83 80 72 67 62 59 59 59 58 54 53 57 56 59 62 60
90 91 97 96 96 90 95 95 91 85 77 72 67 63 62 65 60 59 59 57 63 72 80 79 82 84 81 82 80 86 83 82 75 68 67 64 65 65 60 63 62 64 71 72 70 68 64 63 64
86 82 93 97 96 89 95 93 91 93 92 72 62 57 54 53 52 50 51 55 58 60 69 78 78 75 76 71 72 80 77 77 76 72 70 70 69 70 69 72 72 70 75 76 75 76 73 72 63
84 80 80 88 84 92 88 93 81 86 85 72 65 56 52 49 47 47 48 49 51 58 63 74 78 84 78 80 87 87 82 83 84 81 80 71 74 75 85 85 82 83 83 77 74 70 69 66 62
86 77 75 81 90 88 89 94 72 75 70 63 63 58 51 48 49 49 49 49 53 53 55 66 74 77 83 79 79 84 89 90 92 86 90 88 88 88 91 90 91 86 82 80 82 73 63 60 59
83 87 94 91 89 88 87 88 67 66 68 66 63 57 53 52 50 51 51 50 51 51 53 57 64 71 76 74 74 75 80 83 90 88 95 89 86 87 92 91 90 88 87 86 73 63 64 64 63
82 86 97 98 98 96 91 87 70 60 60 59 54 50 50 51 51 53 53 53 53 52 54 56 60 67 71 71 73 77 82 81 85 86 97 89 90 94 90 93 91 87 84 71 65 68 69 68 67
80 77 83 85 96 93 87 81 63 58 61 56 52 53 55 54 53 55 54 54 54 57 61 64 63 62 66 69 73 75 80 85 85 88 93 90 98 94 91 88 87 83 71 71 72 71 70 67 68
83 77 68 75 78 85 78 57 52 56 58 55 54 52 49 48 49 49 53 56 57 57 59 66 71 71 68 66 66 68 69 68 76 85 92 90 91 89 88 84 76 77 79 77 74 73 73 71 70
73 70 76 79 80 71 75 62 60 52 50 50 52 50 49 47 43 41 40 42 47 54 59 61 63 65 68 68 66 63 63 61 65 72 82 85 86 81 78 78 78 77 74 71 70 70 72 70 69
71 74 76 77 76 76 70 63 56 55 54 50 49 46 44 42 40 38 36 37 38 39 40 44 50 56 58 58 61 62 63 66 67 69 71 72 80 83 82 80 72 72 71 71 70 68 65 60 58
73 69 66 72 71 72 66 61 58 56 55 51 48 47 45 43 42 40 39 37 36 37 37 37 36 36 38 41 45 53 62 67 66 69 73 76 83 82 77 73 72 72 70 68 66 62 57 55 58

GFSSGP_prec_cthk_072.txt.gz
RH
46 60 70 70 74 78 76 59 59 68 79 78 71 73 71 75 60 55 58 56 45 43 42 41 38 38 40 29 22 29 38 24 21 33 41 45 51 50 46 47 44 26 15 12 15 17 17 18 19
47 64 76 76 85 90 68 54 53 65 76 81 76 79 80 80 71 64 63 55 48 44 42 41 41 42 40 29 23 36 31 15 15 28 40 50 49 44 44 36 20 11 13 15 16 17 18 19 20
48 63 76 81 86 83 62 54 53 60 72 82 80 80 84 87 79 72 63 60 53 47 44 42 44 40 35 25 26 34 23 13 13 21 33 40 40 36 25 17 13 15 16 16 18 19 20 20 21
53 64 89 90 85 76 57 49 60 65 71 78 88 82 81 84 84 77 64 60 57 51 47 46 46 41 32 23 32 28 17 13 11 17 24 29 28 22 18 15 16 16 17 19 20 21 21 20 19
53 68 89 95 83 69 56 51 61 63 68 67 83 85 82 85 89 80 70 62 58 55 49 48 50 40 30 25 34 26 17 14 12 12 13 17 17 16 16 17 17 19 20 20 20 20 20 20 21
55 69 86 96 76 63 60 52 59 61 61 70 81 88 81 88 97 88 79 68 61 56 50 49 48 38 30 26 32 24 20 16 14 14 14 14 15 16 17 19 20 20 20 20 21 21 22 22 22
49 65 71 79 75 85 66 63 63 59 60 67 64 83 84 86 91 90 85 75 62 58 51 51 48 36 28 27 35 31 23 18 16 15 15 16 17 18 19 20 22 23 23 24 24 24 23 23 22
51 61 70 72 89 78 64 70 61 63 61 66 71 74 81 81 90 98 91 79 64 62 56 54 44 37 29 27 33 37 27 23 20 19 19 19 21 22 23 23 23 24 24 24 25 24 23 23 22
55 71 67 65 76 64 67 73 68 62 68 66 61 60 74 81 89 98 96 83 74 67 63 57 46 39 32 30 33 38 42 33 29 26 25 26 26 26 27 28 27 27 26 26 25 24 24 23 23
62 63 53 49 60 64 67 73 69 69 67 65 65 65 71 86 86 94 97 87 75 73 69 58 51 43 39 35 35 39 43 44 38 33 31 31 30 31 31 31 32 31 29 28 26 26 25 24 24
61 56 47 53 57 74 74 82 74 71 72 64 59 60 61 74 80 88 92 98 86 77 74 68 58 54 48 42 39 39 41 45 41 36 34 34 34 34 34 35 35 34 32 29 28 27 27 26 25
72 55 57 52 57 80 76 76 74 69 72 74 68 65 66 70 79 86 88 89 95 90 81 78 71 63 58 51 46 45 44 46 45 39 35 34 34 34 35 36 36 37 36 32 30 28 28 29 31
80 68 56 57 57 75 81 80 81 65 68 75 76 68 61 64 69 77 85 84 95 96 92 90 81 75 68 62 55 50 50 50 50 49 47 42 38 38 37 36 35 35 38 36 33 32 32 33 36
92 86 62 58 63 74 89 81 93 71 65 70 85 75 64 67 68 76 81 82 79 88 88 87 88 84 80 74 68 62 56 55 56 59 55 47 44 44 44 40 36 36 35 40 38 37 37 38 38
82 88 80 65 63 85 92 90 91 76 68 66 74 80 77 75 75 72 79 88 85 80 82 83 77 78 87 83 78 73 69 66 64 59 56 55 53 54 52 49 44 41 38 38 42 43 44 44 43
95 92 90 64 88 93 91 88 91 79 75 75 72 80 85 76 77 83 88 75 87 85 85 82 79 81 85 87 88 90 84 77 74 72 73 67 63 60 57 52 50 47 45 43 42 48 49 50 48
95 88 90 82 94 97 92 95 94 81 80 83 75 79 80 81 78 88 85 83 86 81 81 85 85 85 82 85 90 91 89 90 87 87 81 75 69 66 62 58 53 49 51 52 50 51 54 53 51
88 90 95 97 93 96 93 94 89 84 82 82 80 73 78 79 73 65 65 76 83 79 78 80 82 81 84 92 92 89 85 92 90 90 87 80 70 69 69 65 60 56 56 56 56 52 56 56 55
80 76 87 88 94 96 96 92 90 87 84 80 78 73 75 76 78 78 81 79 85 80 71 74 78 81 80 78 83 83 91 87 86 83 88 81 78 85 85 77 65 59 60 63 61 59 59 57 57
78 78 94 91 97 94 94 91 91 86 88 80 76 75 74 75 76 74 76 74 79 71 74 90 95 91 80 77 79 82 83 83 83 85 88 91 90 85 80 72 68 61 62 65 65 69 63 63 69
90 85 89 98 96 95 93 91 93 93 90 82 76 71 69 70 69 71 69 68 66 72 78 81 81 78 92 95 90 93 85 81 90 91 89 84 73 70 70 68 76 71 66 69 70 71 74 75 76
91 84 79 90 92 97 89 97 95 95 88 84 77 71 69 67 68 68 67 64 59 59 62 69 78 81 85 90 91 99 97 96 98 97 97 93 86 77 72 77 82 88 88 89 88 85 80 75 75
89 80 80 82 89 90 92 95 85 87 90 81 80 74 72 71 66 64 62 57 51 50 54 58 61 73 77 71 77 81 85 87 84 87 89 96 95 90 85 86 89 92 94 92 89 87 83 81 82
87 86 90 92 94 93 91 90 76 78 78 85 88 79 75 70 66 61 57 54 51 51 52 53 55 57 64 72 80 80 83 86 89 89 87 86 88 90 90 95 93 92 92 89 91 90 89 83 68
89 90 97 98 96 95 88 88 81 70 72 75 76 73 70 67 64 58 56 55 51 51 51 50 48 51 55 60 66 74 81 79 76 82 87 88 92 90 90 96 97 95 95 91 90 89 76 74 73
90 85 87 91 95 95 94 88 73 70 70 70 70 68 62 60 61 60 57 57 55 53 52 53 52 53 55 55 56 62 69 74 73 75 85 88 89 92 95 98 97 95 92 92 83 77 74 73 71
85 83 69 79 84 91 88 69 68 71 71 66 64 62 62 61 61 59 60 59 57 54 51 51 57 58 59 61 63 62 61 63 62 63 68 76 84 92 92 93 90 91 89 79 77 74 73 71 70
71 69 69 72 81 86 81 68 68 69 70 67 63 57 56 55 55 55 53 52 54 56 56 54 54 57 62 63 66 69 68 65 65 66 61 63 75 92 91 90 87 82 77 75 71 71 70 70 69
69 68 66 66 68 74 80 66 59 57 57 56 57 57 55 51 48 49 47 44 43 42 42 42 44 48 55 59 58 58 59 59 60 60 61 68 73 79 75 72 74 78 76 75 67 70 69 67 67
74 70 66 72 69 70 67 62 60 58 57 56 53 50 49 49 49 48 44 40 38 37 36 36 37 36 35 35 37 41 46 49 51 56 63 69 70 71 73 77 79 79 75 72 75 73 69 63 57

GFSSGP_prec_cthk_075.txt.gz
RH
36 41 52 59 62 69 65 61 56 54 67 74 78 74 72 73 63 58 60 59 52 47 45 47 41 35 34 28 22 30 27 25 40 48 48 42 45 51 54 53 45 24 17 16 15 17 18 19 19
38 44 51 71 68 67 55 56 61 54 67 75 80 79 77 80 75 70 66 62 56 49 48 46 45 40 39 27 25 35 26 25 40 50 52 61 54 49 47 42 24 17 15 16 18 19 19 20 21
36 44 55 70 73 63 53 48 58 54 66 73 85 81 82 87 82 73 69 60 59 53 49 47 48 46 40 26 29 36 19 20 35 50 58 65 49 46 38 20 14 14 16 18 19 21 21 21 21
36 52 62 74 71 59 54 45 49 57 63 71 81 90 85 89 87 84 74 61 60 56 51 48 51 47 38 25 34 32 18 15 27 45 54 60 40 29 17 13 16 16 18 19 20 21 21 21 21
38 54 63 74 71 63 65 50 51 58 69 68 71 85 85 86 86 86 75 65 64 60 55 51 56 48 34 28 36 28 17 15 20 33 40 36 27 20 17 16 17 18 19 20 20 20 21 21 21
45 50 63 69 64 61 70 62 62 60 67 63 72 73 88 84 89 91 81 69 65 62 59 57 62 47 32 36 35 27 18 15 18 23 28 25 20 17 17 18 20 20 20 20 20 22 23 23 22
50 53 50 49 62 70 60 65 69 61 63 64 61 70 75 88 89 94 95 80 69 64 60 59 64 49 33 40 35 26 20 17 16 16 18 19 17 17 19 20 20 21 22 23 23 23 23 23 23
53 55 52 47 60 57 62 73 64 67 62 61 67 71 68 73 86 87 98 92 73 69 63 58 63 45 33 35 36 31 24 21 19 18 17 18 18 19 20 22 23 23 24 24 24 25 24 24 23
55 66 56 45 47 46 59 75 74 68 65 65 63 61 59 66 86 89 96 99 90 74 66 62 56 43 32 31 41 36 29 25 20 19 19 20 21 22 23 24 26 26 26 26 25 25 25 24 23
60 61 48 35 41 44 54 70 73 78 68 70 68 68 60 55 78 87 91 97 96 83 77 62 56 43 34 32 40 40 35 29 27 25 25 25 27 28 29 29 29 29 29 27 27 26 25 25 24
47 51 42 40 44 51 52 67 75 85 79 68 63 64 60 61 69 76 89 94 97 93 86 71 58 47 38 34 37 42 45 39 37 33 31 31 32 32 33 33 33 33 31 30 28 27 26 26 25
66 41 49 48 48 55 50 61 80 83 72 67 61 69 63 64 64 75 83 91 97 92 91 77 62 52 46 41 40 43 48 48 44 40 37 36 36 36 36 36 36 37 36 33 32 29 29 29 29
74 52 53 50 54 54 58 61 72 77 76 74 71 61 63 68 72 79 82 88 92 92 96 85 69 59 54 48 45 45 46 48 49 45 39 38 38 39 38 37 37 36 37 38 35 33 32 33 35
67 64 60 60 49 55 61 72 75 68 75 79 81 71 69 73 77 82 80 78 86 89 93 95 85 73 64 58 53 47 48 49 48 51 48 45 42 41 42 40 39 37 36 35 39 37 37 38 40
83 77 67 61 54 57 63 67 72 72 75 78 88 79 80 74 71 77 76 77 74 89 95 90 91 91 82 72 69 61 56 51 53 55 56 56 51 46 46 47 47 43 42 39 39 40 41 44 44
91 87 83 60 61 57 77 66 71 83 79 83 87 77 76 79 78 75 77 81 79 86 88 88 89 89 87 82 78 76 71 66 66 61 58 57 56 56 58 57 55 52 49 47 44 42 44 47 49
90 92 93 92 60 69 80 75 74 87 86 89 85 75 80 85 91 85 89 89 88 83 84 85 86 83 84 83 81 87 80 75 74 73 72 71 71 70 67 65 62 58 52 50 51 50 50 51 52
97 96 96 86 76 77 87 84 83 85 91 91 83 82 91 95 91 90 94 85 88 91 85 82 84 85 88 85 82 90 89 81 79 79 78 78 83 81 77 75 69 60 55 52 56 60 58 52 54
99 97 94 85 70 72 95 93 85 88 92 88 87 83 88 85 96 91 86 83 94 95 91 81 84 92 84 85 82 89 86 84 81 83 86 88 89 88 85 78 72 67 62 58 61 64 64 61 56
98 93 94 90 86 80 90 95 91 90 96 89 85 84 85 84 85 87 88 88 88 97 85 88 92 96 94 89 92 85 88 87 89 86 84 86 88 96 91 87 86 86 76 67 65 62 63 66 59
92 91 90 98 96 87 94 97 96 93 93 90 87 84 85 85 82 80 83 87 83 79 86 89 82 78 73 86 92 93 94 94 95 94 92 88 93 98 98 92 88 87 78 69 70 76 72 75 72
91 83 82 89 97 97 95 98 93 92 91 90 89 89 88 85 80 77 79 82 80 77 78 83 85 89 87 90 90 95 95 99 98 98 98 97 99 98 95 91 90 88 86 87 87 89 88 88 83
96 89 85 84 87 93 98 95 88 86 87 88 90 89 85 83 82 81 81 76 71 67 68 65 63 70 84 92 94 95 98 95 90 91 88 89 90 91 92 95 96 95 96 96 96 95 90 90 90
94 91 88 85 87 92 98 84 86 78 83 89 94 89 86 85 81 77 74 71 68 64 62 56 56 55 62 68 77 80 89 94 96 94 91 90 95 91 89 88 93 97 96 98 98 96 90 92 92
90 87 93 91 92 96 96 82 88 74 75 88 91 89 82 78 77 73 68 68 64 60 57 53 51 51 56 62 64 66 68 78 87 87 84 85 91 90 88 96 97 97 99 98 97 95 94 92 88
88 84 79 87 94 98 96 87 92 83 78 81 86 85 82 79 79 74 70 66 62 59 57 53 54 57 59 58 56 58 58 59 62 69 73 76 79 82 87 90 95 98 95 97 97 94 92 85 78
82 81 75 90 96 93 84 80 76 77 77 81 80 79 81 77 72 71 70 67 65 61 57 56 56 59 59 58 58 57 56 57 58 56 56 62 69 74 78 84 93 92 89 91 92 90 82 79 77
74 68 79 85 92 95 83 77 77 79 78 75 72 74 73 70 68 67 67 67 67 65 63 61 59 57 57 59 62 63 63 62 63 64 62 59 61 65 68 77 84 86 83 85 85 77 73 71 72
73 68 68 72 77 80 78 67 71 73 76 75 74 71 69 65 62 61 58 57 54 52 52 52 52 50 48 50 53 54 55 57 57 57 59 61 61 64 69 73 74 73 74 77 75 76 75 73 73
73 66 59 62 62 67 68 70 63 64 66 65 65 65 63 60 58 55 53 51 47 44 43 43 40 39 37 37 35 34 35 36 38 43 45 50 58 65 68 72 73 73 71 72 79 77 70 68 70

GFSSGP_prec_cthk_078.txt.gz
RH
34 35 40 43 45 42 37 40 47 44 53 61 54 58 66 72 63 63 61 58 61 56 52 48 51 40 36 30 24 24 27 27 18 13 18 26 34 41 58 61 47 27 24 19 15 17 18 19 20
32 36 40 46 48 38 39 42 49 44 53 58 61 61 71 77 77 73 64 62 62 60 56 52 53 39 35 30 22 28 27 40 40 27 34 39 49 54 57 50 28 23 19 17 18 18 19 20 20
28 35 41 48 48 40 40 41 46 48 58 55 64 68 71 85 85 80 71 68 66 64 60 56 51 44 41 29 26 32 27 48 60 61 60 62 64 53 49 31 23 20 17 19 19 20 20 20 19
31 37 44 49 43 43 44 47 47 49 55 59 65 76 77 84 86 84 81 70 66 66 66 55 53 51 45 28 34 33 25 39 56 64 69 68 56 47 31 19 18 17 20 21 21 21 20 19 19
30 40 43 44 43 41 46 46 49 51 52 66 67 73 80 80 85 89 88 75 71 68 66 58 58 59 46 28 39 31 18 31 53 65 70 65 47 31 15 15 17 20 21 21 21 21 21 20 20
38 37 42 44 37 38 50 52 52 57 53 57 73 72 73 77 84 88 92 86 79 73 69 65 65 63 44 30 39 32 18 23 48 62 69 62 29 18 15 18 19 21 22 21 21 21 22 22 22
38 40 37 35 35 36 49 53 52 54 51 53 70 72 70 73 75 91 93 91 84 77 75 70 69 69 46 32 38 28 18 20 35 48 51 34 23 19 17 19 21 21 21 21 22 23 23 22 22
44 44 44 40 36 36 44 51 53 61 59 52 60 76 73 67 68 81 92 96 96 85 83 76 76 72 50 46 38 28 20 19 24 38 36 30 22 18 19 20 21 22 23 24 24 24 24 23 22
42 52 48 40 36 31 37 44 51 53 64 66 62 65 70 68 65 68 91 92 97 96 92 82 82 78 54 53 40 29 23 19 21 22 28 23 21 20 20 21 23 24 25 25 25 25 24 24 23
40 43 42 32 30 38 41 46 47 66 67 69 68 68 65 64 63 64 81 91 94 96 96 89 85 78 51 53 43 37 29 25 24 24 25 28 28 28 28 24 25 27 27 27 27 26 25 25 24
41 42 36 37 39 44 46 45 46 65 73 71 68 66 74 66 63 67 76 88 92 94 99 96 89 78 48 39 53 45 34 33 31 28 24 29 29 26 27 29 30 30 30 29 28 27 27 26 26
60 53 42 35 45 50 47 47 59 64 57 68 73 75 81 79 76 71 73 85 90 92 98 96 92 69 46 39 48 53 44 36 32 27 27 29 31 31 31 32 33 33 34 32 30 30 28 28 27
61 51 61 48 48 52 55 54 51 50 56 63 73 71 76 80 79 76 75 73 78 93 95 98 94 67 48 40 41 49 50 44 41 39 37 37 36 35 36 36 36 37 36 36 34 32 31 31 34
50 61 60 62 53 51 51 50 58 42 59 69 81 75 81 84 78 77 77 75 73 86 90 96 98 68 54 44 39 41 48 55 52 51 45 44 43 41 40 40 39 38 37 36 39 41 39 38 38
55 67 73 63 58 53 49 58 57 56 62 75 81 77 81 83 77 73 84 79 75 78 90 91 95 81 67 56 50 46 47 50 57 57 57 52 49 44 45 47 44 42 40 38 37 40 41 43 45
72 78 85 63 61 51 59 45 50 63 66 64 71 78 81 89 82 79 80 74 76 76 84 89 94 86 82 76 67 59 54 53 54 54 58 57 58 57 50 46 46 47 45 44 42 43 45 45 49
89 91 84 75 58 58 57 54 57 57 61 64 68 74 76 96 93 84 81 79 78 82 88 88 91 89 88 80 73 74 70 68 59 59 57 54 53 58 54 58 58 57 56 52 49 48 51 49 50
98 92 82 77 63 56 60 58 74 70 64 69 73 76 77 92 94 87 83 85 87 84 89 92 92 93 85 86 83 76 76 73 69 68 71 70 71 72 70 70 70 65 63 60 55 54 55 57 59
98 98 90 76 71 61 71 69 83 79 70 73 75 79 86 94 98 97 90 90 90 90 87 88 91 88 85 83 85 86 82 84 79 78 79 77 78 79 74 77 86 80 75 69 61 61 59 61 61
98 97 97 96 87 70 81 79 80 87 84 77 79 81 86 91 93 93 98 95 90 93 92 94 94 95 93 90 87 88 86 88 83 82 83 81 81 84 83 86 94 88 83 76 67 66 68 64 63
95 93 93 98 89 82 82 92 93 86 92 89 85 90 95 96 93 93 95 93 95 97 97 95 98 90 89 88 87 88 89 87 80 84 86 88 86 85 86 86 94 97 96 92 86 80 76 75 76
90 89 94 97 95 89 78 90 96 95 90 94 95 92 93 95 95 96 96 95 91 91 90 93 91 92 94 94 93 91 90 92 93 94 88 94 93 90 87 88 92 97 98 98 98 96 86 85 87
88 94 94 94 87 86 88 94 94 96 93 97 91 92 91 87 92 89 87 87 89 87 84 88 88 85 84 84 93 93 95 93 95 92 91 95 98 93 91 91 93 97 99 98 98 97 94 94 95
92 87 90 86 86 92 99 97 95 91 85 92 90 90 90 88 88 88 85 82 79 77 75 75 73 72 76 85 90 89 92 96 89 95 93 92 93 91 92 93 95 94 96 94 94 97 99 97 96
89 85 95 90 93 95 98 86 92 81 78 77 88 88 91 93 90 86 84 81 78 75 71 71 66 66 66 68 74 80 81 83 85 82 78 84 86 87 87 88 95 97 92 91 93 96 97 98 97
87 80 74 77 92 96 82 94 93 81 83 87 91 90 88 90 91 89 85 83 79 76 72 67 64 63 62 61 65 69 73 71 72 72 71 71 78 81 82 84 85 88 91 92 95 97 95 97 95
79 77 71 80 83 77 88 82 76 81 87 91 93 93 93 91 88 86 80 81 77 75 70 64 62 62 60 61 61 63 62 63 64 62 61 62 60 61 69 78 80 78 83 92 92 90 87 88 88
76 73 76 76 79 83 81 72 76 77 81 85 91 92 93 90 82 78 76 77 75 72 69 67 65 62 59 59 61 63 63 62 63 62 62 63 62 63 63 63 67 64 71 83 85 88 85 80 78
69 70 69 66 70 66 72 77 70 73 75 78 80 80 80 79 77 78 73 69 67 66 64 60 57 55 54 54 54 53 53 55 57 60 59 59 58 60 60 64 67 68 68 67 69 71 70 65 68
69 60 56 60 67 66 60 70 73 72 73 72 70 68 69 68 66 65 61 59 58 57 55 53 51 48 46 45 43 41 39 37 36 35 36 38 41 44 52 58 67 68 70 70 72 72 68 69 70

GFSSGP_prec_cthk_081.txt.gz
RH
29 35 36 36 40 37 33 32 28 32 33 44 49 55 57 53 68 72 73 65 60 59 55 49 49 43 40 34 28 21 23 26 23 24 21 25 32 49 45 51 47 29 31 31 21 17 19 18 18
28 33 37 42 45 36 32 27 35 32 38 46 51 53 66 61 71 73 73 65 64 64 59 53 52 47 40 34 27 23 25 27 14 19 19 30 36 47 53 55 33 28 29 26 17 19 20 20 19
25 33 41 41 47 38 27 31 33 35 44 44 56 54 82 72 72 72 72 73 66 71 61 60 56 49 39 35 26 29 27 34 17 24 30 36 48 51 56 42 27 27 28 19 20 20 20 20 20
30 36 41 44 34 35 31 28 31 40 48 45 53 69 72 68 68 72 72 80 74 74 69 64 58 49 42 36 26 31 35 50 46 49 51 60 69 59 50 30 26 25 20 20 21 21 20 20 19
38 40 38 39 37 35 36 37 33 41 45 45 50 70 73 67 66 73 82 85 83 80 74 71 64 56 53 38 30 32 36 55 61 63 72 81 72 55 34 24 23 21 21 22 22 21 20 20 20
45 38 40 35 32 36 30 37 36 38 49 44 59 57 68 65 65 72 78 88 86 88 81 79 67 65 64 44 35 35 29 50 61 70 79 82 70 45 23 19 19 21 22 22 21 21 21 20 21
37 39 34 31 33 34 36 32 36 40 44 49 53 62 57 77 59 64 73 95 96 90 89 80 71 73 70 51 39 38 22 40 62 71 78 78 67 28 16 18 21 23 23 22 22 22 22 22 21
41 39 41 32 33 35 33 36 38 45 44 52 53 55 62 72 59 58 69 82 97 92 87 87 82 80 75 63 45 41 23 27 58 67 75 72 48 21 17 19 22 23 22 23 23 24 24 23 22
37 50 45 36 35 36 34 36 46 47 48 56 54 62 66 63 66 60 65 77 95 94 93 94 88 87 82 68 51 43 24 21 42 61 63 54 32 21 20 21 22 22 23 24 25 25 24 24 23
36 39 36 36 39 38 36 35 43 52 52 58 61 68 65 63 74 64 68 79 84 91 93 97 96 92 90 67 66 41 26 22 28 46 50 34 28 29 29 23 22 23 24 25 26 26 25 25 24
42 39 34 38 38 39 43 41 48 53 51 59 62 65 72 61 59 66 63 74 84 87 89 94 94 89 94 74 72 52 32 30 34 36 34 33 30 30 31 25 24 25 27 27 27 27 26 26 28
51 47 49 38 38 48 46 43 43 53 54 46 58 65 79 72 68 68 62 67 74 83 83 87 92 97 97 80 70 64 39 36 33 33 33 35 33 31 32 31 30 30 30 33 30 29 30 30 29
48 51 49 51 55 43 45 45 50 51 44 48 59 76 80 64 79 71 71 68 72 76 82 88 88 92 98 81 67 65 53 44 40 35 34 33 32 31 35 37 38 36 35 36 35 34 32 31 31
43 45 48 56 56 59 51 45 49 44 45 55 64 67 83 69 86 84 72 72 75 77 74 86 89 99 99 85 62 68 62 55 43 37 34 34 36 35 38 40 40 38 38 37 40 40 37 37 37
48 50 44 41 58 58 65 54 48 36 58 55 50 67 65 69 79 90 78 75 79 75 78 90 88 97 99 77 58 71 72 65 55 45 41 42 43 40 40 41 40 41 43 44 45 42 45 46 46
61 62 67 40 48 57 70 56 30 43 50 51 57 64 58 67 77 89 83 81 77 75 73 84 83 93 98 67 54 53 69 74 64 54 50 46 46 46 45 46 47 49 48 54 44 42 43 46 50
76 74 73 57 58 68 70 46 41 49 45 58 59 61 65 78 76 88 86 80 78 70 76 76 86 90 92 84 64 51 47 54 63 67 61 61 58 56 54 51 55 51 59 56 49 48 47 47 50
83 97 90 79 69 67 64 54 56 57 59 56 66 69 77 83 73 82 95 86 80 69 75 76 87 89 91 86 74 75 59 55 58 62 64 62 63 63 58 57 61 59 66 56 58 56 54 52 57
88 94 94 93 81 72 61 59 55 67 62 71 64 74 81 77 71 80 97 90 81 80 85 94 95 94 88 87 90 85 79 77 73 72 74 74 74 73 74 77 73 75 75 71 70 69 64 59 65
88 95 90 88 81 78 60 63 57 58 72 80 72 72 75 76 80 90 97 98 96 94 93 98 97 97 93 92 91 86 92 93 89 88 85 85 83 78 83 88 81 82 84 81 80 78 71 68 70
93 89 93 99 71 76 69 80 70 62 81 82 75 77 84 80 85 95 97 98 98 97 89 98 98 97 94 97 94 91 94 94 93 91 88 84 82 81 83 88 87 82 86 90 94 95 89 75 75
90 84 94 93 81 86 69 77 76 76 78 77 80 80 82 90 93 93 93 97 96 92 93 97 98 98 90 92 94 96 96 95 94 95 93 91 89 89 87 87 90 85 86 86 90 92 99 97 93
97 88 89 95 87 81 76 79 91 93 86 92 93 89 97 96 95 91 96 95 95 95 94 94 91 92 92 93 87 88 89 89 92 90 96 93 90 90 88 88 91 90 89 85 87 89 94 98 97
91 92 93 95 97 92 83 78 89 98 96 89 94 91 96 91 90 93 98 96 94 94 90 87 88 93 92 92 95 93 94 96 96 91 91 87 87 83 86 88 86 97 93 86 86 87 97 96 98
93 90 95 98 98 96 96 76 96 97 87 89 93 98 97 91 91 93 97 91 89 89 84 80 79 79 76 79 80 85 86 93 90 92 90 87 86 84 83 83 87 92 93 90 85 91 94 95 95
96 84 92 95 95 95 87 95 97 97 95 98 94 98 95 93 91 93 95 94 86 82 79 78 76 74 70 70 73 73 78 80 84 85 83 79 81 82 82 81 83 88 87 82 87 90 94 94 93
83 80 75 78 72 77 90 96 93 94 95 96 94 94 93 95 95 95 94 90 87 85 80 76 73 70 69 69 68 68 69 72 70 72 75 77 71 73 76 80 76 83 85 81 78 84 90 92 92
80 76 81 77 84 84 81 79 83 88 92 92 92 90 89 92 93 91 87 86 83 82 80 74 69 67 67 66 64 67 64 65 66 66 67 64 63 63 62 66 67 72 76 78 76 76 83 78 84
80 72 64 63 67 64 72 80 75 79 80 87 91 95 95 93 88 83 82 79 77 75 74 71 68 65 61 58 57 56 54 56 57 59 60 60 57 57 59 56 59 63 66 71 71 76 72 72 72
76 66 63 66 64 59 58 72 68 70 72 75 79 78 78 79 80 78 76 76 73 68 61 58 56 52 50 49 48 45 44 43 44 41 39 37 35 35 38 42 48 52 62 66 72 68 65 69 67

GFSSGP_prec_cthk_084.txt.gz
RH
24 28 34 36 46 41 40 34 29 31 29 26 35 40 43 45 56 62 62 61 74 60 59 53 47 46 46 40 33 29 22 19 19 24 22 25 30 39 39 41 38 29 29 28 28 22 24 18 17
22 28 36 43 45 48 34 23 26 24 27 30 34 41 44 56 58 63 61 66 71 60 64 57 54 49 46 41 33 25 23 24 23 25 27 22 30 42 42 46 32 39 36 25 20 19 19 18 18
20 28 39 42 45 44 35 26 27 30 30 34 42 45 47 57 55 61 71 68 64 70 65 62 62 56 47 42 33 25 28 27 21 28 27 28 39 45 52 47 33 38 34 22 18 19 20 19 18
24 31 38 51 37 34 31 30 33 35 32 35 39 44 49 51 54 51 80 73 75 80 74 69 66 65 49 42 35 29 30 30 17 30 31 35 44 46 53 37 32 36 26 20 19 20 19 19 19
35 38 39 38 38 37 36 34 30 33 32 35 38 43 48 48 49 62 80 75 72 74 69 77 74 69 54 45 35 34 36 41 27 35 42 45 56 61 53 32 31 28 25 20 23 20 20 19 19
44 38 44 42 35 33 34 36 32 31 30 33 45 45 46 47 56 61 70 70 65 66 66 80 83 77 60 56 37 38 39 54 46 55 59 68 72 72 43 28 28 26 22 22 22 21 20 20 20
45 47 42 38 40 36 32 33 33 32 31 33 39 45 44 46 50 56 66 69 66 77 69 90 89 81 72 67 47 46 37 53 63 62 71 84 80 73 42 27 23 24 22 23 22 22 21 20 20
40 47 50 47 41 33 30 35 36 37 33 33 40 47 51 45 51 52 55 57 63 78 73 83 99 88 84 76 58 53 32 46 64 72 79 83 77 64 40 25 21 22 24 23 23 23 23 22 21
44 54 52 44 38 35 33 33 32 34 35 37 39 46 47 47 50 55 59 51 53 66 87 97 99 94 91 87 68 59 44 34 62 72 78 79 75 57 33 21 22 23 24 23 24 24 24 24 22
43 45 44 36 37 38 34 32 32 35 37 39 45 41 52 50 51 56 57 56 54 59 74 92 96 93 94 90 81 64 55 27 48 69 75 77 69 44 30 23 23 24 23 24 25 26 25 24 24
50 46 39 37 41 41 38 35 37 40 38 42 52 43 39 46 42 55 53 53 51 62 70 83 94 93 97 96 93 74 58 31 29 60 73 76 58 40 32 24 23 22 24 25 26 27 27 26 25
51 46 48 46 45 43 42 37 41 42 39 42 50 47 52 46 57 88 75 50 50 56 68 72 85 86 89 96 91 89 65 34 27 37 64 72 52 38 30 26 24 24 25 27 28 28 28 27 27
43 41 40 45 47 45 45 42 41 37 42 47 55 46 55 56 52 56 88 58 54 55 61 77 82 80 87 96 94 98 77 43 34 35 43 53 40 32 32 28 25 25 28 29 31 31 31 30 29
38 40 40 41 42 45 48 48 48 34 41 46 47 48 43 53 50 68 84 72 61 59 65 78 84 81 85 88 95 96 86 58 41 39 45 45 33 32 32 31 29 31 32 32 34 34 34 33 37
44 44 41 38 30 34 48 45 48 39 31 42 40 51 46 48 66 84 91 76 72 66 68 76 79 78 86 87 98 98 87 77 51 42 43 38 35 32 31 32 34 35 35 35 36 38 39 40 49
50 49 50 42 47 42 42 48 43 42 40 38 41 50 49 45 68 75 77 78 74 80 75 76 76 74 86 90 94 95 90 83 68 47 40 40 37 33 33 35 37 38 40 41 42 42 42 48 53
61 71 66 66 68 58 54 41 41 50 51 37 44 48 51 48 52 65 66 76 77 85 80 76 78 76 83 87 93 95 95 92 88 71 51 44 41 39 41 43 46 48 50 50 47 46 46 60 50
76 80 84 87 80 83 64 53 50 64 60 43 41 46 58 51 59 63 68 70 91 91 86 81 80 80 87 82 88 90 85 92 92 87 72 59 51 52 54 51 53 53 53 52 53 59 59 64 56
77 77 78 79 79 92 87 67 59 84 64 64 54 60 55 58 61 67 70 71 82 96 89 90 90 85 85 85 92 89 79 74 81 80 83 71 68 69 70 65 58 61 63 65 62 72 68 73 59
85 83 83 79 84 88 94 67 62 66 71 63 62 59 57 81 76 78 74 70 81 96 92 96 91 89 89 97 94 87 86 84 79 80 76 80 77 74 77 77 76 76 73 70 74 80 77 81 75
89 85 93 96 95 90 81 71 65 66 75 62 60 76 77 86 88 80 77 82 88 99 98 99 97 96 94 98 96 97 84 91 86 90 87 87 87 85 84 82 81 80 81 85 88 86 87 84 86
93 85 92 93 79 80 75 81 75 74 59 58 73 78 78 88 93 90 84 85 98 98 95 98 99 99 98 97 98 98 94 91 96 96 93 96 92 93 90 87 85 83 86 85 86 90 90 89 95
95 91 94 91 91 92 79 95 77 70 66 74 87 85 87 90 92 90 89 95 95 94 96 96 98 98 96 94 95 94 93 95 96 90 91 94 94 95 90 87 82 83 85 80 79 85 90 93 93
94 94 95 96 93 84 80 89 91 90 88 85 84 82 88 92 95 91 89 90 97 98 98 97 98 96 92 89 94 95 93 93 90 88 92 91 90 92 91 88 84 80 81 81 81 83 88 90 91
94 98 98 98 98 96 92 83 93 90 94 91 95 93 97 99 96 95 93 95 97 96 94 91 93 96 92 92 95 96 93 96 89 88 91 91 84 85 87 87 84 77 85 83 82 80 89 97 93
94 97 98 97 97 97 89 93 95 95 98 98 96 94 95 97 98 96 94 93 93 91 88 88 92 89 89 87 89 89 89 88 87 88 88 88 84 86 83 80 78 78 83 83 83 93 97 98 90
85 96 91 99 84 93 98 98 98 98 97 97 98 98 98 99 96 93 94 93 93 89 86 86 83 81 81 79 78 78 80 80 80 83 84 84 84 84 82 82 83 83 83 87 89 91 93 93 93
84 77 86 92 97 96 92 94 98 99 98 97 95 97 97 97 96 95 94 93 92 89 87 84 81 76 74 73 72 71 71 72 71 72 74 77 75 77 77 77 75 73 71 78 84 85 83 83 89
76 73 68 71 75 82 86 93 87 96 96 96 95 95 91 95 92 90 87 84 82 80 80 79 75 73 71 68 66 64 64 66 65 65 65 65 65 64 63 64 59 64 64 67 71 75 78 76 86
72 67 63 74 70 71 76 85 81 85 87 88 90 91 90 87 87 85 82 80 76 74 72 70 65 59 55 51 49 48 46 45 44 44 44 44 41 41 40 39 41 41 49 54 55 63 78 81 81

GFSSGP_prec_cthk_087.txt.gz
RH
20 24 29 34 42 42 50 42 30 28 27 24 27 35 39 44 44 48 51 52 51 55 56 54 52 46 45 42 40 34 31 30 25 31 24 28 34 35 42 42 31 25 28 35 33 22 16 16 16
19 28 30 36 44 54 47 29 29 23 27 27 28 35 44 52 49 51 53 59 55 56 59 57 56 53 49 47 43 36 31 25 24 28 27 25 32 38 42 42 27 25 31 32 27 18 17 18 17
22 32 34 38 48 49 39 27 22 24 24 31 31 36 47 56 52 52 55 57 55 53 58 62 60 58 56 50 44 36 28 25 24 26 30 26 33 36 39 43 33 33 31 28 21 18 19 18 18
26 34 35 46 45 35 29 26 25 29 27 30 34 39 44 50 51 49 53 60 62 58 64 68 65 62 61 56 46 36 32 33 30 31 33 28 39 40 46 47 38 39 28 25 19 18 19 18 18
37 40 43 46 40 33 31 31 28 35 36 30 35 42 43 45 47 47 49 54 63 66 72 70 71 72 74 62 50 39 38 42 23 33 34 30 43 50 53 46 39 38 28 25 19 19 18 18 18
42 42 49 49 38 28 24 27 30 34 37 34 35 41 45 41 43 46 49 50 61 65 79 83 75 77 82 70 57 42 42 52 28 37 35 40 49 56 56 40 39 31 30 27 21 20 19 19 19
45 49 47 45 42 35 28 23 30 33 35 36 37 40 50 47 41 38 43 54 67 72 84 83 78 75 82 79 72 51 44 57 43 45 48 56 64 65 65 40 35 33 29 24 21 21 20 21 21
41 50 51 47 46 40 32 33 31 31 31 35 40 41 45 51 47 41 40 47 60 72 84 88 82 71 72 82 84 68 53 56 73 60 65 66 74 75 69 43 34 28 28 23 21 21 21 21 21
35 45 55 50 43 39 31 34 33 34 31 30 39 41 42 46 49 43 42 46 53 64 70 82 91 91 77 87 88 80 70 49 67 77 70 77 80 81 66 54 43 29 25 24 23 23 23 23 22
34 43 42 41 41 41 37 33 34 38 34 32 32 41 41 43 48 49 48 46 49 56 63 73 83 95 95 84 93 90 81 65 55 83 80 85 85 79 61 50 43 31 25 24 23 24 24 25 24
38 38 36 36 38 43 42 37 35 34 37 39 38 40 48 42 44 48 46 39 48 53 58 64 67 75 83 96 97 95 93 80 53 73 83 87 87 81 54 46 39 32 26 24 24 24 25 25 25
40 39 43 43 41 43 45 42 36 36 34 36 41 41 44 47 49 48 48 45 46 55 57 60 60 62 75 89 92 93 93 85 66 54 85 87 82 73 51 39 39 35 27 25 26 26 26 26 26
37 39 40 42 41 42 43 42 42 36 39 34 39 41 46 44 45 49 50 46 46 59 65 63 56 55 65 82 88 89 93 89 74 47 62 87 88 69 46 38 38 35 26 26 27 27 28 28 27
37 37 36 37 33 32 37 33 37 39 35 36 33 44 48 47 50 50 47 43 62 63 69 69 56 56 59 79 80 89 83 90 75 54 41 70 89 70 47 41 36 29 26 27 29 31 31 31 31
41 43 38 31 29 33 32 34 33 30 34 33 34 39 45 46 49 45 46 51 56 66 77 74 58 61 58 74 80 81 90 95 80 55 37 45 69 72 49 39 30 28 29 30 32 33 33 35 36
46 48 50 33 41 46 50 41 28 27 29 30 29 38 44 47 46 43 40 45 63 74 85 80 72 69 59 73 76 79 98 98 88 66 50 45 50 61 42 34 33 33 34 34 35 36 38 39 40
56 59 52 51 56 63 66 53 44 28 28 33 31 27 45 45 38 41 39 45 71 70 85 87 86 80 67 75 78 80 98 96 95 77 62 53 56 55 40 37 38 37 37 38 39 41 41 43 45
63 71 65 72 65 65 69 69 56 46 54 45 43 33 38 40 42 48 46 49 72 71 80 88 93 90 81 81 79 77 90 99 99 92 67 54 50 41 40 41 42 44 46 46 46 46 46 45 49
73 77 74 62 67 78 80 75 59 50 62 58 45 42 40 42 46 49 50 57 65 74 76 85 93 94 87 86 83 83 86 96 98 96 82 58 54 47 47 49 50 49 50 50 51 53 54 57 58
85 86 80 74 75 89 91 81 67 66 85 78 69 59 50 51 60 59 58 53 61 72 80 89 91 94 93 87 86 82 86 92 98 98 97 91 71 63 59 57 57 60 57 56 60 68 68 69 73
84 87 86 83 78 89 91 88 66 67 79 80 80 74 58 64 60 75 74 64 64 69 80 86 91 99 95 94 95 92 88 94 95 95 94 98 94 85 81 79 74 70 71 69 74 76 78 78 82
93 95 91 81 80 79 75 76 61 62 71 86 79 75 67 76 84 91 97 84 72 74 83 87 99 99 99 97 97 98 96 91 92 95 94 95 96 94 91 92 90 88 85 83 84 87 87 87 87
97 95 90 87 85 88 77 92 71 66 71 74 67 72 76 83 83 94 95 87 81 77 86 93 97 98 99 98 99 98 97 98 94 93 97 96 96 96 95 93 93 91 92 87 87 85 81 82 81
92 96 97 93 94 90 77 93 82 73 68 63 66 79 85 86 88 93 97 93 89 89 87 98 97 96 98 98 94 97 99 97 97 96 96 93 93 93 92 91 90 90 88 86 84 86 86 84 82
96 98 98 98 96 98 88 88 90 87 85 80 86 89 88 90 98 98 94 97 96 97 99 98 98 97 96 95 97 97 96 93 91 88 90 90 90 85 88 89 90 92 93 91 91 90 89 87 86
98 98 98 97 97 97 89 94 94 92 89 90 98 97 98 98 99 97 98 98 98 96 95 94 94 93 96 95 96 96 95 96 94 93 92 90 89 88 86 84 84 85 86 90 90 93 92 87 94
94 98 95 98 88 96 97 98 99 98 96 95 99 97 98 99 99 98 98 98 96 93 92 90 88 86 87 86 86 89 94 95 93 92 92 95 95 92 92 89 91 92 91 90 90 91 90 92 94
87 81 88 96 97 96 98 97 98 98 98 98 98 98 97 98 98 98 96 96 94 91 89 86 82 82 82 82 82 79 78 81 86 90 93 93 91 88 90 91 93 94 93 91 92 87 85 94 92
79 79 76 75 80 86 90 97 97 98 98 98 97 98 98 97 95 94 92 89 86 82 80 79 76 76 75 75 74 73 71 73 72 72 74 73 73 73 75 71 72 74 75 76 75 79 82 87 86
71 69 68 78 74 78 82 93 91 96 95 94 92 91 90 92 90 82 80 78 74 73 73 72 70 69 65 60 56 52 51 52 51 50 49 50 50 50 51 52 52 52 53 58 63 65 67 73 78

GFSSGP_prec_cthk_090.txt.gz
RH
17 22 29 38 44 46 47 38 30 31 25 20 27 27 29 37 40 44 47 50 51 55 55 50 49 49 51 45 42 42 40 38 35 31 29 30 31 27 34 40 34 30 38 40 38 22 14 15 15
22 29 29 37 43 52 44 34 31 25 28 29 26 29 34 43 44 45 47 47 51 54 58 54 51 48 49 51 47 43 39 38 40 33 31 30 35 33 35 39 34 29 38 40 32 21 15 15 16
27 32 29 35 44 47 39 28 25 22 26 31 29 32 38 42 47 47 48 48 52 54 59 60 57 55 53 55 54 48 41 36 34 30 38 30 39 37 40 41 34 26 35 37 29 21 17 16 17
30 35 33 44 45 38 30 28 27 27 26 28 31 32 43 43 44 51 53 50 54 55 58 58 64 60 60 58 58 52 40 33 28 32 32 37 40 41 37 39 39 33 37 37 28 21 18 17 18
32 37 40 48 44 37 32 29 27 26 29 29 32 32 37 44 47 45 48 50 51 55 62 65 68 73 73 64 59 53 42 39 36 34 35 44 36 47 39 43 44 36 36 32 33 20 19 19 19
26 35 49 51 40 33 27 24 30 29 28 32 32 34 37 44 50 52 49 48 47 53 61 71 77 76 80 76 69 56 48 46 52 33 40 48 40 56 51 51 46 34 32 32 28 20 19 19 19
27 31 38 43 45 37 30 23 27 32 29 30 33 34 35 36 52 54 62 62 49 47 56 70 74 73 77 78 72 62 52 52 60 29 45 53 45 61 66 59 45 35 33 32 28 21 20 20 20
26 31 37 35 37 40 30 32 29 31 34 34 35 37 37 39 45 51 61 65 58 55 57 65 83 77 77 77 72 69 61 57 65 47 53 54 56 69 69 68 49 44 41 38 28 22 22 22 22
26 35 39 35 32 30 30 31 31 32 30 36 41 38 44 45 43 46 51 55 52 49 58 60 72 84 84 80 74 71 67 65 66 67 58 63 69 73 72 72 54 48 40 31 25 23 23 23 22
29 37 35 30 28 27 25 30 31 34 35 31 40 40 41 47 58 50 46 46 45 43 44 60 67 77 87 88 83 78 72 68 70 77 72 72 77 76 76 75 59 56 42 34 25 24 24 24 24
30 35 29 28 26 26 28 25 29 33 34 36 37 44 43 44 51 62 54 46 47 45 46 59 64 66 73 83 86 89 87 72 75 77 81 82 79 81 88 77 62 55 50 41 25 25 25 25 25
37 34 34 32 31 32 30 30 28 31 32 35 35 39 45 46 53 58 65 68 48 47 49 54 58 62 65 67 71 78 82 80 74 76 80 85 84 84 97 74 60 53 47 43 28 25 26 25 26
33 31 31 31 32 30 28 27 30 27 29 31 36 36 40 47 49 56 64 64 57 50 48 50 51 52 54 53 58 66 66 84 81 73 81 84 81 84 88 76 61 52 46 44 34 27 26 26 27
33 34 34 33 30 28 29 24 27 23 24 29 29 36 38 42 49 55 56 55 51 50 47 48 48 51 51 51 49 57 75 76 84 82 74 78 88 95 96 86 56 51 48 46 41 30 28 29 29
37 37 35 30 27 29 26 27 27 21 22 21 27 32 40 42 48 50 51 50 47 46 41 43 47 52 59 60 54 48 60 72 86 81 76 71 84 98 88 77 57 49 49 47 41 34 31 31 32
38 41 47 32 33 34 41 39 37 38 39 30 22 27 34 44 48 50 50 49 47 44 44 44 56 60 62 62 59 55 53 71 81 82 81 70 71 85 96 83 60 49 48 46 39 36 36 35 35
52 56 51 46 41 46 58 52 47 47 48 37 27 23 29 35 46 50 52 52 48 42 40 52 62 66 64 68 68 67 59 75 81 89 91 85 63 66 82 93 67 53 49 42 36 38 37 38 39
55 54 59 61 60 59 57 53 56 53 50 41 33 33 31 30 37 47 54 52 50 38 35 52 61 68 72 73 74 82 75 84 83 93 93 84 62 47 55 89 78 53 49 42 39 39 40 41 43
58 70 75 67 69 68 67 66 67 57 48 48 43 41 35 33 33 48 53 53 43 36 46 61 64 75 82 84 79 84 86 85 82 85 93 93 70 60 60 67 62 48 45 41 39 43 44 46 48
76 81 80 74 73 77 75 72 69 61 50 57 56 54 46 42 37 42 52 53 47 45 64 73 68 73 80 85 86 87 90 88 88 87 91 91 85 74 70 69 60 50 46 49 50 50 50 52 53
79 83 84 85 75 73 76 76 69 58 64 69 62 56 51 57 49 44 58 64 64 71 71 72 73 74 79 82 86 92 90 92 98 95 96 96 91 83 76 65 59 55 54 56 56 59 61 62 70
81 77 85 84 80 73 73 78 71 69 74 78 76 84 78 67 56 63 61 70 80 83 82 75 72 80 85 85 88 96 96 94 98 90 95 95 92 92 88 79 73 69 67 65 65 72 77 82 84
77 85 89 86 83 85 83 88 62 64 67 80 82 85 79 71 73 76 81 80 98 93 86 78 77 85 86 90 97 99 99 98 97 96 98 98 98 96 97 97 96 94 92 92 92 91 89 87 84
79 88 96 98 97 95 82 87 83 74 68 68 70 72 76 77 81 86 91 96 97 93 85 81 87 90 90 98 99 99 99 98 98 98 99 97 97 97 97 96 95 98 95 97 94 95 94 93 92
90 96 98 98 97 97 90 87 83 80 73 66 67 78 84 87 94 95 99 99 95 93 92 93 92 87 96 99 98 98 96 98 98 98 98 96 98 97 96 94 95 94 96 96 94 93 91 92 93
97 99 98 97 97 97 95 96 93 87 88 87 87 91 91 94 94 98 99 98 98 97 96 94 93 96 96 96 96 93 94 96 97 98 98 98 98 96 92 93 98 95 94 94 94 94 94 95 93
97 98 97 99 90 94 96 97 95 93 90 90 97 98 98 98 98 99 99 99 97 97 96 96 96 95 93 93 93 93 96 95 93 93 93 99 99 97 95 96 96 94 92 93 94 91 92 95 95
94 90 96 97 98 96 96 97 98 98 97 96 98 98 98 98 99 98 98 97 96 95 92 88 87 86 86 86 85 84 85 87 89 92 94 93 94 93 94 96 98 97 95 94 95 94 94 95 96
86 90 83 80 88 96 91 97 96 98 98 98 98 98 98 98 96 97 95 94 88 81 78 74 72 71 71 70 70 70 68 68 70 76 81 82 85 86 87 85 87 87 87 87 89 89 89 89 90
73 74 72 79 76 83 85 96 95 95 96 97 97 96 96 96 94 91 87 82 78 72 71 71 69 66 64 62 58 55 55 53 49 49 49 53 57 61 67 72 75 76 75 73 73 81 81 83 82

GFSSGP_prec_cthk_093.txt.gz
RH
16 24 33 37 39 42 43 33 31 31 28 26 25 23 27 26 30 38 41 44 47 51 49 49 49 49 52 50 48 44 42 40 35 31 31 29 29 30 33 34 32 33 40 43 35 23 19 13 15
24 26 36 42 42 49 35 33 32 31 34 29 26 27 31 34 36 37 39 43 47 52 52 53 51 52 49 46 50 50 49 44 43 40 32 32 31 30 37 38 34 34 37 41 32 23 19 14 15
28 30 34 36 44 47 35 30 28 26 28 31 29 27 35 40 42 41 43 47 49 53 55 53 53 52 51 48 47 51 51 45 42 43 37 34 39 37 34 37 34 36 38 39 29 25 20 16 17
33 36 34 43 45 37 32 29 29 28 26 28 30 31 30 37 47 45 45 49 51 54 55 55 54 52 52 52 51 49 53 47 40 41 37 40 39 52 42 40 37 38 34 34 30 26 20 17 17
22 30 39 47 45 41 34 29 29 25 27 28 31 30 31 35 44 51 46 46 52 54 55 55 55 54 58 60 59 57 53 45 37 32 35 39 40 50 52 43 40 34 35 34 31 27 21 18 18
19 22 30 37 38 36 32 28 29 28 26 28 28 29 31 33 36 46 49 44 49 63 57 57 59 61 64 70 66 64 56 48 44 40 37 36 50 43 52 47 44 43 35 37 32 29 22 18 19
22 25 28 32 33 29 30 29 28 28 29 28 32 31 29 32 37 47 51 62 52 69 68 55 57 61 65 68 71 70 65 62 56 58 45 44 53 54 51 60 53 45 39 37 36 29 23 19 19
23 26 34 32 31 25 20 22 31 30 27 31 32 35 37 34 36 46 53 59 53 71 72 74 75 63 66 66 69 69 68 65 61 64 46 49 55 58 56 62 60 45 37 40 39 31 25 21 20
23 30 36 31 31 26 21 21 20 27 31 30 34 33 36 37 43 49 51 50 51 62 67 67 69 81 80 85 81 75 72 67 63 66 52 59 62 60 57 67 66 48 44 42 37 33 26 23 23
25 32 30 27 27 26 23 22 20 20 22 30 31 36 35 36 40 48 56 55 52 56 58 58 59 65 71 85 92 89 81 73 67 72 68 67 64 61 64 72 74 55 54 50 42 32 26 24 23
27 30 27 25 25 26 27 23 20 20 19 20 30 32 37 38 39 47 52 61 61 57 56 57 56 60 60 66 78 84 88 82 72 71 75 72 73 69 74 76 78 68 58 59 51 39 26 25 24
31 29 29 30 27 27 26 25 22 20 19 19 19 29 35 40 40 44 51 56 66 59 53 51 51 51 55 59 67 74 77 83 78 73 74 75 83 81 81 81 82 73 62 63 56 47 36 26 26
30 30 29 28 27 24 24 25 24 20 19 20 20 21 31 38 45 47 50 56 60 59 55 50 48 46 48 54 58 60 63 64 68 74 72 74 83 88 86 86 84 90 63 63 57 50 46 33 28
33 33 31 29 26 26 27 22 24 22 18 16 16 19 22 32 42 47 52 58 59 60 57 58 54 46 44 48 54 52 51 55 56 67 72 70 75 80 97 89 88 96 75 63 58 50 45 41 31
36 35 33 29 25 27 25 26 26 19 20 20 18 17 20 22 34 43 51 56 56 55 55 53 53 50 43 40 47 50 50 49 53 54 60 62 74 77 80 97 98 86 81 74 58 50 47 48 42
40 39 44 30 32 33 37 33 28 29 35 32 30 28 24 22 25 38 48 52 55 54 51 52 48 47 46 42 40 39 41 46 49 50 50 64 74 77 75 87 96 92 82 75 64 53 47 50 44
46 53 49 43 39 43 48 45 34 40 41 42 40 35 24 19 21 30 47 53 55 55 54 52 45 43 41 39 45 45 48 54 51 55 59 65 79 75 78 84 98 95 86 78 64 56 54 48 46
48 54 50 56 49 51 53 46 41 49 52 49 44 35 29 26 22 24 38 52 56 55 53 50 45 40 36 41 52 53 58 58 60 64 63 71 73 83 81 88 95 89 80 71 69 63 56 51 46
51 59 64 62 61 64 65 58 58 56 56 58 44 49 39 34 21 23 37 50 61 61 57 56 46 37 40 47 62 60 65 67 67 72 74 80 85 93 93 91 90 94 83 74 65 65 61 53 46
67 73 72 71 74 73 66 64 66 64 65 56 54 54 52 47 38 29 35 53 58 58 61 63 52 41 47 61 62 64 70 72 76 85 82 91 96 98 96 92 89 84 84 71 70 69 63 51 48
73 77 75 75 71 69 69 68 73 70 68 66 70 75 67 55 50 49 43 49 48 47 51 52 46 50 61 67 67 65 76 80 83 92 93 95 96 95 96 87 80 83 80 74 72 68 57 51 51
78 71 76 81 84 82 76 75 71 71 74 86 87 91 79 78 63 54 50 47 44 50 58 55 58 61 66 72 68 72 76 82 85 86 98 96 96 97 93 92 89 87 89 73 60 60 60 62 65
78 76 84 91 94 86 88 86 76 72 77 86 81 92 85 88 79 73 65 60 60 65 64 73 76 75 72 70 74 78 82 81 85 88 99 99 98 96 95 92 92 90 90 82 73 71 73 77 77
78 85 88 95 99 95 86 82 73 75 73 80 84 84 80 79 76 82 82 85 80 81 82 85 87 88 86 83 82 97 89 97 94 96 99 99 98 96 97 97 93 88 85 84 91 90 91 90 90
89 93 91 92 98 93 95 87 75 75 74 74 71 76 78 81 85 86 90 92 90 87 86 88 90 90 92 90 96 97 98 98 99 99 99 99 99 99 98 96 93 91 92 94 98 95 92 94 92
92 97 97 95 98 97 96 97 89 83 78 78 75 78 81 90 90 94 97 99 95 96 99 99 94 91 89 91 92 93 92 97 97 96 98 98 98 97 98 97 97 96 98 95 98 95 98 97 97
97 98 96 98 92 97 96 98 95 94 90 90 92 95 98 98 98 98 98 97 98 98 96 96 95 93 92 93 95 96 98 95 94 97 96 98 99 98 96 97 93 96 96 96 93 94 96 96 96
97 96 98 98 98 97 95 97 97 98 97 97 98 98 98 98 98 98 98 98 96 93 91 89 88 88 88 86 86 87 87 85 93 97 97 96 96 96 96 96 98 97 98 98 96 96 97 96 95
88 92 94 91 97 97 93 95 97 98 98 98 98 98 98 98 98 99 96 91 87 83 79 76 71 71 70 68 68 69 69 67 67 73 82 87 89 90 91 93 93 92 92 95 97 97 93 96 98
67 70 75 83 79 86 85 94 95 98 96 96 98 99 98 98 97 95 92 87 79 75 74 70 68 67 64 62 60 56 54 55 57 56 54 53 55 60 65 72 78 82 82 80 82 86 89 90 89

GFSSGP_prec_cthk_096.txt.gz
RH
16 24 29 32 32 38 40 29 33 32 30 27 25 23 23 24 25 30 38 41 40 46 47 50 49 53 56 51 53 48 43 40 39 34 31 28 27 27 28 30 30 28 37 44 35 25 22 17 15
20 28 33 36 41 36 27 32 31 34 31 29 27 26 29 32 33 34 38 44 46 48 49 52 50 52 55 54 52 50 51 50 46 42 40 34 30 29 32 33 35 37 43 41 30 23 23 17 15
28 35 34 37 42 40 30 30 30 29 30 30 27 27 33 41 40 40 38 43 48 49 49 49 50 52 54 52 50 47 50 52 52 49 44 39 36 33 34 38 39 42 45 39 27 25 23 19 16
28 35 38 40 44 36 32 30 31 28 26 27 27 28 26 35 41 49 47 47 50 51 55 53 53 52 51 49 48 49 47 48 50 50 48 49 41 43 42 37 36 40 45 40 28 27 26 20 17
23 24 32 38 40 40 34 31 31 29 26 25 24 27 28 36 35 48 51 52 52 52 53 56 54 53 51 50 50 52 55 53 48 47 44 43 43 44 54 49 37 41 42 37 28 28 28 23 18
19 19 22 28 29 26 26 28 30 30 27 26 26 25 29 31 30 35 47 50 61 58 56 54 61 54 52 54 55 57 60 60 57 48 43 41 44 47 51 52 46 45 41 36 28 28 29 26 19
18 19 21 27 28 25 20 19 21 26 28 27 27 28 28 29 32 36 43 48 56 67 66 65 62 61 53 53 57 62 65 64 61 54 52 50 50 53 55 55 50 47 42 39 30 31 30 27 20
19 21 31 29 28 23 21 19 19 20 23 27 28 30 32 30 31 36 44 46 50 58 68 74 72 76 61 55 58 62 64 67 67 66 64 61 56 56 63 59 60 56 51 43 36 34 32 29 22
21 26 30 27 30 24 22 22 20 19 18 19 24 30 32 32 33 36 42 46 48 52 58 69 76 82 85 83 75 77 72 69 66 67 69 64 59 58 64 65 63 62 55 47 43 36 34 31 26
24 27 25 27 27 25 23 22 20 19 17 16 15 17 25 33 34 37 43 48 48 50 50 58 60 72 80 83 86 82 86 81 74 69 69 60 53 64 70 68 65 68 63 50 48 45 36 32 28
26 27 26 25 25 26 25 22 21 21 20 16 17 15 16 20 32 34 38 46 49 55 54 51 55 68 71 74 71 71 74 80 85 78 75 72 70 69 74 75 67 74 73 61 52 52 42 39 28
28 29 28 28 26 26 24 23 21 19 18 18 17 17 16 16 21 28 37 42 50 57 56 58 56 63 70 68 65 66 66 71 76 82 77 71 77 71 75 80 77 80 82 67 58 54 50 45 38
29 29 28 27 26 23 22 23 22 20 18 16 15 16 16 15 15 22 28 39 48 56 62 60 59 59 66 65 61 61 59 62 66 69 70 66 67 69 72 79 86 87 88 84 68 64 59 49 42
30 29 28 26 23 23 23 21 22 21 18 17 16 15 14 14 14 15 23 31 44 56 59 60 57 56 58 53 53 52 54 54 59 61 61 63 57 65 69 76 86 94 94 91 80 67 65 54 49
31 32 30 27 26 27 27 24 26 22 21 21 22 23 22 20 19 17 17 28 37 52 58 56 54 54 52 47 49 46 42 44 51 55 54 56 56 58 70 72 74 88 95 94 87 71 67 62 52
38 38 39 29 32 32 34 33 25 26 28 28 27 26 27 26 23 19 15 25 36 44 52 55 54 52 50 50 48 52 48 45 50 52 54 52 53 53 60 66 75 73 89 96 92 82 82 69 62
45 52 47 41 39 42 44 39 34 35 34 33 33 34 33 32 26 22 17 15 34 42 47 53 55 54 49 49 49 49 47 44 40 45 54 56 55 52 51 52 65 72 78 91 96 90 86 77 63
43 52 49 51 44 46 49 43 39 44 43 41 40 38 38 33 29 23 21 14 29 44 48 52 53 52 51 50 49 47 40 34 39 43 47 51 55 57 58 53 60 69 77 83 86 91 86 81 71
50 54 56 52 53 55 56 48 40 43 48 50 50 45 45 43 41 31 22 15 27 44 50 50 53 54 51 43 40 39 36 35 46 50 52 55 57 59 59 63 62 73 81 81 89 92 89 83 72
54 60 58 58 58 59 59 53 52 56 57 63 67 62 59 61 55 45 26 19 31 50 59 57 55 55 52 45 46 46 40 41 51 55 58 60 63 67 70 80 68 78 92 90 92 90 87 83 77
58 63 65 68 66 68 70 60 62 61 74 76 71 75 77 76 77 64 50 41 38 54 65 63 65 57 53 50 51 47 49 52 54 56 63 67 69 76 86 98 89 83 99 94 92 90 87 80 74
66 64 68 76 83 85 82 81 70 72 73 78 87 89 93 84 88 82 83 64 48 58 63 67 62 55 46 48 49 51 57 58 60 59 60 69 74 82 82 96 98 99 99 95 90 89 84 80 77
64 67 74 79 86 90 94 96 70 74 71 79 83 90 92 97 95 92 80 78 64 61 62 58 50 50 55 54 55 58 65 71 65 59 66 74 76 86 92 96 99 97 97 97 97 92 86 86 86
70 78 80 82 87 94 86 95 84 77 81 80 84 88 92 88 89 83 84 74 65 59 56 55 64 66 71 68 67 71 77 76 76 89 90 87 86 92 98 99 99 99 98 98 99 97 94 87 80
82 90 88 86 92 91 94 95 80 80 78 81 80 79 82 84 86 88 92 88 84 81 79 83 81 86 87 97 95 91 85 89 90 93 94 92 96 97 99 98 98 97 98 96 96 97 95 92 90
93 96 96 93 95 94 98 97 93 90 84 82 78 76 81 87 92 92 95 98 97 93 92 91 89 88 90 87 92 88 88 91 90 93 96 94 97 95 99 98 98 99 99 99 98 96 95 96 97
95 98 97 97 97 97 94 96 96 97 95 90 92 91 94 98 98 98 99 99 98 99 99 98 98 97 95 93 91 88 94 95 93 96 96 96 96 97 97 98 98 98 97 95 94 92 93 96 98
94 95 97 97 97 96 96 96 98 98 98 98 98 98 98 98 98 98 98 97 96 95 94 94 91 88 85 81 81 83 81 84 88 91 93 97 96 97 95 95 96 99 97 97 98 98 98 99 96
85 86 93 96 98 97 95 96 97 98 98 98 98 98 98 98 98 97 97 94 91 88 83 80 81 80 77 75 72 69 70 71 67 63 65 70 78 84 87 89 91 94 96 96 94 96 97 98 97
65 72 76 86 83 88 88 93 96 97 98 98 96 97 98 98 97 96 92 87 83 81 78 75 72 71 67 64 62 59 58 57 56 56 57 58 61 60 60 60 64 71 78 84 87 87 87 94 96

GFSSGP_prec_cthk_099.txt.gz
RH
18 24 29 28 24 28 28 23 32 30 28 26 25 26 26 25 26 28 41 41 42 43 48 50 49 48 46 53 53 52 47 43 41 38 34 34 31 28 28 28 28 27 35 36 38 29 29 20 15
19 28 32 28 27 21 18 30 28 30 28 27 26 24 29 31 37 38 41 45 45 48 50 53 51 51 51 55 54 51 47 47 47 46 41 39 35 30 29 30 28 31 41 41 33 23 23 21 16
30 34 31 31 32 25 22 29 30 31 29 27 26 25 30 42 39 45 44 45 45 47 49 52 53 55 55 52 49 47 46 48 50 50 49 46 45 34 34 35 34 45 49 42 28 22 23 23 17
33 38 35 37 35 32 28 28 28 27 26 25 27 26 29 31 30 35 44 47 49 49 49 49 49 49 54 56 51 48 46 46 47 49 50 53 56 45 41 42 48 43 45 47 32 23 25 25 20
26 24 28 29 31 34 33 34 31 28 25 23 22 25 25 34 29 30 41 47 48 56 53 51 51 49 51 53 52 50 49 52 53 53 49 50 50 54 48 49 47 47 42 47 36 24 25 28 24
20 17 19 20 21 22 21 24 29 28 28 27 25 23 24 28 27 30 36 47 45 50 63 70 60 55 51 54 52 50 49 52 59 60 55 49 44 52 57 56 53 51 52 46 42 26 26 29 27
17 15 16 19 21 22 19 19 18 20 21 23 26 26 25 25 26 28 34 45 45 46 53 68 75 64 54 53 59 56 54 56 59 62 60 54 53 51 63 64 63 57 59 49 40 30 28 31 29
16 17 27 25 25 19 21 20 19 19 18 18 19 22 27 28 29 29 32 40 45 47 54 64 73 73 67 61 62 63 59 58 61 59 58 59 59 59 59 65 67 64 60 56 45 35 31 33 32
18 20 21 22 27 22 22 20 19 19 18 17 16 16 16 21 28 31 32 38 44 45 46 54 64 76 79 81 81 79 72 67 65 63 63 62 64 65 63 65 68 64 63 62 52 42 36 36 34
20 19 19 23 24 23 21 21 19 18 17 15 14 13 13 13 16 22 29 36 43 46 48 47 52 59 71 84 86 91 88 78 76 73 71 69 71 68 65 64 70 70 68 67 58 53 43 38 38
24 22 24 24 25 23 22 20 20 20 19 15 15 14 13 12 12 14 20 25 37 46 49 50 49 50 65 73 81 85 83 80 78 74 78 74 72 64 60 64 72 74 72 72 67 63 56 47 41
25 26 26 26 24 24 22 19 18 17 16 14 12 13 13 13 12 12 15 19 25 35 47 52 52 52 53 64 70 74 80 77 75 71 72 71 74 72 75 74 73 76 75 73 77 65 64 55 51
29 28 26 24 21 20 20 20 19 18 15 15 14 14 12 12 11 10 11 15 19 25 35 48 55 55 52 54 54 60 74 68 69 66 65 65 69 71 71 73 77 75 78 79 84 81 66 60 55
28 27 24 21 21 22 23 22 22 17 17 18 17 16 16 17 17 14 12 12 17 21 29 41 52 58 53 50 53 57 70 67 66 66 65 62 67 69 66 64 71 75 75 79 84 90 86 69 64
29 27 26 25 25 26 26 23 24 20 22 22 22 22 21 20 19 18 16 12 14 21 26 37 48 52 56 51 53 57 69 70 64 61 60 55 52 59 58 62 61 65 73 78 83 93 95 85 70
34 33 31 27 31 33 35 33 27 30 31 31 29 26 25 23 23 22 20 17 12 18 26 36 44 45 47 56 52 51 57 64 59 55 53 51 49 48 57 54 59 58 61 78 80 88 90 97 81
39 42 43 41 40 43 44 40 38 37 36 34 33 31 30 28 25 24 22 19 16 13 25 35 41 41 42 45 56 52 50 52 51 48 50 50 47 42 49 54 54 56 58 63 71 77 87 91 88
47 50 49 48 43 45 46 42 37 35 35 34 34 35 35 34 30 29 27 23 17 15 23 34 41 42 43 45 48 54 51 48 46 47 47 45 43 45 47 50 54 55 54 54 59 61 71 85 85
50 53 57 48 45 47 45 44 39 39 41 42 46 47 47 47 45 42 38 31 23 18 22 37 41 45 49 48 45 49 50 48 43 39 39 37 43 49 50 50 52 53 54 53 55 57 64 70 89
53 55 54 46 49 51 52 52 48 53 56 54 56 58 59 57 57 59 56 38 26 21 26 43 48 49 51 48 48 47 48 44 42 40 39 38 44 51 54 54 56 56 59 63 66 64 69 75 82
54 53 53 57 56 61 64 60 56 63 65 54 64 67 70 78 77 76 70 45 30 37 48 50 62 56 57 61 54 46 47 47 46 46 43 42 48 52 56 61 63 62 67 81 74 73 73 82 86
54 49 56 64 71 72 74 73 64 67 66 56 67 78 84 92 87 89 90 64 55 57 56 70 68 73 63 58 54 51 51 52 53 50 48 48 53 53 57 63 68 72 79 86 89 92 91 91 92
54 57 63 70 79 80 81 86 68 72 66 66 72 83 85 90 93 94 97 93 84 70 72 75 68 63 62 58 53 51 55 58 61 58 56 58 57 58 62 61 66 73 85 89 92 99 99 96 99
59 70 78 80 81 82 77 83 72 74 71 75 83 83 85 89 91 92 92 94 92 76 68 67 68 65 61 58 57 61 67 68 69 67 69 70 67 71 72 73 73 84 90 96 98 95 95 97 97
79 88 83 78 81 79 81 89 79 86 84 79 78 78 79 83 88 91 89 87 82 76 71 67 61 62 62 77 90 90 86 84 83 80 82 80 78 89 89 88 90 96 98 98 98 98 98 97 96
89 88 85 87 85 82 90 91 93 96 97 91 87 82 80 83 88 95 95 96 97 92 86 86 85 82 78 92 92 96 98 97 98 92 90 90 91 91 97 94 95 98 97 97 97 98 98 97 97
88 89 86 90 85 91 86 95 97 97 98 97 97 95 93 95 97 98 99 99 99 98 97 99 98 94 94 94 88 85 89 91 93 91 91 92 94 96 97 98 98 98 98 98 98 98 98 98 95
78 82 90 93 92 90 89 95 98 98 98 98 98 98 98 98 98 98 98 98 98 97 97 97 95 91 87 83 82 86 88 86 79 78 82 84 90 94 97 96 98 98 98 98 97 97 98 98 97
81 83 84 91 97 95 93 92 97 98 98 98 98 97 98 98 98 98 97 96 94 92 90 89 86 86 78 75 76 71 70 74 72 70 70 68 69 70 72 80 85 89 92 94 96 97 95 96 98
61 66 71 80 81 88 88 86 95 97 96 97 97 97 98 98 97 96 93 89 84 80 77 75 72 70 67 60 58 54 52 50 49 46 46 46 46 49 53 53 56 59 62 69 75 82 88 90 92

GFSSGP_prec_cthk_102.txt.gz
RH
21 23 25 27 23 20 15 17 22 24 24 24 22 23 23 23 26 33 44 38 41 42 48 50 47 50 50 45 50 49 47 46 45 42 43 40 36 31 30 31 27 29 42 41 39 37 33 27 19
22 26 28 27 23 16 15 22 24 26 25 23 22 22 25 34 39 40 43 42 44 47 51 55 48 48 54 51 52 50 49 46 45 46 46 46 44 33 30 30 28 28 46 43 40 32 26 23 21
27 30 32 26 21 17 18 24 26 27 24 23 23 23 27 37 32 34 41 43 46 49 55 58 51 48 50 55 56 51 46 42 44 47 48 48 51 43 35 34 31 34 51 52 40 25 23 25 23
36 35 29 29 22 26 24 27 28 27 26 25 25 24 28 29 29 29 33 38 44 49 52 60 50 55 54 57 57 55 48 45 44 47 48 49 55 52 48 47 46 50 52 50 44 26 24 26 26
32 31 28 26 27 30 31 33 30 27 24 23 25 25 26 28 28 26 31 39 42 45 47 56 60 51 54 57 60 57 53 51 49 51 53 52 51 51 53 57 55 55 51 45 48 29 25 27 28
22 18 15 16 16 22 24 27 28 29 28 26 24 24 27 29 26 24 28 39 44 45 48 49 58 68 59 57 58 55 58 59 59 60 61 59 53 48 55 61 61 58 55 54 50 36 28 27 30
17 13 11 12 14 15 19 18 18 20 19 22 25 25 27 28 25 25 26 33 44 44 47 51 58 62 73 68 62 57 56 59 57 58 62 61 61 59 56 63 66 69 66 61 58 47 30 30 32
17 12 15 15 15 15 18 18 18 18 19 17 16 16 19 25 26 27 27 31 39 45 43 48 51 59 68 75 69 63 59 63 64 60 59 60 57 56 57 61 67 72 76 67 63 53 40 32 35
14 12 13 15 17 17 19 17 18 16 16 15 15 15 15 15 18 20 23 27 35 40 44 43 48 55 63 73 74 74 71 72 69 68 61 55 54 60 60 58 62 67 71 74 68 61 48 39 37
16 14 13 17 18 18 18 19 17 15 15 13 13 12 11 11 12 15 17 19 24 35 41 44 44 48 57 61 69 81 86 86 85 80 72 62 59 65 67 69 65 64 69 69 72 69 54 44 46
20 18 18 20 21 19 18 17 18 16 14 13 12 11 12 11 11 10 11 16 19 25 34 40 46 46 48 52 63 69 79 85 83 82 78 77 71 69 65 66 63 64 69 74 73 70 65 57 53
19 22 21 22 20 20 19 17 15 15 13 12 13 13 12 11 11 11 10 9 15 19 26 33 38 48 49 49 51 53 69 78 86 83 78 71 74 74 68 72 75 74 73 74 78 78 74 68 61
22 24 23 21 20 19 19 18 17 15 14 15 14 14 14 14 12 12 11 10 9 14 20 28 32 38 46 53 53 52 57 66 70 82 81 73 71 72 72 71 73 75 82 81 74 79 78 77 72
25 23 22 20 21 21 20 19 20 15 17 17 17 17 17 17 17 16 15 13 12 10 14 21 29 37 41 45 52 52 53 56 58 64 63 77 77 74 70 69 72 70 78 77 80 80 82 81 82
25 23 22 23 23 24 25 23 23 19 23 24 24 23 23 22 21 19 18 17 16 13 11 15 23 33 40 44 45 48 51 54 54 61 63 73 74 66 61 58 60 61 68 78 78 81 82 80 83
27 26 24 24 27 30 31 26 26 28 30 28 27 27 27 25 24 24 24 22 21 17 14 13 18 27 39 44 44 44 45 53 55 60 61 61 71 63 56 55 52 49 54 60 68 73 72 73 80
30 34 31 31 34 37 38 34 33 33 32 30 29 28 28 27 27 28 28 26 23 21 20 14 17 24 36 44 45 45 44 44 52 51 54 57 66 65 58 57 56 52 46 44 54 66 66 67 79
38 41 39 40 40 40 42 37 34 35 32 34 34 35 36 37 35 33 34 33 30 25 22 18 17 25 34 42 44 44 43 44 46 53 54 52 55 60 57 52 49 49 47 45 44 56 66 68 66
42 47 51 45 43 43 40 37 36 38 39 42 43 43 43 43 44 43 40 40 40 35 28 23 16 27 36 40 44 44 44 45 45 46 51 53 48 44 45 42 43 46 48 49 51 53 54 59 65
51 51 48 42 43 43 38 36 39 41 48 49 51 50 51 53 54 52 51 51 54 50 37 30 23 30 43 46 49 52 51 46 44 43 41 44 45 42 40 41 41 44 51 54 55 55 57 58 61
48 44 44 49 45 45 46 39 43 48 56 58 60 56 57 63 64 67 67 72 69 53 44 33 33 49 55 58 60 59 53 45 43 42 39 39 44 47 43 42 41 47 56 59 62 61 61 64 70
46 41 43 50 56 59 57 59 51 54 59 62 62 62 63 71 75 82 86 91 79 55 53 53 65 66 73 75 72 66 51 55 54 45 44 44 50 53 50 48 48 53 55 61 68 69 70 75 81
45 45 51 56 66 70 62 76 56 59 62 69 65 77 78 78 81 83 85 92 92 80 73 76 79 85 87 84 71 68 61 58 51 45 49 57 60 59 58 54 58 59 59 62 66 71 77 82 85
51 58 66 68 72 76 63 74 67 64 78 85 79 77 78 79 77 81 89 93 89 86 80 88 90 88 92 87 79 67 61 57 55 61 67 71 70 71 70 68 68 73 74 76 69 75 82 83 87
66 75 75 75 79 74 68 76 68 77 88 90 88 84 74 75 80 85 87 87 90 84 78 76 81 86 81 72 65 63 68 65 74 78 79 81 75 79 80 80 80 82 79 79 86 86 89 91 93
80 82 83 80 73 72 75 80 77 88 88 88 92 92 88 82 85 94 98 98 99 96 85 72 67 65 63 61 70 77 95 97 99 97 98 91 90 92 91 91 96 99 93 95 95 98 97 97 98
83 84 83 87 75 82 70 80 89 89 91 92 94 94 95 95 93 94 98 98 98 98 98 95 92 92 87 80 83 92 93 88 89 89 86 92 91 92 94 97 98 99 99 99 97 98 99 99 97
73 76 85 88 84 76 68 79 87 91 93 94 94 93 95 94 94 95 97 97 98 98 98 97 96 92 93 92 85 80 87 91 86 82 79 75 74 83 88 91 94 94 97 98 99 99 98 98 98
77 77 76 78 82 80 74 72 86 92 94 96 95 95 95 94 95 97 97 96 95 94 90 90 87 84 76 75 73 69 67 72 70 68 64 64 66 65 65 71 74 79 83 90 92 94 96 97 97
56 55 55 62 68 66 71 69 79 86 87 89 89 91 92 94 94 95 94 91 85 81 76 74 71 65 62 57 54 54 49 46 45 47 41 40 39 44 41 43 47 50 56 58 62 65 69 76 87

GFSSGP_prec_cthk_105.txt.gz
RH
21 23 28 27 27 21 18 17 19 21 20 22 20 20 22 22 25 41 48 35 38 43 47 49 48 46 45 45 46 46 46 46 45 47 45 44 42 36 31 29 28 28 48 59 39 42 38 31 23
24 26 29 30 28 19 17 21 23 25 24 21 20 20 22 33 38 43 42 38 40 43 45 52 54 52 47 50 53 53 48 47 45 46 50 49 46 48 34 30 28 30 47 63 47 41 31 29 24
25 29 30 28 19 19 24 23 28 25 22 22 23 22 31 40 33 33 36 40 41 44 49 55 57 56 53 52 53 57 53 50 43 43 47 48 48 48 39 35 34 31 46 60 50 32 26 24 26
31 30 31 27 21 24 24 27 28 24 23 23 23 24 27 29 28 26 29 37 44 47 50 53 57 59 54 55 60 60 58 52 46 44 45 48 50 53 48 45 48 43 52 64 52 33 26 25 27
35 35 30 26 26 27 29 29 26 25 26 25 23 25 27 27 26 26 27 33 39 45 51 51 50 52 58 59 63 66 62 57 53 52 52 56 52 51 50 55 57 52 57 62 52 40 29 27 26
31 31 28 28 27 29 28 30 28 26 27 25 24 24 28 27 25 23 24 29 39 42 45 48 48 49 49 59 57 60 63 62 61 60 59 60 60 55 55 56 62 62 59 55 54 49 30 29 28
26 18 18 18 19 20 21 22 20 22 24 25 25 24 30 28 25 24 24 26 32 44 44 49 51 50 52 53 62 63 60 62 60 60 61 62 63 59 59 63 62 66 71 68 60 59 46 34 29
20 16 15 13 13 16 18 18 16 16 17 18 16 17 19 26 21 22 24 24 29 39 47 46 51 55 60 61 59 62 70 63 60 57 60 61 61 62 55 57 62 67 70 78 73 67 58 42 36
16 15 15 17 14 18 17 17 17 15 14 15 13 12 13 13 12 15 18 20 23 29 41 48 50 53 55 60 64 66 67 70 70 68 61 61 61 56 52 52 57 59 65 72 79 74 68 56 40
15 15 16 18 18 17 19 17 17 14 14 12 12 12 12 11 11 10 12 14 17 19 26 34 44 49 53 57 62 63 67 70 73 75 77 72 67 64 66 63 59 61 61 63 71 73 73 68 50
18 19 17 18 18 17 15 14 15 15 12 12 12 12 11 11 11 10 9 10 12 15 16 24 31 37 44 52 57 57 60 63 65 72 79 79 81 79 77 73 69 70 67 65 65 68 70 70 58
20 18 18 19 19 17 15 14 12 11 11 11 11 11 11 12 12 12 11 10 10 10 11 16 25 32 36 42 47 54 59 58 61 67 70 72 71 74 83 86 81 74 68 68 70 74 73 71 68
18 19 19 19 19 16 15 14 13 12 12 11 12 12 13 13 13 13 13 13 11 11 10 11 15 25 34 37 40 45 49 57 58 56 57 67 73 77 73 77 80 84 78 79 83 85 81 78 77
21 19 17 17 16 16 16 14 15 13 14 15 16 17 17 17 17 17 17 16 16 15 13 12 12 16 25 35 41 43 48 49 57 56 53 56 60 66 71 69 75 72 81 84 79 78 83 82 85
22 19 18 18 18 18 20 18 19 17 17 20 21 20 21 21 21 20 20 21 19 18 16 15 14 13 19 27 38 46 50 53 53 57 57 55 56 59 60 70 66 73 69 68 71 84 83 82 87
25 22 24 23 22 25 25 20 23 22 26 26 26 25 24 24 24 25 26 26 25 21 20 19 17 16 16 23 34 45 50 51 51 48 51 56 61 62 61 60 60 56 68 63 60 58 65 78 83
27 38 26 28 27 29 31 28 29 30 32 31 32 33 32 32 32 33 34 34 33 30 25 23 22 20 18 22 33 46 50 51 54 52 50 51 54 61 62 58 57 58 64 63 59 55 60 59 64
36 34 31 31 34 34 35 35 33 33 33 36 37 36 36 36 38 38 38 38 37 34 32 29 25 24 21 21 31 46 54 56 51 52 51 50 49 49 54 56 55 58 63 67 57 55 53 54 49
34 34 35 35 37 41 38 35 32 32 33 37 39 40 40 38 41 46 44 44 43 41 40 41 33 28 25 21 31 42 54 56 57 57 53 52 50 49 49 49 53 51 48 53 60 60 56 52 49
45 43 46 43 43 43 37 33 33 34 36 40 44 47 44 46 47 49 50 51 52 51 48 43 48 43 33 26 34 44 54 62 64 60 56 56 51 45 45 43 41 46 47 44 44 48 53 54 55
48 48 48 51 44 40 43 36 37 37 43 47 50 55 56 57 54 56 56 60 64 66 61 58 54 55 50 44 49 50 53 64 66 67 56 53 50 47 42 39 40 40 47 46 42 45 52 61 65
54 44 42 44 47 49 44 51 42 45 47 54 59 62 66 64 65 64 64 69 74 80 79 70 66 63 57 56 59 70 63 79 74 71 62 55 51 49 46 42 40 40 43 47 47 50 59 62 72
49 42 43 46 51 58 53 65 51 51 52 60 67 74 73 67 64 66 68 72 80 85 87 87 87 77 69 73 75 81 91 93 84 78 69 57 57 49 44 47 49 50 53 54 58 63 68 70 78
43 47 50 57 62 66 57 62 54 59 64 70 74 80 78 70 62 67 72 78 84 87 86 82 92 95 97 96 93 87 88 91 87 77 66 65 59 51 57 61 61 65 66 63 71 75 78 79 75
52 61 73 73 74 70 62 64 58 65 78 81 78 78 79 74 69 72 83 90 91 96 85 82 85 91 93 92 92 96 93 88 86 74 70 66 70 68 74 80 76 77 77 77 78 79 84 85 83
69 75 76 74 71 68 65 73 67 75 80 82 82 81 80 80 82 82 85 93 96 98 97 83 77 78 81 82 80 82 80 78 66 69 85 83 91 87 87 82 94 88 87 89 91 92 93 91 92
77 80 74 80 66 79 66 67 75 78 82 82 81 82 81 81 83 86 88 91 92 96 97 98 95 89 81 75 69 67 68 72 85 93 89 82 83 86 90 85 83 89 88 96 98 99 99 97 95
66 70 81 85 83 77 69 68 74 80 84 84 83 83 83 84 86 90 92 91 92 94 96 94 92 91 93 95 88 84 86 90 90 86 79 74 77 79 73 73 75 81 92 92 95 96 97 96 98
69 70 70 69 71 78 65 66 65 73 77 78 77 78 79 81 84 89 90 92 94 92 87 83 78 77 71 69 69 69 66 65 66 66 64 62 60 58 59 60 57 61 67 69 78 85 93 92 93
52 51 48 56 60 54 55 53 53 59 65 69 72 76 79 80 83 84 80 74 70 67 63 64 60 46 47 49 50 51 53 49 46 44 43 44 41 34 32 33 40 40 40 49 50 52 54 64 66

GFSSGP_prec_cthk_108.txt.gz
RH
18 20 25 27 29 25 23 19 20 21 20 21 21 21 22 33 41 50 52 42 39 40 40 43 47 45 45 44 47 47 44 46 46 47 49 49 46 45 35 28 25 26 41 58 49 43 41 30 23
22 26 30 31 33 27 22 24 24 24 23 21 18 20 23 37 37 42 44 37 39 41 43 44 47 50 53 51 48 53 51 49 46 46 47 52 52 45 41 33 29 27 49 66 61 48 36 30 25
24 32 33 34 25 26 31 26 31 26 23 21 21 21 29 36 35 32 31 38 40 43 45 44 49 53 54 56 55 56 58 56 51 48 44 46 50 49 44 39 35 32 45 58 60 43 31 25 25
30 32 32 32 26 26 28 32 29 27 22 21 23 25 27 32 31 26 27 33 41 44 47 51 53 54 55 53 54 56 59 58 57 48 45 44 43 50 50 44 43 39 42 54 61 48 30 27 24
32 31 31 25 26 29 30 27 26 27 26 24 23 25 28 28 25 24 24 26 35 43 46 49 53 55 55 52 55 60 62 64 62 56 53 50 48 50 50 49 53 53 51 58 64 55 32 28 27
37 35 34 32 28 30 29 28 26 26 26 24 24 24 29 27 25 24 23 23 28 37 44 46 48 50 53 52 57 59 62 61 61 60 58 57 57 57 55 52 54 56 58 62 60 54 46 31 28
38 33 32 29 33 29 29 26 24 26 26 25 25 24 32 30 24 23 24 23 24 30 40 44 46 44 48 49 47 52 58 62 62 58 58 58 59 60 61 59 57 61 63 67 68 62 59 43 36
27 24 22 24 25 28 25 22 21 20 20 19 19 20 24 24 22 20 20 22 22 24 31 44 48 48 49 48 55 54 54 55 60 67 66 62 56 57 59 54 55 56 63 66 70 70 68 62 45
21 21 19 19 17 22 18 17 15 14 14 13 12 12 13 14 13 11 10 12 15 18 21 31 44 47 50 54 57 59 60 59 59 62 66 68 65 62 54 50 51 51 56 62 67 72 73 70 62
16 19 25 22 20 20 18 16 15 12 12 12 13 12 13 11 10 9 9 9 9 11 13 17 24 39 44 49 53 57 61 61 62 60 66 68 70 70 69 64 59 56 55 56 60 65 68 72 69
16 23 21 21 18 17 15 14 14 13 13 13 12 11 10 10 10 10 9 9 9 8 8 11 13 18 29 38 44 47 56 63 64 65 66 62 65 69 75 75 71 69 68 66 65 64 66 67 67
20 19 19 19 18 16 15 14 12 11 11 11 10 10 10 10 10 10 10 10 9 9 9 8 9 12 16 24 33 40 47 52 54 61 62 62 61 62 68 69 72 79 77 72 65 65 67 70 72
18 20 18 18 17 15 14 13 12 10 10 10 10 11 12 13 13 14 15 14 13 12 11 11 10 9 12 16 23 33 40 47 50 52 57 56 59 67 61 74 69 70 83 79 82 81 83 83 82
19 20 18 16 15 14 13 12 12 11 11 13 15 16 17 17 17 17 18 17 16 16 15 13 13 13 11 13 19 26 37 44 46 50 51 55 57 56 55 53 66 69 79 81 81 82 83 84 83
19 18 18 17 15 15 14 15 17 15 15 16 19 20 20 21 20 20 21 22 24 22 19 17 17 16 15 13 14 22 31 44 47 49 50 50 53 55 50 47 50 54 59 67 76 74 79 84 92
20 18 21 20 19 19 19 18 20 19 22 23 24 27 26 27 29 30 31 31 31 28 26 25 22 20 19 17 14 16 23 41 48 53 54 59 56 56 52 50 51 55 56 53 52 58 61 66 73
24 38 25 28 25 24 26 25 24 25 26 28 30 33 33 34 35 36 36 34 31 31 29 27 27 26 23 20 19 17 20 32 48 54 57 60 63 56 50 53 56 55 55 55 53 50 54 56 59
37 32 30 28 32 31 31 30 27 29 30 32 33 36 36 36 37 38 35 34 32 33 32 31 32 32 30 26 22 19 21 32 43 58 65 63 64 58 56 54 53 53 51 50 52 53 51 52 52
36 32 34 33 33 36 36 36 33 33 34 37 36 38 39 38 37 37 37 38 37 37 36 35 35 35 40 37 29 25 22 28 41 62 72 70 73 69 66 55 55 54 50 48 44 43 42 43 42
36 38 43 44 44 45 44 42 37 34 36 36 37 40 42 44 48 46 44 41 44 45 45 44 41 40 45 48 42 33 31 30 34 50 65 73 72 70 71 62 54 50 46 42 40 38 37 39 44
48 49 51 54 49 47 48 42 36 35 36 39 41 44 51 53 53 51 48 48 49 52 53 54 57 57 55 49 57 56 45 47 52 53 59 82 80 74 77 66 59 49 46 41 39 41 39 37 41
54 50 49 52 55 58 43 55 39 39 41 43 48 53 58 59 57 53 50 49 51 54 61 65 71 75 65 54 61 69 70 71 79 93 89 94 88 77 74 65 53 49 47 43 44 45 44 52 49
63 55 53 52 47 50 46 58 47 44 48 51 57 63 63 59 59 52 53 57 63 67 70 71 71 77 85 81 81 77 82 87 92 96 91 93 88 84 82 63 55 50 46 44 48 49 51 54 62
53 49 49 48 52 60 54 59 53 54 56 60 64 67 66 62 61 63 60 65 72 79 82 78 72 80 87 89 93 95 96 92 91 85 89 85 82 76 72 72 62 58 51 57 56 57 57 61 63
48 54 62 68 70 69 57 60 57 57 63 67 70 72 72 68 68 71 72 74 77 84 86 86 77 75 80 88 92 95 95 93 88 92 94 88 83 79 76 70 69 62 62 71 75 71 68 73 75
59 64 74 67 70 69 60 69 60 65 68 72 73 72 69 69 70 72 76 79 83 84 84 86 87 83 79 82 81 81 82 85 88 85 80 75 70 64 64 66 69 78 81 82 93 93 82 83 88
69 76 70 74 64 74 68 65 68 69 69 70 70 71 71 70 73 76 79 81 82 86 87 85 88 95 96 93 83 71 68 67 64 68 69 77 88 87 85 86 85 80 78 74 87 93 89 97 94
68 67 80 81 83 79 70 67 71 68 67 69 70 69 70 71 74 77 80 83 83 82 81 81 81 79 77 80 84 85 85 83 85 84 86 86 79 73 71 72 71 68 67 65 68 77 87 93 97
70 67 67 66 68 71 70 68 56 52 57 60 62 63 65 66 70 69 66 66 65 64 55 57 61 51 40 51 57 59 62 61 58 61 63 63 63 63 58 53 50 47 48 50 51 52 61 66 76
52 51 53 60 65 60 55 50 47 40 40 43 48 49 52 52 51 52 47 43 41 39 35 31 28 25 22 21 20 19 19 23 32 24 19 19 17 17 16 14 13 11 11 19 25 32 28 37 41

GFSSGP_prec_cthk_111.txt.gz
RH
15 19 20 20 22 26 25 20 21 21 21 21 21 23 31 33 41 48 47 49 44 44 41 42 46 44 43 44 44 44 47 48 46 46 50 48 45 45 42 33 27 27 35 48 53 51 44 27 23
17 21 23 26 33 26 24 26 26 23 22 21 20 22 27 32 38 41 46 44 39 43 40 45 48 48 48 49 52 50 47 49 49 47 48 49 50 49 46 35 31 28 51 62 61 59 42 29 24
22 26 29 32 30 30 33 30 26 24 24 21 19 24 31 33 34 37 35 36 37 40 41 43 48 52 55 58 53 54 57 53 54 53 47 46 42 46 51 43 36 32 40 51 63 61 41 32 25
29 30 32 33 30 29 33 31 28 26 24 22 21 25 27 31 35 30 30 30 37 40 43 46 48 51 55 58 59 56 58 60 57 54 52 47 43 41 44 42 41 38 38 47 57 54 39 30 27
29 31 31 27 29 33 31 30 29 28 25 22 22 26 26 28 27 24 23 24 27 39 45 47 49 52 55 55 55 55 56 63 64 60 58 55 52 49 48 48 49 47 43 47 58 59 50 34 29
31 30 33 31 31 32 30 28 27 25 24 23 24 25 29 28 26 24 23 22 22 27 41 47 46 49 52 55 53 54 59 63 62 62 60 59 58 58 56 53 53 54 53 52 55 59 56 41 34
35 32 31 29 32 30 30 28 28 25 24 24 24 26 29 29 26 23 22 23 22 23 27 39 45 47 49 50 51 50 57 58 59 59 60 62 61 60 59 57 55 56 58 58 60 61 60 59 46
32 31 30 27 31 36 31 29 27 26 26 25 24 24 31 23 21 21 21 19 21 22 24 27 38 45 46 47 49 50 49 49 58 64 61 60 64 66 63 59 54 53 55 57 60 63 63 62 61
27 29 31 33 31 33 31 26 23 22 19 17 16 15 15 14 13 12 11 9 10 12 15 18 23 34 44 48 51 52 53 56 56 61 60 58 61 63 64 65 61 54 49 51 56 59 64 65 66
22 28 28 29 27 27 20 16 15 12 12 11 11 11 11 10 10 9 8 8 8 8 8 10 12 16 23 35 43 46 53 59 59 57 57 59 64 66 65 66 66 67 62 59 55 55 59 64 64
19 24 24 25 22 18 14 12 13 13 13 12 11 11 10 10 9 8 8 9 9 8 8 7 7 9 12 16 27 37 41 44 50 56 60 62 63 64 64 63 64 71 70 70 67 65 64 64 67
18 20 21 22 17 13 14 13 12 12 11 11 11 10 9 9 10 11 12 12 12 11 11 10 9 9 9 10 14 22 31 38 41 47 53 61 68 72 63 62 64 64 69 72 72 70 67 65 66
18 18 16 17 14 13 13 12 12 10 10 10 11 13 14 15 15 15 16 16 15 15 14 13 12 11 11 10 10 12 18 30 37 41 45 49 52 55 55 58 59 68 69 69 70 72 79 80 81
18 19 17 16 14 13 13 13 12 10 11 12 14 16 17 18 18 18 19 20 20 20 19 18 17 15 14 13 11 10 13 19 32 40 41 47 47 48 51 52 53 66 70 69 71 75 76 79 84
20 17 17 16 15 14 13 14 15 13 14 16 18 19 20 22 25 27 27 27 25 24 22 20 20 18 17 16 15 13 11 13 21 36 43 47 50 50 49 55 55 58 53 56 61 73 69 78 83
20 18 21 18 17 17 16 12 16 17 19 20 21 23 24 29 30 30 31 30 28 25 23 22 22 22 22 21 19 18 16 13 15 24 44 48 53 58 63 53 54 54 53 52 52 53 57 54 55
21 33 20 21 20 21 21 20 20 21 23 24 27 29 30 32 33 34 34 33 29 28 27 25 25 24 23 24 24 22 21 18 17 20 34 48 57 64 71 65 63 61 54 54 53 54 52 49 52
29 28 26 24 27 27 29 27 25 24 28 29 32 35 35 35 35 33 31 29 29 29 30 29 29 29 26 25 27 27 25 22 21 22 29 46 58 70 74 76 68 70 68 58 56 53 51 49 48
31 31 32 30 32 33 32 33 30 30 33 37 38 38 37 35 35 34 33 34 34 33 31 32 34 34 32 29 31 32 32 30 24 25 31 41 61 72 80 82 79 78 73 70 65 56 52 49 48
32 33 38 39 38 37 38 41 39 39 39 38 37 36 35 36 38 39 39 38 40 38 36 36 38 39 40 39 40 42 43 41 40 33 37 49 70 73 85 87 88 88 84 79 73 57 46 44 41
38 39 45 49 46 47 47 45 40 38 35 34 35 37 40 43 45 47 47 43 42 39 39 43 47 48 49 51 49 46 46 48 57 52 61 60 67 79 98 97 95 92 87 82 69 60 50 43 39
50 50 51 52 54 59 49 52 39 34 36 40 43 46 49 52 52 51 47 44 44 48 53 59 59 54 57 62 62 52 52 68 68 58 69 83 81 85 88 90 89 85 83 74 65 62 55 49 40
58 53 53 54 56 56 47 55 40 40 43 48 53 55 58 58 57 53 51 50 54 55 59 65 66 63 60 68 72 72 73 77 75 92 94 98 94 95 95 92 86 88 83 74 71 65 56 48 45
56 57 57 52 49 57 50 55 50 49 47 54 59 62 63 62 61 58 57 59 60 60 63 69 70 69 67 72 70 76 85 87 94 96 96 94 97 98 98 98 95 88 85 81 75 69 60 55 52
54 52 58 60 67 62 54 60 51 50 57 59 62 64 64 62 59 59 61 63 64 68 68 71 72 73 75 73 69 72 81 83 86 88 87 85 81 80 80 81 80 76 72 70 66 67 66 62 66
52 52 62 66 71 67 57 61 52 59 62 62 61 61 62 62 62 61 63 67 69 70 71 71 75 79 83 82 83 74 69 70 70 73 77 76 72 71 68 69 68 66 63 56 56 52 64 73 77
61 64 64 71 65 71 64 59 61 61 61 60 60 61 60 60 62 62 64 67 68 71 72 70 66 62 69 83 84 82 78 79 74 71 68 60 69 71 79 87 84 85 81 79 81 74 67 64 71
64 63 71 76 76 69 67 65 65 56 50 54 55 55 54 54 56 57 54 54 55 53 46 40 39 35 30 29 36 47 59 60 64 68 72 77 73 73 76 73 69 63 62 59 57 56 53 55 53
64 64 63 60 65 68 70 58 52 41 35 35 38 39 39 41 41 42 43 42 40 34 29 26 25 23 22 21 20 20 20 20 25 33 24 26 31 33 29 24 30 26 17 15 14 12 19 24 38
53 50 50 59 61 58 58 45 35 37 33 31 30 32 33 34 35 36 37 35 33 33 31 29 28 27 25 23 22 22 22 21 21 20 18 17 15 14 13 13 13 13 13 13 13 13 13 12 12

GFSSGP_prec_cthk_117.txt.gz
RH
16 17 16 14 15 20 19 19 22 21 21 28 28 30 34 38 39 38 42 42 43 43 47 47 46 48 48 51 51 49 51 52 52 51 50 53 53 50 49 43 34 33 36 40 60 62 52 36 26
18 18 17 17 19 19 22 22 23 22 23 24 26 28 29 35 38 40 44 41 39 38 40 44 46 48 48 48 49 50 50 50 51 50 50 51 51 50 47 44 41 38 40 47 58 57 55 44 34
20 19 19 20 26 22 25 23 22 22 22 23 27 28 29 33 34 36 33 32 34 37 40 43 46 51 56 51 47 51 56 57 55 53 53 53 55 53 53 51 37 37 38 50 63 63 60 46 39
22 20 22 24 24 24 25 23 22 23 23 24 26 29 30 31 28 29 28 28 30 37 40 41 44 56 58 56 51 51 54 57 58 57 58 56 54 55 52 52 47 40 37 42 51 59 62 44 39
23 21 24 27 27 26 24 24 24 24 24 26 26 28 29 28 27 26 26 24 23 31 37 41 42 48 54 57 55 55 56 57 58 60 59 61 57 58 59 58 59 54 49 46 48 55 61 56 42
24 22 25 29 29 26 26 25 25 26 26 27 28 28 28 26 24 23 22 21 20 21 27 33 38 42 49 49 56 58 57 57 58 58 59 59 62 62 62 63 61 60 60 57 53 57 63 66 56
25 24 26 30 30 29 28 28 28 27 26 25 25 29 27 25 24 23 22 20 20 19 22 24 33 39 41 45 46 50 54 58 57 59 60 64 63 64 65 66 65 65 63 61 61 60 63 67 64
24 25 25 30 32 31 29 28 27 26 26 24 23 28 28 25 23 22 21 20 19 17 17 19 23 26 35 38 43 46 48 49 51 53 53 55 58 58 60 64 66 65 65 63 61 63 64 68 68
26 29 30 31 32 31 30 28 28 26 24 23 22 23 23 22 20 19 18 16 14 12 11 10 10 13 16 22 30 37 41 44 46 48 49 49 50 51 51 58 62 63 67 66 61 59 61 65 72
28 32 30 31 31 30 29 28 27 26 25 24 22 21 18 16 15 13 12 11 10 9 9 9 8 8 8 10 12 17 29 36 40 43 46 49 50 52 54 57 58 59 63 65 62 59 58 62 64
31 33 33 34 32 32 31 28 25 22 22 20 18 16 14 14 13 11 11 10 10 10 10 10 9 9 8 7 7 9 11 18 30 36 41 42 45 48 50 52 55 59 64 65 65 63 62 64 66
35 35 35 35 34 30 27 24 21 18 16 14 13 11 11 11 10 10 10 11 11 12 12 12 12 12 11 10 9 8 8 9 12 22 32 36 40 44 45 47 51 55 60 62 65 68 67 67 68
34 33 33 32 28 24 22 18 15 12 11 11 10 11 11 11 12 12 13 13 14 14 15 15 14 13 12 12 12 12 11 10 9 10 16 28 31 35 41 45 48 52 57 62 70 67 68 65 71
28 28 27 25 22 19 15 14 12 10 9 9 11 12 13 14 15 16 17 17 18 18 18 17 16 16 15 14 14 13 13 13 13 12 10 12 24 29 33 37 43 50 51 54 61 63 62 63 67
23 23 21 19 17 16 14 12 12 9 10 12 15 16 16 17 19 20 20 21 21 21 20 19 18 18 18 17 17 17 17 17 17 16 15 13 13 24 28 35 41 44 48 49 52 57 56 59 67
21 20 18 18 16 17 14 9 12 12 13 15 17 19 21 22 23 23 25 26 25 23 22 22 23 23 22 22 21 21 20 19 20 21 22 20 17 15 25 31 41 47 57 56 52 52 54 62 76
24 25 20 20 18 18 16 12 14 13 15 17 18 21 24 26 27 28 30 29 28 29 29 29 29 28 26 23 22 22 22 22 21 22 23 24 21 19 19 28 34 53 57 67 70 66 70 63 72
25 31 23 22 21 20 20 19 17 16 16 18 19 24 28 30 32 35 36 35 36 34 32 31 30 28 26 24 25 26 27 26 27 28 28 27 27 24 24 26 35 38 60 68 78 82 85 88 87
25 26 24 24 23 23 22 22 19 18 19 20 22 27 32 35 39 41 39 38 37 34 33 31 28 28 29 31 34 35 34 32 34 37 36 37 39 36 31 33 33 41 64 72 84 87 89 91 93
24 24 27 27 26 27 27 26 22 22 24 25 27 31 36 40 42 39 38 38 37 35 34 32 31 32 34 39 42 39 39 41 42 41 40 40 42 45 46 41 44 44 51 61 81 86 88 98 96
31 30 31 30 31 32 33 25 28 30 32 33 34 37 39 39 39 39 40 40 40 39 34 34 36 38 41 46 45 45 46 48 45 46 53 56 54 53 55 55 56 58 59 59 73 89 98 91 98
33 33 34 35 36 34 37 36 29 35 39 38 39 40 40 40 40 42 44 45 44 43 40 40 42 46 49 49 48 50 49 53 53 54 63 69 76 76 74 70 64 63 74 82 75 74 88 89 94
38 38 39 40 44 45 43 51 39 40 38 38 39 40 41 42 46 48 47 46 45 45 44 46 49 51 52 52 49 53 54 55 53 58 65 74 77 83 84 80 83 80 75 86 99 94 88 93 92
42 44 46 51 52 54 49 56 45 39 35 34 38 40 44 48 48 47 46 45 47 48 50 50 51 52 53 49 53 57 58 58 55 56 59 63 72 74 76 83 82 84 78 70 76 76 85 79 81
50 54 57 50 62 53 55 57 40 31 33 35 39 44 47 48 47 47 47 49 51 52 52 51 52 50 43 42 39 43 51 55 58 62 64 63 64 63 65 67 69 76 80 78 71 68 67 68 67
59 56 57 40 65 61 53 54 35 32 37 38 43 45 46 45 44 42 43 44 46 47 42 36 32 30 25 21 20 21 21 25 31 40 47 54 60 72 71 68 72 67 68 67 63 58 55 60 59
60 60 54 56 55 61 51 39 31 35 41 42 43 43 39 37 34 33 34 37 40 39 31 22 18 17 16 16 16 16 17 17 18 18 20 19 17 17 18 22 26 34 39 44 50 47 44 46 45
51 49 52 54 60 62 51 48 47 45 40 35 33 30 28 28 27 27 27 29 29 28 26 21 19 18 18 18 19 20 20 21 21 22 23 22 21 19 17 16 15 14 14 13 13 13 13 13 13
52 54 53 56 57 61 57 40 37 38 35 30 24 21 21 22 22 24 25 26 27 27 27 23 23 23 23 24 24 24 26 29 30 30 29 28 27 25 24 24 25 26 26 26 26 25 25 24 23
51 54 52 56 52 56 56 44 23 31 28 24 19 19 19 20 22 24 26 26 27 28 27 28 27 27 27 28 29 30 34 36 35 31 27 25 23 22 23 22 21 21 21 22 23 23 23 23 23

GFSSGP_prec_cthk_120.txt.gz
RH
15 15 14 13 12 17 19 19 20 21 28 31 29 31 35 38 37 36 44 40 42 42 45 47 48 49 47 48 50 50 52 54 52 52 54 51 51 51 50 48 41 36 37 39 66 71 56 39 35
17 16 15 15 17 17 21 21 21 21 27 28 29 32 33 37 38 42 42 39 39 39 39 40 44 51 50 47 47 49 49 53 54 51 51 51 52 52 49 46 38 35 38 43 68 70 64 52 41
18 17 16 18 20 17 24 22 21 22 24 22 28 29 31 34 36 38 31 33 35 37 37 37 43 47 51 51 52 48 49 53 56 56 57 57 55 57 57 56 50 41 34 37 52 71 75 64 47
21 18 19 21 22 23 23 22 21 21 21 24 27 29 30 31 29 28 27 26 31 38 39 39 39 47 57 60 63 57 50 49 55 58 57 58 60 58 59 59 57 51 46 41 44 52 59 60 45
22 20 24 27 26 24 22 22 22 21 22 25 26 29 28 28 27 26 24 22 23 29 33 36 38 38 41 48 52 55 58 59 55 54 58 61 61 58 58 59 61 61 58 53 51 53 55 59 58
22 20 26 31 28 24 23 23 22 23 23 25 27 28 29 27 26 24 23 21 20 19 21 29 32 36 39 43 48 51 55 59 61 59 57 57 57 57 59 60 62 62 62 59 59 56 59 62 66
23 23 25 30 28 25 24 24 24 24 25 26 28 29 27 26 25 23 21 20 19 19 18 20 25 32 34 37 42 45 48 51 54 56 59 59 60 60 60 60 61 63 64 63 62 62 61 62 70
21 21 26 27 28 27 25 25 25 26 26 26 26 28 27 25 23 21 20 20 19 18 17 17 17 20 24 31 32 36 42 47 48 49 51 52 53 54 53 55 57 58 62 64 64 63 62 63 65
21 24 29 28 28 26 26 26 27 26 25 24 24 25 23 22 21 19 19 18 16 14 12 10 10 9 9 12 16 23 27 32 37 41 44 45 46 47 48 49 50 50 53 60 62 63 63 62 63
25 27 27 28 28 28 27 27 26 26 25 24 22 22 21 20 19 17 15 13 11 11 11 11 10 9 8 8 7 9 11 18 24 29 35 38 41 43 45 46 50 51 53 56 58 63 63 60 58
29 30 30 30 30 29 29 27 25 24 24 23 22 21 19 17 16 14 13 12 11 11 11 10 10 11 10 9 8 7 7 8 10 17 24 31 34 38 42 46 47 48 51 54 58 61 62 62 59
32 32 30 31 30 28 27 26 24 23 21 20 19 18 17 15 13 12 12 12 13 13 13 13 12 11 11 11 10 10 9 9 8 8 10 17 24 28 34 39 43 47 49 50 54 59 60 62 68
34 34 33 31 30 29 27 26 24 22 19 16 15 14 13 11 11 12 14 15 15 15 15 14 13 12 12 12 12 12 12 12 11 11 11 10 11 19 22 26 34 40 45 47 52 61 66 66 69
37 36 35 33 31 29 27 25 22 16 13 12 11 11 11 13 14 15 17 17 18 17 16 15 14 14 15 15 15 15 15 15 15 15 15 14 14 13 15 25 23 29 36 42 47 52 62 64 72
35 36 34 32 29 28 24 19 16 12 11 10 11 12 14 16 17 18 19 20 20 19 17 18 18 18 19 19 19 18 18 18 18 18 18 20 20 18 16 14 23 31 30 37 42 46 50 53 61
32 31 28 28 25 23 16 11 12 10 10 11 13 15 17 18 20 21 22 22 22 21 22 23 24 25 25 24 24 22 19 18 18 18 18 19 20 21 20 18 17 20 30 35 48 49 51 50 49
28 28 25 23 21 20 17 11 12 12 11 13 15 17 19 21 22 22 24 25 25 26 28 29 28 28 28 25 23 21 23 24 25 24 25 23 24 25 25 24 22 22 23 30 41 55 62 65 65
25 28 23 22 21 20 19 18 15 13 13 14 16 17 21 24 25 26 29 30 30 32 32 31 30 29 25 25 26 27 28 29 27 27 28 29 29 30 32 32 30 27 26 33 36 58 61 78 78
26 24 24 25 23 23 21 20 16 15 16 16 16 18 22 26 28 31 33 34 35 35 34 32 31 28 28 28 30 31 34 36 35 33 34 34 34 33 33 35 41 42 42 38 43 46 79 72 83
28 28 31 29 25 25 25 24 17 17 17 18 19 20 22 28 33 37 38 38 38 37 36 34 33 31 33 34 36 39 40 40 40 40 41 41 42 42 45 53 51 52 53 56 48 50 56 76 85
33 30 29 27 27 27 27 19 18 22 24 25 25 26 29 34 38 39 40 39 39 39 39 38 37 37 37 40 43 43 42 42 45 45 45 48 50 51 56 61 65 63 58 61 65 58 55 66 85
29 31 31 30 28 27 30 30 20 25 29 31 32 33 35 37 40 40 41 42 42 42 41 40 40 41 43 44 44 43 40 45 46 45 44 51 55 54 59 65 70 72 70 68 65 71 72 63 66
33 32 33 34 38 38 36 42 27 32 33 33 35 35 36 39 40 42 43 43 42 41 41 42 43 45 45 46 43 43 40 42 44 43 43 46 48 53 56 58 63 68 73 80 80 73 83 77 71
35 37 38 42 43 44 39 47 39 35 34 31 34 35 37 39 42 44 44 44 44 44 45 45 45 44 42 38 35 34 34 36 40 43 45 49 48 53 58 60 59 62 64 70 77 75 66 68 68
39 43 45 41 51 48 52 58 42 31 30 31 33 34 36 41 43 43 42 40 41 42 44 43 42 37 31 27 23 18 17 17 20 23 26 31 33 30 30 32 43 49 59 64 69 72 72 70 67
50 48 50 33 55 61 57 57 36 30 31 32 33 36 39 42 41 38 33 32 34 36 34 29 24 22 18 14 12 13 13 14 15 16 18 19 20 20 20 19 17 15 15 17 19 22 31 34 30
58 58 56 61 63 62 49 38 29 28 32 35 36 37 36 34 31 29 28 27 29 28 27 21 16 14 14 14 15 16 16 17 18 20 22 24 24 22 22 23 23 23 23 24 23 22 20 18 17
58 58 59 57 53 55 48 43 39 36 37 38 35 31 26 23 22 22 23 23 25 26 24 21 17 16 17 18 18 19 20 22 24 27 29 29 25 23 22 21 21 21 20 20 20 20 21 21 21
60 56 52 53 54 57 53 33 31 37 36 32 28 22 18 17 17 19 20 22 24 24 24 23 20 21 22 22 23 24 25 28 30 32 31 27 23 21 20 22 23 23 22 23 25 26 26 25 25
47 50 51 55 50 56 56 44 25 30 29 26 19 16 17 18 19 20 21 24 24 25 25 25 24 24 24 24 26 29 31 33 35 34 27 24 21 19 22 23 22 22 25 27 27 27 25 24 23

GFSSGP_prec_cthk_123.txt.gz
RH
10 11 13 12 12 14 18 18 19 21 28 29 27 31 35 38 36 35 44 42 43 42 44 43 46 48 51 50 46 48 48 51 54 55 58 51 50 50 47 45 42 37 38 40 61 72 62 49 39
15 14 14 13 15 15 17 19 21 22 30 29 30 32 34 38 38 41 39 39 40 40 38 41 46 48 49 52 48 47 49 48 51 56 53 52 51 51 52 51 47 41 33 37 53 67 68 64 51
17 16 14 15 16 14 19 21 21 25 25 26 29 31 34 36 37 36 32 37 40 38 38 38 42 47 47 47 47 46 52 48 48 51 53 53 54 55 55 55 55 47 43 38 41 54 67 74 65
20 17 16 16 18 20 22 21 22 24 23 25 27 28 30 31 31 28 26 27 36 38 38 38 39 42 47 50 58 53 54 49 52 52 52 53 54 55 56 56 56 58 53 49 46 48 56 60 54
19 18 21 23 24 23 21 21 21 21 23 25 25 27 27 27 27 26 24 23 23 28 33 32 36 37 37 40 42 46 50 52 56 55 55 58 62 61 58 54 53 56 59 58 55 53 56 58 59
20 17 22 26 25 22 22 22 21 22 23 24 25 26 27 28 27 25 23 22 20 19 19 24 29 31 34 36 39 43 47 49 52 55 57 58 57 57 59 58 58 59 58 59 59 58 56 57 59
21 19 23 26 25 23 22 22 22 22 22 23 26 26 27 27 25 23 22 20 19 18 17 17 18 24 29 31 31 35 40 44 47 48 50 51 52 54 56 57 59 60 62 63 64 63 62 62 61
20 20 26 26 25 25 23 22 23 23 23 24 26 26 26 25 24 22 20 19 18 17 16 16 16 15 17 21 26 28 30 30 37 43 45 46 47 49 51 51 51 50 51 55 59 61 62 63 64
20 23 28 27 26 24 23 23 23 23 24 23 25 25 24 23 22 20 19 18 17 16 14 12 10 9 9 9 9 11 14 19 22 23 30 35 38 40 41 43 45 47 47 48 49 52 55 61 62
21 23 25 24 24 24 24 24 24 24 24 23 23 22 21 21 20 19 18 16 14 13 11 11 11 10 10 9 8 7 6 7 9 14 19 21 24 32 34 37 40 41 42 43 46 49 54 59 62
24 23 25 25 25 25 25 25 25 25 25 23 22 22 21 19 18 17 15 14 13 12 13 12 11 10 9 9 8 8 8 8 7 7 8 13 17 18 21 28 33 37 42 42 44 46 50 56 60
30 28 26 27 26 26 26 26 25 24 23 22 22 21 19 18 17 15 14 13 14 14 13 12 12 11 10 10 10 10 10 9 9 10 9 9 9 13 20 22 21 29 35 39 44 46 49 52 56
32 32 30 30 30 29 28 27 24 23 21 21 20 19 18 16 14 14 15 15 15 15 14 13 12 12 12 12 12 13 13 13 13 13 13 13 12 12 12 13 22 27 26 29 36 41 45 49 54
32 31 31 30 30 29 27 26 24 22 21 20 18 17 15 14 14 14 15 16 16 16 15 15 15 15 15 15 15 16 16 16 16 16 16 16 16 17 16 15 14 14 20 29 27 37 42 46 51
31 32 31 32 30 29 27 25 24 23 20 17 13 13 13 14 15 16 16 17 18 18 18 18 19 19 19 20 21 21 21 20 19 17 17 17 17 17 17 18 17 16 15 15 24 29 28 49 51
33 32 32 33 31 31 27 24 24 20 16 12 11 12 14 15 16 17 18 19 20 21 21 22 23 23 24 25 25 23 21 19 20 21 22 22 21 21 22 22 21 21 20 19 18 27 30 28 46
35 36 32 34 33 31 26 20 17 15 12 11 12 13 15 16 17 19 20 22 23 24 24 26 26 26 27 26 25 23 22 23 24 24 23 24 24 24 25 23 23 23 23 25 26 29 34 35 46
34 35 33 30 29 26 23 18 14 13 12 11 12 13 15 17 19 21 23 25 27 28 29 30 29 28 28 26 25 25 26 27 28 26 26 28 30 30 28 30 29 29 30 35 38 36 39 43 44
32 27 28 28 26 24 20 20 15 12 13 12 12 13 15 18 21 24 26 29 32 33 32 32 30 28 28 27 27 29 31 34 34 31 32 35 34 33 35 36 36 37 42 44 44 49 46 48 52
27 27 31 28 26 25 24 21 14 14 13 12 13 14 16 18 22 26 30 34 35 34 33 33 33 32 30 30 33 36 38 38 35 38 39 38 38 39 40 41 41 42 45 45 53 56 53 48 49
35 29 29 27 27 26 25 16 12 14 15 16 17 19 20 22 26 31 35 36 36 36 36 35 35 34 33 34 38 40 40 38 37 38 38 37 37 40 42 44 46 49 53 55 56 60 60 61 64
34 33 32 29 24 22 26 24 15 16 20 24 24 25 27 28 31 34 36 37 37 37 36 34 35 35 36 39 40 40 35 34 33 35 37 38 39 39 39 42 44 45 48 55 58 62 66 67 69
37 33 31 30 31 29 28 33 19 24 24 24 28 29 30 32 34 36 38 38 38 38 39 38 39 40 39 39 37 31 33 31 31 31 31 33 38 41 40 35 37 42 45 48 55 58 66 65 63
32 31 31 33 34 35 35 36 27 25 28 29 29 30 32 33 36 37 38 38 38 37 38 39 39 39 36 31 25 24 23 21 21 21 22 24 24 25 26 24 22 21 21 27 30 36 44 61 65
33 33 38 38 43 39 44 49 31 30 31 30 30 30 32 34 35 37 38 37 34 32 33 34 34 32 28 22 16 12 11 11 12 14 15 15 17 19 20 19 19 20 20 20 20 20 20 19 20
39 35 41 34 37 48 52 53 34 30 30 28 29 31 32 34 35 37 34 30 28 28 28 27 25 21 16 13 11 12 12 13 15 16 17 19 21 23 23 19 17 17 17 18 18 17 17 18 19
46 49 46 54 61 62 47 39 27 29 28 30 31 31 32 31 31 28 24 23 22 23 23 20 16 14 13 13 13 14 15 16 18 20 21 23 25 25 21 17 17 19 20 20 20 20 21 22 23
50 52 54 56 52 51 44 40 39 31 32 33 33 31 27 25 22 19 18 19 20 22 23 19 16 15 15 16 16 17 18 19 22 25 28 29 26 20 17 16 18 20 20 21 23 25 26 25 25
60 61 57 55 52 50 47 29 26 30 31 33 31 26 18 16 15 16 17 18 19 21 21 20 19 18 17 18 18 20 21 24 30 34 34 27 22 20 17 17 19 21 23 26 27 29 30 29 26
56 54 48 46 48 52 51 37 22 26 30 28 22 17 17 17 17 17 18 19 19 20 21 20 21 21 21 22 22 24 25 29 35 34 31 28 24 21 19 19 21 24 27 29 31 34 35 33 29

GFSSGP_prec_cthk_126.txt.gz
RH
7 7 9 10 11 11 13 14 16 19 24 26 31 31 33 35 34 40 41 41 41 42 41 44 48 48 49 53 50 48 47 48 49 54 57 53 50 49 49 47 44 38 35 37 51 69 66 62 47
9 11 11 11 12 11 13 16 18 23 27 27 29 31 33 35 37 37 37 38 39 40 38 40 43 48 47 47 47 46 47 49 48 50 53 52 50 52 53 53 53 48 41 39 40 53 65 66 66
12 12 14 11 12 10 14 17 19 26 25 26 27 29 33 35 36 33 33 37 40 39 37 37 39 43 47 49 50 48 46 49 51 50 54 51 52 51 52 54 55 56 51 46 44 43 50 63 69
17 14 12 13 11 16 17 19 21 25 24 26 27 28 31 32 32 29 28 34 37 36 36 36 36 41 41 45 47 49 48 50 47 48 51 56 59 61 60 57 57 55 55 53 51 50 53 58 61
18 15 15 14 17 20 18 19 23 22 23 26 25 25 27 29 27 25 24 24 27 31 33 32 33 36 37 38 37 38 41 47 50 50 54 54 55 56 60 60 60 58 57 57 56 54 55 58 58
19 16 14 15 17 19 19 20 20 21 23 25 24 23 25 26 25 24 23 22 21 20 19 22 26 30 31 32 33 35 39 43 46 47 49 51 51 56 56 56 55 55 57 62 61 61 61 59 60
21 17 15 17 18 20 19 20 20 22 22 24 24 23 24 25 23 23 23 21 20 18 17 16 16 18 24 30 31 32 31 33 40 43 45 46 48 49 50 51 53 52 54 54 57 60 63 63 64
19 18 19 17 18 19 19 20 21 21 22 24 24 23 25 25 23 22 21 20 19 17 16 15 14 14 14 14 16 20 23 24 25 26 30 36 39 40 42 45 46 48 49 49 49 50 54 58 57
18 19 19 20 18 19 20 20 21 22 22 22 23 23 24 24 22 21 20 19 18 17 16 15 13 11 9 8 8 8 8 9 11 15 17 18 22 26 30 33 35 37 38 40 42 43 46 50 54
20 19 21 19 19 18 20 20 21 21 22 22 23 23 23 22 21 20 19 18 17 16 14 12 11 10 10 9 9 8 7 7 6 7 8 12 16 18 19 20 26 30 33 35 37 39 40 42 44
20 20 21 21 21 21 21 21 22 22 23 23 22 21 21 20 19 19 18 17 15 14 13 12 12 11 10 9 9 8 8 8 8 8 8 8 8 10 15 18 20 20 23 30 35 40 42 46 49
23 22 22 22 22 22 22 23 23 23 22 22 21 21 21 20 19 17 16 15 15 14 13 12 11 10 10 10 10 10 10 11 11 12 12 12 12 12 12 12 14 19 22 22 23 31 40 45 49
25 23 23 23 24 23 23 23 23 23 22 21 22 21 21 20 17 16 15 15 14 15 14 12 12 12 12 12 13 13 13 14 14 15 15 16 16 16 16 16 16 17 18 20 22 22 23 29 42
31 26 25 25 25 25 24 23 22 22 22 21 22 21 20 19 16 15 15 15 15 15 14 14 14 15 15 15 16 17 17 18 19 19 18 18 17 17 17 17 20 20 20 20 20 21 23 25 21
31 31 29 29 28 28 26 25 23 22 22 21 21 21 19 17 15 17 15 15 15 16 16 16 17 17 18 19 20 21 21 21 20 18 17 20 21 21 20 19 19 23 25 24 24 23 21 21 25
30 31 31 31 30 29 27 24 24 22 21 21 20 18 17 15 15 15 15 16 16 17 18 19 20 21 22 22 24 24 23 21 20 20 22 23 22 22 23 23 21 20 26 26 26 27 24 23 28
29 35 30 31 30 30 26 23 24 24 23 20 15 13 14 16 15 15 16 17 18 19 21 22 24 26 26 26 25 24 23 23 23 24 25 25 24 26 28 28 28 28 27 27 28 29 31 31 32
31 32 29 30 32 30 28 25 24 22 18 14 11 11 13 14 16 16 17 19 21 23 24 27 29 28 27 26 25 25 29 27 28 29 29 28 29 31 30 30 30 29 30 32 35 35 38 41 38
31 31 33 34 35 32 27 24 19 16 14 11 10 11 11 15 17 17 19 21 24 27 29 31 31 30 30 28 27 28 29 32 34 33 31 34 36 34 33 31 33 36 37 38 38 40 41 46 44
31 33 36 34 31 26 23 18 14 12 11 10 10 10 11 14 19 19 21 25 30 32 33 32 33 33 32 31 30 31 34 36 36 34 34 33 32 32 34 34 36 40 40 39 40 43 44 48 51
35 28 28 29 24 22 19 12 11 10 10 10 10 12 14 16 19 25 26 29 32 34 34 34 32 31 32 31 32 34 36 36 32 31 30 31 33 33 36 39 36 35 36 38 39 41 44 47 53
31 32 26 23 20 20 20 20 11 10 11 14 16 17 19 22 25 29 28 32 34 34 34 34 33 34 34 35 36 36 34 30 28 28 28 29 32 33 32 29 29 29 30 30 32 37 39 42 47
35 31 27 24 23 22 20 25 12 13 12 15 19 22 26 29 29 32 32 33 34 34 33 33 34 35 35 35 33 30 26 24 24 22 20 20 22 23 24 23 22 20 17 17 20 21 22 27 36
34 29 27 25 24 29 25 24 15 16 19 23 24 24 28 30 31 32 33 34 32 31 30 29 28 29 29 27 25 21 18 16 15 14 14 14 14 15 17 19 19 17 14 14 14 14 15 15 15
31 28 43 41 44 32 34 33 18 22 25 28 28 28 30 31 31 32 31 32 32 29 26 25 25 24 23 21 17 13 10 11 11 12 13 15 16 18 19 20 18 16 14 15 15 16 16 17 17
31 28 39 49 30 33 38 36 27 28 30 27 28 29 29 30 30 30 30 29 25 21 20 21 22 22 21 16 12 11 11 12 13 14 15 17 19 22 21 18 15 15 16 17 17 18 20 22 23
32 33 32 38 40 39 32 31 29 30 28 26 28 28 27 28 27 26 22 19 18 17 18 20 21 19 16 14 14 13 14 15 16 17 19 22 24 25 21 16 15 17 18 18 20 23 25 27 28
36 36 41 42 46 41 36 35 34 30 30 28 28 26 28 25 21 17 15 14 15 17 19 21 20 18 16 16 16 16 17 18 19 21 24 26 26 23 20 17 16 17 18 20 23 25 26 29 33
44 45 44 43 46 43 31 23 23 25 27 29 28 28 25 17 15 14 15 16 17 19 20 21 20 20 18 17 18 19 20 21 22 23 27 29 28 25 21 18 17 18 20 22 23 26 29 32 34
47 45 42 41 45 40 36 24 18 21 24 27 26 23 20 19 19 19 19 19 19 20 21 21 21 21 21 21 20 21 21 22 24 25 29 32 32 29 25 21 19 19 21 22 26 30 31 33 37

GFSSGP_prec_cthk_129.txt.gz
RH
5 5 10 11 11 11 13 14 16 19 21 25 34 33 35 36 39 49 38 37 37 40 40 42 44 48 47 47 50 48 46 47 48 49 53 54 51 50 52 52 50 46 39 39 47 59 64 62 59
10 10 12 13 15 10 13 16 16 20 26 27 29 29 32 35 36 35 35 35 33 36 37 37 40 44 47 46 45 45 45 46 48 51 53 58 56 51 51 53 54 55 51 44 44 47 57 61 66
13 12 13 13 10 12 17 15 18 24 24 24 27 29 32 33 31 30 32 34 33 35 34 35 38 41 44 45 47 53 48 46 46 49 48 50 54 55 54 54 53 55 56 51 49 47 47 52 63
14 13 15 13 11 16 19 16 22 22 21 24 24 26 29 29 29 29 31 32 32 31 32 33 34 37 39 41 44 45 44 44 46 46 47 47 50 55 55 59 60 59 57 56 53 50 50 56 60
20 15 12 12 12 17 17 20 22 20 22 24 25 25 27 29 28 27 27 29 29 32 33 32 32 32 34 36 37 36 36 38 42 46 47 47 51 54 54 56 57 56 55 56 58 58 57 56 62
19 18 15 14 17 18 17 19 21 19 22 23 23 23 25 26 25 23 23 22 21 20 20 20 23 26 28 30 29 30 32 34 38 43 46 47 48 48 48 49 51 53 52 52 53 57 58 60 62
25 16 15 13 18 17 17 18 19 20 22 23 23 22 23 24 24 22 22 21 20 19 18 16 15 15 16 20 25 28 28 29 29 29 35 39 43 44 45 47 49 49 50 50 50 49 51 52 55
25 20 18 15 19 18 17 18 19 20 22 22 22 22 22 23 22 22 21 20 19 18 16 15 14 13 13 13 12 11 11 13 15 17 18 19 22 25 32 35 36 38 41 43 44 43 43 45 46
21 20 19 20 18 20 18 18 19 18 19 20 21 22 22 23 22 21 20 19 19 16 15 15 14 13 11 9 8 8 8 7 7 7 8 11 15 16 19 20 23 26 30 33 35 36 38 41 41
20 18 18 21 21 19 18 18 18 18 19 20 21 21 22 23 22 22 22 22 19 16 15 14 13 11 10 9 9 9 8 8 8 8 7 7 9 10 13 16 17 19 19 20 26 32 36 37 39
21 21 24 20 19 18 18 18 18 19 20 20 21 22 22 22 21 21 21 19 17 15 14 13 12 11 11 10 10 9 9 9 9 10 9 10 10 11 11 13 16 20 21 20 23 24 25 35 43
23 23 21 20 19 19 19 18 19 20 20 20 21 21 21 21 20 21 21 20 16 14 13 13 12 12 12 11 11 11 12 11 13 13 13 13 14 15 16 18 20 20 19 23 27 30 27 24 26
24 21 21 20 20 20 20 21 20 20 21 21 20 20 20 21 21 20 20 17 15 15 14 13 13 12 12 13 14 14 15 18 16 16 16 16 19 18 20 22 22 21 21 20 21 22 24 28 30
23 21 21 21 21 21 22 22 22 21 21 21 20 19 20 20 20 20 19 18 16 14 14 14 14 14 14 15 16 17 18 19 19 19 19 18 17 21 23 23 24 25 24 25 25 25 24 23 25
25 23 23 23 22 22 21 22 21 20 20 20 20 20 20 20 19 18 18 16 14 15 14 14 15 16 17 17 18 21 23 24 22 22 18 18 21 21 20 19 21 23 26 25 25 27 29 26 25
31 28 27 24 23 23 24 24 21 21 20 21 21 21 20 19 18 17 14 14 13 14 16 16 17 18 19 20 22 26 28 22 21 26 22 22 24 24 23 26 30 30 28 29 28 27 30 32 33
34 38 31 29 28 25 25 22 21 23 23 21 21 22 19 16 15 15 15 14 14 15 17 19 20 22 23 24 25 26 27 22 25 28 29 28 28 27 29 28 29 27 30 29 30 31 33 35 36
34 38 34 32 30 28 26 24 22 24 23 22 21 19 17 15 14 14 16 14 15 17 19 22 24 26 28 28 26 29 27 25 27 31 31 30 28 31 32 31 29 29 30 32 31 31 35 37 37
31 34 33 34 33 31 27 25 24 24 23 21 16 13 11 14 16 16 17 16 17 19 22 27 29 30 29 29 30 32 27 28 31 33 32 31 31 31 30 29 31 30 32 32 34 35 38 39 37
31 31 34 36 32 30 29 28 24 21 18 14 11 9 8 10 15 19 19 19 21 25 28 30 31 30 29 28 28 28 28 30 33 34 31 28 28 28 29 31 31 32 29 31 32 34 36 37 39
33 32 35 38 32 28 25 21 17 14 11 10 10 9 9 10 13 18 21 24 28 29 31 31 30 30 29 30 31 31 32 34 33 29 26 28 27 26 28 29 26 24 26 29 28 28 28 29 35
36 35 33 31 28 28 19 25 15 11 11 10 11 12 12 14 16 19 25 28 30 33 31 30 30 30 31 32 33 34 35 33 27 24 24 23 23 23 22 21 20 20 20 18 17 18 18 19 22
38 35 32 25 25 21 18 24 12 12 10 11 13 15 18 22 23 25 28 31 33 32 29 28 26 27 28 29 29 28 26 24 22 21 18 17 16 15 15 14 15 17 17 16 15 14 13 13 14
35 33 29 24 23 28 23 19 14 15 14 18 18 19 25 25 27 28 31 31 31 30 28 27 25 25 25 25 23 22 20 18 17 15 12 11 11 12 14 15 17 17 16 15 15 15 15 15 16
37 32 52 47 49 34 26 23 14 18 19 21 24 25 27 28 29 29 30 29 28 28 26 23 20 21 22 21 20 18 14 11 10 11 11 12 13 13 15 18 19 18 15 15 16 15 16 17 19
37 32 47 52 31 35 27 28 24 21 22 24 26 27 28 28 29 28 28 28 27 22 20 18 17 20 21 21 19 14 11 11 12 12 13 14 15 16 18 19 20 17 15 16 16 16 18 20 22
32 32 29 33 27 28 26 24 23 26 27 26 29 28 26 25 25 26 25 20 18 17 16 16 18 20 21 20 17 14 13 14 14 15 16 17 18 19 20 20 18 15 15 16 17 20 20 21 23
32 27 30 32 42 32 33 29 36 32 31 28 29 27 24 24 25 22 18 16 14 14 15 17 18 19 19 17 16 14 14 15 15 16 17 18 20 22 24 22 20 17 16 17 20 21 21 21 23
31 31 31 33 35 42 27 33 25 28 28 29 27 25 25 26 21 16 15 15 16 18 18 18 19 19 19 18 16 16 16 17 18 19 19 20 21 23 27 28 25 21 19 19 21 21 21 21 22
35 34 31 34 39 36 36 29 22 22 24 25 26 25 22 17 16 17 17 18 20 19 17 18 20 22 21 21 20 19 19 20 21 22 24 24 25 26 27 28 28 25 20 19 21 22 22 22 22

GFSSGP_prec_cthk_132.txt.gz
RH
5 5 9 10 14 14 14 15 17 21 29 35 36 34 40 42 44 52 43 39 39 37 37 40 42 43 45 43 45 48 46 45 46 47 51 56 56 51 48 50 51 51 47 43 48 59 63 58 57
7 10 11 13 18 12 13 16 17 20 24 31 32 34 33 41 40 35 36 34 33 33 36 37 39 40 41 44 45 45 43 44 44 47 52 49 51 53 52 51 51 51 53 50 47 48 51 56 57
10 12 13 16 12 14 17 17 22 23 23 26 29 29 30 33 30 31 33 32 29 30 34 33 36 37 39 40 40 43 46 45 45 43 46 47 46 48 52 54 55 57 57 56 52 49 47 48 54
12 14 15 15 11 17 19 22 22 22 23 24 25 27 28 27 27 28 31 30 28 29 32 31 31 32 35 37 38 40 39 40 39 42 44 42 43 48 52 54 54 54 55 54 54 54 53 52 56
15 14 14 12 12 17 19 24 23 20 22 23 23 25 26 26 25 26 27 26 28 30 30 31 30 29 29 31 33 34 33 34 33 39 42 46 46 47 47 47 47 50 50 50 50 52 53 54 56
17 17 13 14 14 17 20 25 20 22 22 22 23 23 25 26 24 24 24 25 24 22 21 20 20 21 22 24 26 26 27 28 28 29 31 39 43 45 45 46 49 49 51 50 51 49 49 50 50
21 20 17 13 19 18 19 23 23 23 23 22 21 22 23 23 23 21 21 20 19 19 18 17 15 14 13 13 14 17 20 22 22 21 21 22 23 25 32 35 35 36 38 40 41 43 43 43 43
23 21 16 16 22 20 18 20 23 23 22 21 21 21 22 21 21 21 20 19 18 17 16 15 13 13 12 12 11 9 8 8 7 8 9 12 15 16 17 18 21 27 29 30 31 33 36 40 41
24 22 20 17 22 21 18 19 21 21 23 20 20 18 19 21 21 20 20 19 18 16 14 13 13 12 12 10 9 8 8 8 8 8 7 7 8 12 14 16 14 16 17 18 19 20 28 32 33
24 22 18 23 24 22 19 18 19 20 19 20 20 20 20 20 21 20 21 20 17 15 14 14 13 12 10 10 10 9 9 9 9 8 8 8 8 9 9 10 12 14 16 18 19 22 25 28 29
22 22 21 23 23 19 20 18 19 19 19 19 19 19 20 21 21 21 21 19 16 14 14 13 13 11 11 10 10 10 10 10 10 10 10 10 11 12 12 13 15 17 19 21 22 30 29 28 33
24 23 23 23 21 20 20 18 19 19 18 17 18 20 20 20 20 20 20 19 16 15 14 13 12 12 12 12 12 11 12 14 14 13 12 13 13 15 16 17 18 19 19 19 19 21 22 25 27
26 24 24 22 20 19 18 18 19 18 18 18 19 21 20 20 20 20 19 17 16 15 14 13 13 12 12 12 13 14 15 16 17 15 16 16 17 16 16 19 21 21 22 23 22 22 22 22 22
25 23 23 21 20 19 19 19 18 18 19 19 20 20 20 20 20 19 18 18 16 14 14 13 12 12 13 14 15 16 17 18 18 18 19 19 17 17 19 19 19 19 20 22 24 24 24 24 23
25 24 23 22 21 21 19 20 20 19 20 20 20 19 19 21 19 19 19 18 16 14 13 13 13 13 15 16 17 18 20 19 22 24 21 19 19 20 21 23 27 23 26 26 25 25 25 24 24
27 24 28 23 22 22 21 24 20 19 20 20 19 19 20 20 20 20 18 15 13 12 12 13 14 16 17 18 19 21 23 22 23 25 25 23 23 24 24 24 25 26 28 28 25 27 27 31 32
32 38 27 24 23 22 23 22 20 19 19 19 18 19 20 21 20 19 15 13 11 11 12 14 16 18 19 21 24 27 29 24 23 26 24 25 27 26 25 27 28 28 26 26 29 30 30 29 28
37 34 29 27 24 23 23 21 19 18 19 19 20 20 22 21 18 16 14 12 11 12 13 16 18 21 24 27 28 32 30 26 26 28 26 29 29 28 27 28 26 26 27 28 29 30 30 29 29
32 35 33 30 26 23 23 24 21 21 21 21 21 22 21 19 16 15 14 13 12 13 15 17 22 26 29 28 28 30 29 26 27 28 30 31 29 25 26 26 26 27 27 27 25 28 29 28 27
36 39 41 37 32 31 29 29 27 25 24 22 20 18 15 13 14 14 14 14 14 16 18 21 27 29 29 28 28 29 28 29 30 30 30 28 25 26 25 24 24 26 24 22 21 23 24 22 22
38 39 40 41 34 32 30 29 27 24 23 21 17 13 12 11 11 12 13 14 17 20 23 27 29 28 27 28 29 30 30 31 32 30 27 23 24 25 24 23 21 17 15 14 16 19 18 16 16
44 37 37 37 38 47 28 45 23 20 17 14 13 12 11 10 11 11 14 17 21 25 28 29 28 26 25 26 27 29 32 32 28 25 21 19 18 18 17 14 12 10 12 15 16 15 14 13 12
40 37 35 34 33 32 26 38 21 17 15 14 13 12 12 12 13 16 18 22 27 29 29 28 26 24 23 24 25 25 24 22 21 19 17 14 11 9 9 10 10 11 14 17 18 16 14 13 13
37 35 33 33 35 46 30 28 28 21 18 18 15 15 17 20 21 23 26 27 28 29 27 25 24 21 20 20 21 20 19 18 16 13 11 9 9 10 10 10 11 14 16 17 17 16 15 14 14
39 39 61 53 45 54 31 26 22 21 20 19 20 21 23 24 27 28 28 28 27 25 23 23 20 17 16 17 19 19 18 16 11 9 10 11 11 12 12 12 13 15 17 18 17 16 16 16 16
42 44 58 50 50 53 28 29 22 20 19 20 22 24 27 28 29 29 26 24 23 22 18 16 14 13 15 18 18 17 16 13 11 11 12 13 14 14 14 14 15 17 18 17 16 16 17 17 18
40 45 35 40 32 43 38 24 24 23 24 25 27 28 28 26 23 21 22 21 18 14 13 12 13 15 16 18 17 16 15 13 12 13 13 14 14 15 16 16 17 18 19 19 19 19 20 20 19
42 35 38 43 44 37 39 27 45 32 30 30 30 28 24 21 21 22 21 18 14 13 13 15 15 15 16 17 18 17 15 14 14 15 16 17 18 18 19 20 20 20 21 21 20 20 21 21 21
36 34 32 33 37 55 38 42 29 30 31 30 28 25 24 24 26 24 17 13 13 15 16 17 16 16 18 18 19 18 17 16 17 17 18 19 20 21 22 22 23 23 22 20 19 19 21 21 21
34 32 26 35 37 34 40 41 31 30 28 25 22 22 21 18 14 12 12 14 15 16 16 18 17 17 18 20 21 20 20 19 18 19 21 22 23 24 25 27 27 27 27 24 21 18 19 20 21

GFSSGP_prec_cthk_135.txt.gz
RH
12 12 12 10 10 15 18 16 19 23 38 41 37 38 43 44 45 44 48 39 38 38 38 38 39 40 41 40 40 42 43 42 43 45 46 51 48 48 50 49 48 49 48 45 47 53 56 56 53
10 12 13 12 16 12 13 16 22 24 33 34 35 36 37 42 40 38 34 32 36 36 36 36 36 36 37 39 39 42 43 45 43 43 43 45 45 44 44 48 50 50 51 52 49 47 48 49 54
10 13 15 13 13 15 13 17 23 25 30 31 33 33 34 36 37 34 31 29 30 32 34 34 33 34 36 38 38 38 40 39 41 41 40 41 42 41 43 47 48 50 51 51 50 50 48 47 49
14 14 18 17 11 11 16 23 22 22 23 29 29 31 28 29 31 31 29 26 29 31 32 30 29 29 31 32 34 35 36 34 34 32 40 44 45 42 42 44 46 46 47 47 47 48 49 49 49
16 16 20 14 12 15 22 23 23 23 21 24 25 25 24 25 27 28 27 26 28 31 29 28 28 27 26 26 26 28 28 27 29 30 31 37 42 43 43 45 45 45 47 49 50 48 47 47 47
19 19 19 14 14 22 24 23 24 23 22 23 24 23 24 24 25 27 27 28 27 25 23 20 19 18 18 20 21 23 23 24 25 24 24 23 26 31 33 36 36 37 38 40 41 44 46 45 43
23 21 19 11 18 22 23 22 23 21 23 24 22 23 22 24 24 25 25 23 20 19 17 16 15 13 12 12 12 12 12 12 12 12 13 13 15 16 17 19 22 29 30 31 32 32 36 37 41
24 22 13 14 18 20 21 22 24 22 22 22 21 23 21 23 22 21 20 20 19 17 16 15 13 12 12 11 10 9 9 8 8 7 7 7 8 11 12 12 13 14 15 19 20 23 24 27 32
26 22 17 15 18 18 20 20 21 22 21 21 21 20 19 21 21 21 21 20 18 16 15 13 12 12 11 11 10 9 9 8 8 8 8 8 8 8 11 13 15 15 14 15 17 17 18 20 23
27 23 20 19 20 18 19 19 19 21 22 22 21 20 19 20 20 20 20 19 17 15 13 12 12 12 11 10 10 10 9 9 10 9 9 9 9 9 10 10 11 13 14 16 19 20 23 27 28
27 23 22 22 22 19 19 20 18 20 21 20 20 20 19 19 20 21 21 19 16 14 13 13 12 11 11 11 11 11 11 11 11 11 11 11 11 11 12 13 14 15 16 17 18 19 22 24 24
26 24 23 24 24 21 20 19 19 19 17 18 19 20 19 19 21 20 19 17 14 13 13 13 12 12 12 12 12 12 12 13 14 14 14 13 14 14 15 16 16 18 19 19 19 19 19 20 22
25 24 26 25 25 21 19 19 18 17 17 18 19 19 19 19 20 20 18 17 14 13 13 13 13 13 12 13 13 13 14 15 15 16 16 16 16 16 16 17 18 19 20 20 20 21 20 20 20
26 23 26 27 24 21 20 18 18 18 18 18 19 19 19 19 19 19 18 16 14 13 13 13 12 12 12 13 13 14 15 16 16 17 18 19 18 17 17 18 18 19 19 18 20 21 21 20 21
24 24 25 26 24 22 19 19 19 18 19 19 19 19 19 20 19 18 17 15 14 13 13 12 12 12 13 14 15 15 16 18 19 20 21 19 18 19 20 21 22 21 21 21 22 22 21 21 23
28 25 28 25 23 21 20 23 19 19 20 19 20 20 19 19 19 18 16 15 14 13 11 11 12 13 14 15 16 17 20 23 23 23 21 20 21 22 23 23 22 23 24 24 23 21 22 24 23
32 34 28 25 24 22 22 21 20 20 20 20 20 19 18 19 19 18 17 16 13 12 10 11 12 14 16 18 20 22 26 26 25 22 23 24 24 25 24 24 23 24 24 23 22 24 24 25 26
38 35 27 27 24 23 23 20 19 20 19 19 19 18 18 20 18 18 17 14 11 10 11 12 14 16 19 22 24 26 27 27 25 24 25 25 26 27 26 23 23 22 23 23 24 23 23 24 25
33 32 29 26 24 22 24 21 19 17 17 17 18 20 20 19 20 21 16 13 12 11 12 14 16 18 24 25 26 25 26 26 25 25 27 27 27 26 23 22 21 21 21 21 20 18 19 19 18
36 38 35 28 24 24 23 22 20 19 19 19 19 19 19 19 20 18 14 13 12 13 13 15 17 24 26 25 25 26 27 26 27 28 27 27 26 22 22 22 21 19 15 11 11 14 16 17 15
38 39 36 33 28 26 24 23 21 21 22 22 22 20 18 17 14 14 13 12 12 14 16 18 23 27 26 23 23 24 26 27 27 27 25 24 21 19 19 18 15 11 8 8 10 13 16 16 15
39 39 37 36 36 38 29 37 27 24 24 24 22 19 16 13 12 13 12 12 14 17 21 25 27 26 23 21 21 22 23 25 24 22 20 17 14 12 11 9 8 8 8 10 12 15 16 17 15
39 38 40 38 37 38 32 38 24 25 22 20 17 15 13 13 13 13 13 15 18 23 27 26 25 24 21 20 19 20 20 19 18 17 15 12 9 8 8 8 9 9 10 10 12 15 18 18 15
41 41 44 45 44 49 36 35 30 25 21 20 17 15 15 16 17 18 19 21 25 27 25 25 22 20 20 17 16 17 18 19 17 16 12 10 9 9 10 10 10 10 11 12 14 17 19 18 16
43 47 57 45 47 45 41 32 23 25 24 22 21 19 19 19 19 22 26 28 26 24 21 20 19 16 14 13 15 17 18 17 16 13 11 10 11 11 12 12 12 12 12 12 14 17 19 18 19
44 48 48 39 50 49 37 31 21 24 24 22 21 22 23 23 26 28 26 23 20 19 19 16 13 12 13 14 16 17 17 17 15 12 11 12 12 13 14 14 14 14 13 13 15 17 19 21 21
42 51 43 43 42 46 38 28 28 27 26 22 22 23 25 26 24 21 20 20 20 20 17 14 14 14 15 16 16 17 18 17 16 14 14 14 15 16 16 17 17 17 17 16 16 16 18 19 20
44 40 40 48 42 39 44 30 38 30 26 28 29 28 24 22 21 21 23 23 22 18 14 14 14 16 17 17 18 19 20 19 17 16 16 16 17 19 19 20 20 21 21 20 19 18 17 18 19
46 42 41 39 46 51 45 39 29 31 30 30 28 25 23 24 24 22 21 17 12 12 13 14 16 17 17 16 18 20 20 20 20 19 19 19 20 22 25 26 27 27 28 27 27 25 22 20 20
47 42 36 40 36 39 40 36 31 31 29 26 25 23 20 17 15 14 13 11 11 13 14 17 17 16 16 17 18 19 21 22 22 23 24 24 26 27 29 30 31 33 34 35 36 35 33 29 25

GFSSGP_prec_cthk_138.txt.gz
RH
20 19 18 15 13 19 18 16 22 31 41 45 43 42 39 44 42 42 43 40 36 37 38 39 39 39 38 39 38 39 40 41 42 42 44 45 47 45 43 43 45 46 47 46 44 46 49 53 54
21 22 19 17 16 15 15 16 27 30 40 40 40 39 40 45 42 39 35 34 36 36 38 38 38 38 37 36 37 38 39 41 41 38 39 38 41 41 41 43 46 47 48 49 47 46 45 46 46
22 22 20 18 19 11 13 18 28 30 36 37 37 38 37 40 38 32 29 30 33 34 36 36 36 36 35 35 35 34 34 37 36 37 37 38 39 38 38 40 43 45 46 46 46 45 45 44 44
23 25 24 20 14 10 13 20 26 26 30 33 34 35 34 35 35 31 28 29 30 32 34 33 32 31 31 31 30 31 32 33 31 29 28 35 39 42 42 44 42 43 44 44 45 46 45 44 44
22 26 24 20 13 12 17 20 21 24 25 30 30 33 28 28 31 28 28 28 28 30 31 29 28 28 26 25 25 25 26 25 25 27 26 27 30 36 37 38 39 39 39 40 41 45 48 45 46
25 25 23 16 12 19 20 21 21 23 24 26 28 26 23 25 26 27 27 27 27 29 28 25 23 20 18 18 18 19 20 20 20 20 20 19 18 18 22 24 28 30 30 32 32 35 36 39 42
26 28 19 12 18 26 24 23 22 24 22 23 24 24 22 23 24 26 26 26 24 21 19 17 15 14 12 11 11 10 10 9 8 8 9 9 9 11 13 13 14 16 22 24 26 27 27 29 32
26 27 18 13 23 25 25 23 23 23 22 22 21 21 21 21 23 24 25 22 19 18 17 15 14 12 11 11 10 10 9 9 8 8 8 8 8 9 11 11 12 12 13 14 16 20 22 23 25
26 27 19 16 24 22 25 24 22 22 21 21 21 19 18 21 22 21 20 19 19 17 15 14 12 12 11 11 10 10 10 10 9 9 9 9 9 9 9 11 13 14 13 12 14 15 16 18 20
26 26 18 17 21 21 22 20 20 22 22 22 21 19 19 21 20 19 20 20 18 16 14 13 12 12 12 11 11 11 11 11 10 10 10 10 10 11 11 11 11 12 13 15 16 17 18 21 22
27 22 19 17 18 20 19 20 18 21 21 21 20 19 19 20 19 19 19 19 17 15 13 12 12 12 12 12 12 12 12 12 12 12 12 12 12 12 12 13 14 15 15 16 17 18 18 20 22
27 21 21 17 18 20 21 19 19 19 19 21 21 19 19 19 19 19 19 18 15 13 12 12 13 12 12 13 12 13 13 13 13 14 13 13 14 14 15 16 16 15 17 19 19 19 19 19 19
27 23 23 21 22 21 21 20 19 18 18 19 20 20 19 19 19 19 19 17 14 13 13 13 13 13 13 13 13 13 14 14 14 14 14 14 15 17 17 16 17 18 18 18 19 18 18 19 19
27 26 26 26 25 23 21 20 19 19 19 19 19 19 19 19 19 19 18 16 13 12 12 12 13 13 13 13 13 14 15 15 15 16 16 17 17 17 16 17 19 20 20 19 19 19 19 20 20
26 28 29 29 29 24 23 22 20 20 19 19 19 19 19 19 19 18 18 14 13 12 13 13 13 13 13 13 14 15 17 18 19 19 20 19 18 18 19 20 21 20 19 21 22 22 20 21 21
28 29 33 30 30 25 24 25 20 20 20 20 19 19 20 20 19 19 17 14 14 14 13 13 12 12 13 14 15 18 20 22 23 22 22 21 20 20 21 22 22 21 20 22 21 20 21 22 23
34 37 32 31 29 25 23 22 20 19 19 20 19 20 20 20 19 18 17 17 16 14 13 12 12 12 13 16 18 20 23 25 25 23 23 22 23 22 23 24 23 20 20 20 20 21 21 21 22
40 35 30 31 28 24 22 20 20 19 19 20 20 20 19 18 17 17 18 18 16 14 12 11 11 13 15 19 21 22 25 26 25 25 24 24 24 24 24 23 20 19 19 19 19 16 16 15 17
33 29 28 28 26 24 24 20 21 20 20 19 19 19 19 18 16 20 21 19 16 14 12 12 13 14 18 23 23 22 24 25 25 24 24 25 25 24 23 20 19 19 17 14 10 10 10 11 15
38 33 31 28 26 24 24 23 20 19 18 17 16 17 18 18 20 21 20 18 16 15 14 14 15 16 22 24 22 22 23 23 23 23 24 24 23 22 19 18 16 14 10 8 7 7 9 12 15
41 35 32 29 27 25 24 23 21 20 19 18 18 17 18 18 18 18 17 16 15 14 15 16 18 21 25 25 21 21 21 20 21 22 21 19 17 15 13 12 10 8 7 7 7 9 11 13 16
42 38 33 30 27 34 22 30 19 19 19 19 19 20 21 21 18 15 14 14 14 14 16 19 23 26 26 23 19 19 19 19 18 17 16 15 13 11 8 8 7 7 7 8 8 10 12 14 17
41 41 36 32 32 27 25 30 18 20 19 21 24 24 21 19 15 13 13 14 15 18 21 25 27 25 22 19 17 17 17 16 17 17 16 15 12 9 9 9 9 9 9 9 9 10 12 15 17
43 45 42 40 37 44 30 29 22 27 26 26 24 21 18 16 15 16 16 16 19 23 26 26 23 20 18 17 15 14 15 17 16 16 15 12 10 10 10 10 10 10 10 10 10 11 12 14 17
47 46 55 49 50 48 46 37 27 31 30 27 25 22 19 19 19 18 19 21 24 25 23 20 18 18 16 14 12 13 16 17 17 16 14 11 10 11 12 12 12 13 13 12 12 12 12 14 17
50 46 50 40 49 52 46 43 27 31 29 26 24 22 21 21 22 23 24 22 21 20 19 19 19 16 15 14 13 15 17 17 17 16 14 13 13 13 14 15 15 15 15 15 14 13 13 13 15
49 52 46 46 50 48 46 33 33 29 25 24 22 22 22 22 20 20 21 21 20 20 20 20 18 14 14 14 15 16 17 18 18 18 16 15 15 15 16 17 17 18 19 20 20 19 18 17 16
47 45 49 52 46 37 49 36 36 31 28 27 25 24 22 22 23 23 22 21 19 19 18 16 13 13 14 17 17 16 16 18 19 19 18 16 16 16 18 21 23 25 26 26 26 26 25 23 23
49 46 47 46 48 51 49 38 30 31 27 29 25 24 25 24 24 22 19 18 15 13 12 12 14 16 17 16 17 17 17 18 20 20 20 21 21 21 23 25 28 30 31 33 34 35 35 34 33
50 44 43 42 37 44 40 36 30 29 27 26 26 25 23 22 17 14 13 13 13 11 12 14 15 17 18 19 20 20 21 21 22 24 28 31 30 31 30 29 30 31 34 36 38 40 41 42 42

GFSSGP_prec_cthk_141.txt.gz
RH
24 24 25 24 21 23 21 17 20 31 37 40 43 43 44 45 40 40 40 38 35 36 39 43 43 47 40 39 38 38 39 40 41 43 42 42 42 41 41 41 42 44 46 46 45 43 44 46 48
23 25 26 25 22 21 18 17 26 34 37 41 44 43 45 45 40 38 35 34 34 35 36 37 37 37 37 36 37 37 38 40 38 37 37 38 37 38 39 41 46 52 47 47 46 46 44 43 43
21 26 26 27 25 19 14 16 31 37 41 41 40 42 43 41 39 33 31 31 31 33 35 35 35 35 35 35 35 35 35 34 36 34 33 33 36 40 38 37 38 41 43 45 45 44 44 44 44
22 24 26 25 25 18 13 20 31 34 39 40 38 38 39 38 36 34 29 29 30 31 32 32 33 31 31 31 31 32 32 33 32 29 27 26 31 36 39 40 42 40 40 41 41 42 46 50 47
21 21 26 27 26 15 16 27 29 30 34 37 35 34 35 36 33 31 27 26 26 28 31 31 28 28 27 26 26 25 25 26 24 24 25 24 23 23 27 31 32 31 32 34 36 38 39 42 42
22 20 24 25 24 15 18 27 27 29 30 31 31 30 32 32 29 28 26 25 25 28 29 27 26 23 19 18 17 16 17 18 17 17 16 15 14 14 14 16 20 23 25 27 28 30 32 34 36
23 21 20 19 22 22 20 26 25 26 26 28 27 28 28 26 26 26 25 24 26 27 23 19 16 14 13 12 11 11 10 9 8 8 9 8 8 8 9 10 12 13 14 18 22 24 26 27 29
25 21 18 18 29 24 21 23 25 24 26 25 25 25 24 21 23 23 24 25 23 19 17 16 14 12 11 11 11 11 10 9 9 9 10 9 8 8 9 10 11 11 11 13 14 14 15 17 19
28 24 21 19 28 22 22 22 24 23 24 22 21 20 18 20 21 22 23 22 19 18 16 14 13 12 11 11 12 11 11 11 11 11 10 10 10 10 10 10 11 11 12 12 13 13 15 15 16
30 27 18 18 23 23 21 20 21 23 24 22 20 19 19 20 20 22 21 19 18 17 15 13 12 11 11 13 12 12 12 12 12 12 11 11 11 11 11 11 12 12 13 14 15 15 16 18 18
33 24 18 19 24 23 21 21 20 26 22 21 19 19 19 20 21 20 19 19 18 16 14 12 11 12 14 13 13 13 12 13 13 13 13 13 13 12 13 13 14 15 15 14 16 17 17 17 18
34 24 20 19 26 22 22 22 20 23 22 21 20 19 19 20 20 19 19 18 17 15 12 12 12 14 12 13 13 13 13 13 13 13 14 14 14 14 15 16 16 15 16 17 18 18 18 18 18
35 25 21 20 25 22 22 22 21 23 21 21 21 21 20 21 20 20 20 18 16 13 12 12 13 12 13 13 13 13 13 14 14 14 14 15 16 17 17 17 15 17 17 18 18 17 17 17 18
34 28 23 22 24 22 21 22 21 21 20 21 21 21 21 20 20 20 19 17 15 12 12 12 12 13 13 12 13 13 14 15 16 17 17 18 18 18 17 17 18 20 20 18 18 18 19 19 19
34 31 27 26 24 25 24 24 23 23 21 21 21 21 20 20 20 19 18 17 14 12 12 12 13 14 13 12 13 14 17 18 19 19 20 20 20 19 19 20 21 21 19 18 20 20 19 20 20
37 35 35 30 27 27 24 26 23 23 21 20 20 20 20 20 19 19 18 16 13 13 14 15 14 13 12 12 14 17 19 20 21 21 21 21 22 22 22 22 22 21 20 19 18 18 19 20 19
44 44 36 34 32 28 25 26 22 21 21 20 20 20 20 20 19 19 17 16 14 16 15 14 14 13 12 12 16 19 19 21 23 23 23 24 24 24 23 22 22 21 18 17 17 17 17 17 16
44 42 36 36 36 32 26 24 24 21 20 20 20 20 20 20 19 18 17 17 16 17 15 14 13 12 12 13 19 20 19 21 22 23 24 25 25 24 24 23 21 18 17 15 13 11 10 8 11
38 35 36 36 36 31 28 23 23 21 20 19 19 19 20 19 18 17 18 18 20 20 18 15 13 13 13 16 20 19 19 21 22 23 23 23 23 23 22 20 18 16 13 9 7 7 7 8 11
37 34 37 35 33 28 27 24 22 21 20 20 19 19 19 18 17 18 19 21 20 21 18 15 15 15 16 20 22 20 20 21 21 21 20 20 20 19 16 15 13 10 8 6 6 6 7 9 10
37 33 34 32 30 27 25 25 22 20 19 18 17 16 16 16 16 17 18 18 19 19 15 15 16 18 20 23 23 20 19 19 20 19 18 16 15 13 11 9 8 7 7 6 7 7 8 10 12
39 33 31 31 30 36 25 31 20 21 20 19 18 17 16 16 16 17 17 17 16 15 15 17 19 22 24 24 20 18 17 17 18 17 16 15 13 11 9 8 8 8 8 8 8 8 9 10 12
42 36 32 30 30 30 27 32 21 19 18 18 18 17 17 18 20 20 18 15 15 15 17 21 23 25 23 20 18 17 15 16 15 15 15 13 12 10 9 9 10 9 9 9 9 9 9 10 11
48 42 37 35 33 38 27 28 20 21 18 20 19 18 20 23 22 19 17 16 16 18 21 24 24 22 19 18 17 14 14 14 14 15 14 13 12 10 10 11 11 12 12 12 11 11 11 11 12
49 49 55 50 48 46 38 28 21 21 23 22 22 24 24 23 21 19 18 17 19 22 23 21 20 19 19 19 16 14 14 14 15 15 15 14 12 11 12 12 13 13 14 14 13 13 12 12 13
52 46 51 46 48 47 40 36 23 27 30 29 30 29 26 22 19 19 21 21 20 19 19 20 20 20 21 18 16 15 13 14 16 16 15 15 13 13 13 14 14 15 17 18 19 20 19 18 17
52 53 45 49 50 50 49 36 33 35 34 33 31 28 25 22 21 19 18 17 19 21 21 21 20 20 18 16 15 15 16 16 16 17 17 16 16 15 15 16 18 20 22 24 26 26 26 26 25
51 50 51 55 50 38 51 44 42 38 33 31 27 25 22 19 19 19 19 20 20 19 18 18 17 16 16 15 17 18 17 17 18 19 20 20 20 21 22 22 22 23 25 27 28 30 31 32 33
55 51 50 49 50 52 48 37 33 32 30 29 26 22 21 21 20 20 21 20 19 17 14 13 15 14 16 18 19 18 19 21 21 22 24 26 27 28 28 28 27 26 28 31 33 35 37 39 40
55 48 47 46 40 50 43 36 33 31 27 26 23 23 21 21 22 21 17 15 14 14 14 14 13 15 19 20 19 20 22 24 25 25 26 28 29 30 30 32 35 38 38 36 35 35 37 39 41

GFSSGP_prec_cthk_144.txt.gz
RH
23 23 23 24 23 25 25 23 21 27 29 35 39 41 43 46 41 37 41 36 37 36 40 46 46 47 42 40 42 40 39 39 40 43 43 44 39 40 40 41 42 45 50 46 45 44 42 42 42
24 23 25 25 24 25 24 22 23 28 33 36 39 42 46 45 42 38 36 34 33 35 37 39 37 37 36 35 36 37 38 39 39 37 35 37 38 38 38 41 39 40 42 42 43 43 43 43 42
23 26 26 27 26 24 22 21 25 34 37 37 41 45 46 44 40 33 31 31 30 32 34 34 34 34 34 33 33 33 33 32 32 33 31 28 29 34 40 42 41 38 39 39 40 40 41 43 45
23 28 27 28 26 25 21 22 31 37 36 36 41 44 45 42 39 33 27 27 30 31 33 33 33 32 30 30 29 28 27 27 28 28 26 24 25 27 32 35 36 36 37 36 36 37 40 41 42
23 25 31 33 27 24 22 26 32 36 36 37 40 41 41 40 37 34 29 28 29 29 30 30 28 27 26 25 23 22 21 21 22 22 21 20 19 18 18 19 24 28 28 29 29 31 33 34 35
27 22 27 31 26 24 25 29 32 36 37 37 38 37 39 39 37 31 27 25 24 27 28 28 25 25 21 18 15 14 13 14 14 13 13 13 13 13 12 11 12 15 18 20 21 23 25 26 28
31 24 21 20 21 28 25 32 33 35 36 37 35 37 36 38 32 27 26 24 25 26 26 24 18 15 13 12 11 11 11 11 10 10 10 9 9 8 8 9 10 11 11 12 13 15 18 20 23
35 26 19 16 22 23 24 31 33 32 35 34 32 33 34 32 27 26 25 24 25 25 19 16 14 13 11 11 11 12 12 11 11 11 10 10 10 9 9 10 10 11 11 11 12 13 13 13 15
41 32 23 15 24 21 24 28 29 31 31 28 27 25 25 28 24 24 24 23 22 18 17 15 13 11 10 10 11 12 12 12 12 11 11 11 11 11 11 11 10 11 11 12 12 13 14 14 15
41 38 24 15 18 20 25 25 24 25 25 26 25 23 24 25 23 23 23 22 18 17 15 14 12 11 10 11 13 12 12 12 12 12 13 13 13 13 12 12 12 12 13 14 15 14 15 17 17
41 37 23 17 18 20 24 25 22 21 24 24 22 21 23 22 22 22 23 19 18 16 14 13 11 10 11 13 12 12 12 12 12 13 12 13 13 13 13 14 15 16 16 16 17 18 18 18 18
41 34 26 20 20 21 26 23 22 23 23 23 22 21 21 21 21 22 20 19 18 15 14 12 11 10 11 12 12 12 12 12 12 12 13 14 14 14 15 16 17 16 15 17 18 18 18 17 17
40 33 27 22 22 22 28 25 21 22 22 21 22 21 21 22 22 21 20 19 18 14 13 12 11 10 11 12 13 12 12 12 13 15 15 16 16 16 17 16 16 17 19 20 20 18 17 18 18
41 35 29 24 25 25 29 27 24 24 23 24 26 22 23 22 22 21 20 19 17 14 12 11 10 11 13 13 13 13 13 14 15 16 17 17 18 18 17 17 19 20 21 20 18 18 19 19 19
40 36 31 26 26 28 30 29 25 24 24 26 26 24 23 22 21 21 20 18 16 13 12 11 11 14 14 13 12 13 15 15 17 18 19 19 19 19 20 21 22 21 20 20 19 18 18 18 19
43 40 38 29 26 28 30 30 25 26 25 25 26 23 23 21 21 21 19 18 15 13 11 11 13 13 13 13 12 14 16 16 18 20 21 21 21 22 22 22 22 21 20 18 17 17 17 18 18
49 49 41 34 28 26 29 29 26 26 25 23 22 21 22 22 21 20 19 18 15 14 13 12 15 14 13 12 12 16 17 16 17 20 21 21 22 21 21 21 21 20 17 16 14 12 11 10 12
49 46 43 38 32 30 29 27 26 26 24 22 20 20 21 21 20 19 18 17 16 15 14 15 16 15 14 12 14 17 17 16 18 20 20 20 19 20 20 20 19 17 15 13 9 7 7 7 10
40 42 45 42 35 32 31 25 26 25 23 21 20 20 21 21 20 19 18 18 16 16 16 19 18 16 15 13 16 19 17 18 19 19 18 18 18 17 17 16 14 13 10 7 6 5 6 7 8
40 43 48 45 40 35 33 27 25 25 22 21 20 20 20 20 19 19 18 17 17 18 19 19 19 16 15 15 19 20 18 18 18 18 18 16 15 15 13 12 11 9 7 6 6 6 6 7 9
41 40 44 45 44 40 34 31 26 23 22 20 19 19 19 18 18 17 17 17 17 18 18 19 19 16 17 18 21 20 18 17 17 17 15 14 13 13 11 9 8 8 8 8 7 7 8 8 9
41 36 40 41 42 47 34 36 23 23 22 21 18 17 16 16 16 16 16 15 15 17 19 19 17 17 19 21 21 18 17 16 16 15 14 13 13 12 10 8 8 9 9 9 9 9 9 9 10
42 35 33 36 40 36 30 34 21 20 20 19 18 17 16 16 15 15 15 16 17 18 19 17 17 19 22 20 18 17 16 15 14 14 13 14 13 12 10 9 10 10 11 11 10 10 10 10 10
46 36 35 36 36 42 33 31 22 22 19 18 19 17 17 17 17 17 19 20 18 18 17 17 20 22 20 18 18 18 15 13 13 15 14 16 15 12 10 10 11 11 12 12 12 12 12 13 13
50 43 55 51 50 47 39 30 22 20 23 20 19 18 17 18 19 22 23 21 19 17 18 21 21 18 19 19 20 19 15 14 14 15 17 17 16 14 12 11 12 13 14 15 16 17 18 19 19
55 42 49 47 50 46 39 33 21 21 25 23 21 20 20 21 23 25 23 21 19 20 19 17 17 19 21 21 20 17 15 15 15 17 18 18 17 15 14 13 14 16 18 19 20 22 23 24 25
56 54 40 47 46 46 44 30 23 25 27 25 25 25 26 28 27 26 23 19 17 16 18 20 20 20 19 17 15 15 16 17 18 17 18 20 20 20 19 19 19 20 21 22 23 26 28 30 32
55 53 52 54 46 37 43 37 35 32 32 32 33 32 32 30 25 21 18 17 17 17 18 18 18 16 15 15 15 15 17 18 19 21 22 24 26 27 27 26 26 26 25 25 27 30 33 35 35
60 55 53 51 51 48 41 34 34 34 35 35 35 33 28 24 20 18 17 18 18 19 18 16 14 13 14 15 17 19 20 21 23 25 26 28 28 29 29 30 31 32 34 35 34 32 31 32 34
61 52 48 48 42 53 43 38 36 36 36 33 33 27 25 21 19 19 20 19 17 15 15 14 13 14 14 16 19 21 22 22 23 24 25 26 25 26 27 30 31 33 35 36 38 38 39 36 33